[[{"header":{"parameterUnit":"m.s-1","parameterCategory":1,"la1":31.0,"la2":29.5877,"lo1":-88.7671,"lo2":-86.6584,"dy":0.0162,"dx":0.0185,"nx":115,"ny":88,"refTime":"2024-04-11T06:00:00:Z","depth":0,"parameterNumber":2,"parameterNumberName":"U-component_of_WINDS"},"data":[0.0,0.0,0.0,0.0,0.0,0.0,0.0,0.0,0.0,0.0,0.0,0.0,0.0,0.0,0.0,0.0,0.0,0.0,0.0,0.0,0.0,0.0,0.0,0.0,0.0,0.0,0.0,0.0,0.0,0.0,0.0,0.0,0.0,0.0,0.0,0.0,0.0,0.0,0.0,0.0,0.0,0.0,0.0,0.0,0.0,0.0,0.0,0.0,0.0,0.0,0.0,0.0,0.0,0.0,0.0,0.0,0.0,0.0,0.0,0.0,0.0,0.0,0.0,0.0,0.0,0.0,0.0,0.0,0.0,0.0,0.0,0.0,0.0,0.0,0.0,0.0,0.0,0.0,0.0,0.0,0.0,0.0,0.0,0.0,0.0,0.0,0.0,0.0,0.0,0.0,0.0,0.0,0.0,0.0,0.0,0.0,0.0,0.0,0.0,0.0,0.0,0.0,0.0,0.0,0.0,0.0,0.0,0.0,0.0,0.0,0.0,0.0,0.0,0.0,0.0,0.0,0.0,0.0,0.0,0.0,0.0,0.0,0.0,0.0,0.0,0.0,0.0,0.0,0.0,0.0,0.0,0.0,0.0,0.0,0.0,0.0,0.0,0.0,0.0,0.0,0.0,0.0,0.0,0.0,0.0,0.0,0.0,0.0,0.0,0.0,0.0,0.0,0.0,0.0,0.0,0.0,0.0,0.0,0.0,0.0,0.0,0.0,0.0,0.0,0.0,0.0,0.0,0.0,0.0,0.0,0.0,0.0,0.0,0.0,0.0,0.0,0.0,0.0,0.0,0.0,0.0,0.0,0.0,0.0,0.0,0.0,0.0,0.0,0.0,0.0,0.0,0.0,0.0,0.0,0.0,0.0,0.0,0.0,0.0,0.0,0.0,0.0,0.0,0.0,0.0,0.0,0.0,0.0,0.0,0.0,0.0,0.0,0.0,0.0,0.0,0.0,0.0,0.0,0.0,0.0,0.0,0.0,0.0,0.0,0.0,0.0,0.0,0.0,0.0,0.0,0.0,0.0,0.0,0.0,0.0,0.0,0.0,0.0,0.0,0.0,0.0,0.0,0.0,0.0,0.0,0.0,0.0,0.0,0.0,0.0,0.0,0.0,0.0,0.0,0.0,0.0,0.0,0.0,0.0,0.0,0.0,0.0,0.0,0.0,0.0,0.0,0.0,0.0,0.0,0.0,0.0,0.0,0.0,0.0,0.0,0.0,0.0,0.0,0.0,0.0,0.0,0.0,0.0,0.0,0.0,0.0,0.0,0.0,0.0,0.0,0.0,0.0,0.0,0.0,0.0,0.0,0.0,0.0,0.0,0.0,0.0,0.0,0.0,0.0,0.0,0.0,0.0,0.0,0.0,0.0,0.0,0.0,0.0,0.0,0.0,0.0,0.0,0.0,0.0,0.0,0.0,0.0,0.0,0.0,0.0,0.0,0.0,0.0,0.0,0.0,0.0,0.0,0.0,0.0,0.0,0.0,0.0,0.0,0.0,0.0,0.0,0.0,0.0,0.0,0.0,0.0,0.0,0.0,0.0,0.0,0.0,0.0,0.0,0.0,0.0,0.0,0.0,0.0,0.0,0.0,0.0,0.0,0.0,0.0,0.0,0.0,0.0,0.0,0.0,0.0,0.0,0.0,0.0,0.0,0.0,0.0,0.0,0.0,0.0,0.0,0.0,0.0,0.0,0.0,0.0,0.0,0.0,0.0,0.0,0.0,0.0,0.0,0.0,0.0,0.0,0.0,0.0,0.0,0.0,0.0,0.0,0.0,0.0,0.0,0.0,0.0,0.0,0.0,0.0,0.0,0.0,0.0,0.0,0.0,0.0,0.0,0.0,0.0,0.0,0.0,0.0,0.0,0.0,0.0,0.0,0.0,0.0,0.0,0.0,0.0,0.0,0.0,0.0,0.0,0.0,0.0,0.0,0.0,0.0,0.0,0.0,0.0,0.0,0.0,0.0,0.0,0.0,0.0,0.0,0.0,0.0,0.0,0.0,0.0,0.0,0.0,0.0,0.0,0.0,0.0,0.0,0.0,0.0,0.0,0.0,0.0,0.0,0.0,0.0,0.0,0.0,0.0,0.0,0.0,0.0,0.0,0.0,0.0,0.0,0.0,0.0,0.0,0.0,0.0,0.0,0.0,0.0,0.0,0.0,0.0,0.0,0.0,0.0,0.0,0.0,0.0,0.0,0.0,0.0,0.0,0.0,0.0,0.0,0.0,0.0,0.0,0.0,0.0,0.0,0.0,0.0,0.0,0.0,0.0,0.0,0.0,0.0,0.0,0.0,0.0,0.0,0.0,0.0,0.0,0.0,0.0,0.0,0.0,0.0,0.0,0.0,0.0,0.0,0.0,0.0,0.0,0.0,0.0,0.0,0.0,0.0,0.0,0.0,0.0,0.0,0.0,0.0,0.0,0.0,0.0,0.0,0.0,0.0,0.0,0.0,0.0,0.0,0.0,0.0,0.0,0.0,0.0,0.0,0.0,0.0,0.0,0.0,0.0,0.0,0.0,0.0,0.0,0.0,0.0,0.0,0.0,0.0,0.0,0.0,0.0,0.0,0.0,0.0,0.0,0.0,0.0,0.0,0.0,0.0,0.0,0.0,0.0,0.0,0.0,0.0,0.0,0.0,0.0,0.0,0.0,0.0,0.0,0.0,0.0,0.0,0.0,0.0,0.0,0.0,0.0,0.0,0.0,0.0,0.0,0.0,0.0,0.0,0.0,0.0,0.0,0.0,0.0,0.0,0.0,0.0,0.0,0.0,0.0,0.0,0.0,0.0,0.0,0.0,0.0,0.0,0.0,0.0,0.0,0.0,0.0,0.0,0.0,0.0,0.0,0.0,0.0,0.0,0.0,0.0,0.0,0.0,0.0,0.0,0.0,0.0,0.0,0.0,0.0,0.0,0.0,0.0,0.0,0.0,0.0,0.0,0.0,0.0,0.0,0.0,0.0,0.0,0.0,0.0,0.0,0.0,0.0,0.0,0.0,0.0,0.0,0.0,0.0,0.0,0.0,0.0,0.0,0.0,0.0,0.0,0.0,0.0,0.0,0.0,0.0,0.0,0.0,0.0,0.0,0.0,0.0,0.0,0.0,0.0,0.0,0.0,0.0,0.0,0.0,0.0,0.0,0.0,0.0,0.0,0.0,0.0,0.0,0.0,0.0,0.0,0.0,0.0,0.0,0.0,0.0,0.0,0.0,0.0,0.0,0.0,0.0,0.0,0.0,0.0,0.0,0.0,0.0,0.0,0.0,0.0,0.0,0.0,0.0,0.0,0.0,0.0,0.0,0.0,0.0,0.0,0.0,0.0,0.0,0.0,0.0,0.0,0.0,0.0,0.0,0.0,0.0,0.0,0.0,0.0,0.0,0.0,0.0,0.0,0.0,0.0,0.0,0.0,0.0,0.0,0.0,0.0,0.0,0.0,0.0,0.0,0.0,0.0,0.0,0.0,0.0,0.0,0.0,0.0,0.0,0.0,0.0,0.0,0.0,0.0,0.0,0.0,0.0,0.0,0.0,0.0,0.0,0.0,0.0,0.0,0.0,0.0,0.0,0.0,0.0,0.0,0.0,0.0,0.0,0.0,0.0,0.0,0.0,0.0,0.0,0.0,0.0,0.0,0.0,0.0,0.0,0.0,0.0,0.0,0.0,0.0,0.0,0.0,0.0,0.0,0.0,0.0,0.0,0.0,0.0,0.0,0.0,0.0,0.0,0.0,0.0,0.0,0.0,0.0,0.0,0.0,0.0,0.0,0.0,0.0,0.0,0.0,0.0,0.0,0.0,0.0,0.0,0.0,0.0,0.0,0.0,0.0,0.0,0.0,0.0,0.0,0.0,0.0,0.0,0.0,0.0,0.0,0.0,0.0,0.0,0.0,0.0,0.0,0.0,0.0,0.0,0.0,0.0,0.0,0.0,0.0,0.0,0.0,0.0,0.0,0.0,0.0,0.0,0.0,0.0,0.0,0.0,0.0,0.0,0.0,0.0,0.0,0.0,0.0,0.0,0.0,0.0,0.0,0.0,0.0,0.0,0.0,0.0,0.0,0.0,0.0,0.0,0.0,0.0,0.0,0.0,0.0,0.0,0.0,0.0,0.0,0.0,0.0,0.0,0.0,0.0,0.0,0.0,0.0,0.0,0.0,0.0,0.0,0.0,0.0,0.0,0.0,0.0,0.0,0.0,0.0,0.0,0.0,0.0,0.0,0.0,0.0,0.0,0.0,0.0,0.0,0.0,0.0,0.0,0.0,0.0,0.0,0.0,0.4497,0.0,0.0,0.0,0.0,0.0,0.0,0.0,0.0,0.0,0.0,0.0,0.0,0.0,0.0,0.0,0.0,0.0,0.0,0.0,0.0,0.0,0.0,0.0,0.0,0.0,0.0,0.0,0.0,0.0,0.0,0.0,0.0,0.0,0.0,0.0,0.0,0.0,0.0,0.0,0.0,0.0,0.0,0.0,0.0,0.0,0.0,0.0,0.0,0.0,0.0,0.0,0.0,0.0,0.0,0.0,0.0,0.0,0.0,0.0,0.0,0.0,0.0,0.0,0.0,0.0,0.0,0.0,0.0,0.0,0.0,0.0,0.0,0.0,0.0,0.0,0.0,0.0,0.0,0.0,0.0,0.0,0.0,0.0,0.0,0.0,0.0,0.0,0.0,0.0,0.0,0.0,0.0,0.0,0.0,0.0,0.0,0.0,0.0,0.0,0.0,0.0,0.0,0.0,0.0,0.0,0.0,0.0,0.0,0.0,0.0,0.4498,0.4498,0.4498,0.4669,0.5083,0.0,0.0,0.0,0.0,0.0,0.0,0.0,0.0,0.0,0.0,0.0,0.0,0.0,0.0,0.0,0.0,0.0,0.0,0.0,0.0,0.0,0.0,0.0,0.0,0.0,0.0,0.0,0.0,0.0,0.0,0.0,0.0,0.0,0.0,0.0,0.0,0.0,0.0,0.0,0.0,0.0,0.0,0.0,0.0,0.0,0.0,0.0,0.0,0.0,0.0,0.0,0.0,0.0,0.0,0.0,0.0,0.0,0.0,0.0,0.0,0.0,0.0,0.0,0.0,0.0,0.0,0.0,0.0,0.0,0.0,0.0,0.0,0.0,0.0,0.0,0.0,0.0,0.0,0.0,0.0,0.0,0.0,0.0,0.0,0.0,0.0,0.0,0.0,0.0,0.0,0.0,0.0,0.0,0.0,0.0,0.0,0.0,0.0,0.0,0.0,0.0,0.0,0.0,0.0,0.0,0.0,0.0,0.0,0.0,0.0,0.0,0.0,0.4667,0.5163,0.6077,0.0,0.0,0.0,0.0,0.0,0.0,0.0,0.0,0.0,0.0,0.0,0.0,0.0,0.0,0.0,0.0,0.0,0.0,0.0,0.0,0.0,0.0,0.0,0.0,0.0,0.0,0.0,0.0,0.0,0.0,0.0,0.0,0.0,0.0,0.0,0.0,0.0,0.0,0.0,0.0,0.0,0.0,0.0,0.0,0.0,0.0,0.0,0.0,0.0,0.0,0.0,0.0,0.0,0.0,0.0,0.0,0.0,0.0,0.0,0.0,0.0,0.0,0.0,0.0,0.0,0.0,0.0,0.0,0.0,0.0,0.0,0.0,0.0,0.0,0.0,0.0,0.0,0.0,0.0,0.0,0.0,0.0,0.0,0.0,0.0,0.0,0.0,0.0,0.0,0.0,0.0,0.0,0.0,0.0,0.0,0.0,0.0,0.0,0.0,0.0,0.0,0.0,0.0,0.0,0.0,0.0,0.0,0.0,0.0,0.0,0.4459,0.4447,0.507,0.0,0.7409,0.0,0.0,0.0,0.0,0.0,0.0,0.0,0.0,0.0,0.0,0.0,0.0,0.0,0.0,0.0,0.0,0.0,0.0,0.0,0.0,0.0,0.0,0.0,0.0,0.0,0.0,0.0,0.0,0.0,0.0,0.0,0.0,0.0,0.0,0.0,0.0,0.0,0.0,0.0,0.0,0.0,0.0,0.0,0.0,0.0,0.0,0.0,0.0,0.0,0.0,0.0,0.0,0.0,0.0,0.0,0.0,0.0,0.0,0.0,0.0,0.0,0.0,0.0,0.0,0.0,0.0,0.0,0.0,0.0,0.0,0.0,0.0,0.0,0.0,0.0,0.0,0.0,0.0,0.0,0.0,0.0,0.0,0.0,0.0,0.0,0.0,0.0,0.0,0.0,0.0,0.0,0.0,0.0,0.0,0.0,0.0,0.0,0.0,0.0,0.0,0.0,0.0,0.0,0.0,0.0,0.0,0.0,0.0,0.0,0.0,0.469,0.5029,0.6189,0.7074,0.0,0.0,0.0,0.0,0.0,0.0,0.0,0.0,0.0,0.0,0.0,0.0,0.0,0.0,0.0,0.0,0.0,0.0,0.0,0.0,0.0,0.0,0.0,0.0,0.0,0.0,0.0,0.0,0.0,0.0,0.0,0.0,0.0,0.0,0.0,0.0,0.0,0.0,0.0,0.0,0.0,0.0,0.0,0.0,0.0,0.0,0.0,0.0,0.0,0.0,0.0,0.0,0.0,0.0,0.0,0.0,0.0,0.0,0.0,0.0,0.0,0.0,0.0,0.0,0.0,0.0,0.0,0.0,0.0,0.0,0.0,0.0,0.0,0.0,0.0,0.0,0.0,0.0,0.0,0.0,0.0,0.0,0.0,0.0,0.0,0.0,0.0,0.0,0.0,0.0,0.0,0.0,0.0,0.0,0.0,0.0,0.0,0.0,0.0,0.0,0.0,0.0,0.0,0.0,0.0,0.0,0.0,0.0,0.0,0.0,0.4498,0.4906,0.5781,0.7029,0.7745,0.7977,0.0,0.0,0.0,0.0,0.0,0.0,0.0,0.0,0.0,0.0,0.0,0.0,0.0,0.0,0.0,0.0,0.0,0.0,0.0,0.0,0.0,0.0,0.0,0.0,0.0,0.0,0.0,0.0,0.0,0.0,0.0,0.0,0.0,0.0,0.0,0.0,0.0,0.0,0.0,0.0,0.0,0.0,0.0,0.0,0.0,0.0,0.0,0.0,0.0,0.0,0.0,0.0,0.0,0.0,0.0,0.0,0.0,0.0,0.0,0.0,0.0,0.0,0.0,0.0,0.0,0.0,0.0,0.0,0.0,0.0,0.0,0.0,0.0,0.0,0.0,0.0,0.0,0.0,0.0,0.0,0.0,0.0,0.0,0.0,0.0,0.0,0.0,0.0,0.0,0.0,0.0,0.0,0.0,0.0,0.0,0.0,0.0,0.0,0.0,0.0,0.0,0.0,0.0,0.0,0.0,0.0,0.0,0.0,0.4503,0.4463,0.5121,0.6503,0.7242,0.793,0.0,0.0,0.0,0.0,0.0,0.0,0.0,0.0,0.0,0.0,0.0,0.0,0.0,0.0,0.0,0.0,0.0,0.0,0.0,0.0,0.0,0.0,0.0,0.0,0.0,0.0,0.0,0.0,0.0,0.0,0.0,0.0,0.0,0.0,0.0,0.0,0.0,0.0,0.0,0.0,0.0,0.0,0.0,0.0,0.0,0.0,0.0,0.0,0.0,0.0,0.0,0.0,0.0,0.0,0.0,0.0,0.0,0.0,0.0,0.0,0.0,0.0,0.0,0.0,0.0,0.0,0.0,0.0,0.0,0.0,0.0,0.0,0.0,0.0,0.0,0.0,0.0,0.0,0.0,0.0,0.0,0.0,0.0,0.0,0.0,0.0,0.0,0.0,0.0,0.0,0.0,0.0,0.0,0.0,0.0,0.0,0.0,0.0,0.0,0.0,0.0,0.0,0.0,0.0,0.0,0.0,0.0,0.0,0.0,0.4497,0.5319,0.629,0.7289,0.7948,0.8423,0.0,0.0,0.0,0.0,0.0,0.0,0.0,0.0,0.0,0.0,0.0,0.0,0.0,0.0,0.0,0.0,0.0,0.0,0.0,0.0,0.0,0.0,0.0,0.0,0.0,0.0,0.0,0.0,0.0,0.0,0.0,0.0,0.0,0.0,0.0,0.0,0.0,0.0,0.0,0.0,0.0,0.0,0.0,0.0,0.0,0.0,0.0,0.0,0.0,0.0,0.0,0.0,0.0,0.0,0.0,0.0,0.0,0.0,0.0,0.0,0.0,0.0,0.0,0.0,0.0,0.0,0.0,0.0,0.0,0.0,0.0,0.0,0.0,0.0,0.0,0.0,0.0,0.0,0.0,0.0,0.0,0.0,0.0,0.0,0.0,0.0,0.0,0.0,0.0,0.0,0.0,0.0,0.0,0.0,0.0,0.0,0.0,0.0,0.0,0.0,0.0,0.0,0.0,0.0,0.0,0.0,0.0,0.0,0.0,0.513,0.0,0.7182,0.7642,0.8341,0.8686,0.0,0.0,0.0,0.0,0.0,0.0,0.0,0.0,0.0,0.0,0.0,0.0,0.0,0.0,0.0,0.0,0.0,0.0,0.0,0.0,0.0,0.0,0.0,0.0,0.0,0.0,0.0,0.0,0.0,0.0,0.0,0.0,0.0,0.0,0.0,0.0,0.0,0.0,0.0,0.0,0.0,0.0,0.0,0.0,0.0,0.0,0.0,0.0,0.0,0.0,0.0,0.0,0.0,0.0,0.0,0.0,0.0,0.0,0.0,0.0,0.0,0.0,0.0,0.0,0.0,0.0,0.0,0.0,0.0,0.0,0.0,0.0,0.0,0.0,0.0,0.0,0.0,0.0,0.0,0.0,0.0,0.0,0.0,0.0,0.0,0.0,0.0,0.0,0.0,0.0,0.0,0.0,0.0,0.0,0.0,0.0,0.0,0.0,0.0,0.0,0.0,0.0,0.0,0.0,0.0,0.0,0.0,0.0,0.5968,0.6614,0.73,0.7709,0.7664,0.8387,0.8717,0.0,0.0,0.0,0.0,0.0,0.0,0.0,0.0,0.0,0.0,0.0,0.0,0.0,0.0,0.0,0.0,0.0,0.0,0.0,0.0,0.0,0.0,0.0,0.0,0.0,0.0,0.0,0.0,0.0,0.0,0.0,0.0,0.0,0.0,0.0,0.0,0.0,0.0,0.0,0.0,0.0,0.0,0.0,0.0,0.0,0.0,0.0,0.0,0.0,0.0,0.0,0.0,0.0,0.0,0.0,0.0,0.0,0.0,0.0,0.0,0.0,0.0,0.0,0.0,0.0,0.0,0.0,0.0,0.0,0.0,0.0,0.0,0.0,0.0,0.0,0.0,0.0,0.0,0.0,0.0,0.0,0.0,0.0,0.0,0.0,0.0,0.0,0.0,0.0,0.0,0.0,0.0,0.0,0.0,0.0,0.0,0.0,0.0,0.0,0.0,0.0,0.0,0.0,0.0,0.0,0.0,0.0,0.0,0.0,0.8045,0.8258,0.8612,0.9105,0.9347,0.9231,0.0,0.0,0.0,0.0,0.0,0.0,0.0,0.0,0.0,0.0,0.0,0.0,0.0,0.0,0.0,0.0,0.0,0.0,0.0,0.0,0.0,0.0,0.0,0.0,0.0,0.0,0.0,0.0,0.0,0.0,0.0,0.0,0.0,0.0,0.0,0.0,0.0,0.0,0.0,0.0,0.0,0.0,0.0,0.0,0.0,0.0,0.0,0.0,0.0,0.0,0.0,0.0,0.0,0.0,0.0,0.0,0.0,0.0,0.0,0.0,0.0,0.0,0.0,0.0,0.0,0.0,0.0,0.0,0.0,0.0,0.0,0.0,0.0,0.0,0.0,0.0,0.0,0.0,0.0,0.0,0.0,0.0,0.0,0.0,0.0,0.0,0.0,0.0,0.0,0.0,0.0,0.0,0.0,0.0,0.0,0.0,0.0,0.0,0.0,0.0,0.0,0.0,0.0,0.0,0.0,0.0,0.0,0.0,0.0,1.0309,0.9797,0.9733,1.022,0.9948,0.958,0.9127,0.0,0.0,0.0,0.0,0.0,0.0,0.0,0.0,0.0,0.0,0.0,0.0,0.0,0.0,0.0,0.0,0.0,0.0,0.0,0.0,0.0,0.0,0.0,0.0,0.0,0.0,0.0,0.0,0.0,0.0,0.0,0.0,0.0,0.0,0.0,0.0,0.0,0.0,0.0,0.0,0.0,0.0,0.0,0.0,0.0,0.0,0.0,0.0,0.0,0.0,0.0,0.0,0.0,0.0,0.0,0.0,0.0,0.0,0.0,0.0,0.0,0.0,0.0,0.0,0.0,0.0,0.0,0.0,0.0,0.0,0.0,0.0,0.0,0.0,0.0,0.0,0.0,0.0,0.0,0.0,0.0,0.0,0.0,0.0,0.0,0.0,0.0,0.0,0.0,0.0,0.0,0.0,0.0,0.0,0.0,0.0,0.0,0.0,0.0,0.0,0.0,0.0,0.0,0.0,0.0,0.0,0.0,0.0,1.3147,1.1897,1.1169,1.1041,1.0374,0.9917,0.0,0.0,0.0,0.0,0.0,0.0,0.0,0.0,0.0,0.0,0.0,0.0,0.0,0.0,0.0,0.0,0.0,0.0,0.0,0.0,0.0,0.0,0.0,0.0,0.0,0.0,0.0,0.0,0.0,0.0,0.0,0.0,0.0,0.0,0.0,0.0,0.0,0.0,0.0,0.0,0.0,0.0,0.0,0.0,0.0,0.0,0.0,0.0,0.0,0.0,0.0,0.0,0.0,0.0,0.0,0.0,0.0,0.0,0.0,0.0,0.0,0.0,0.0,0.0,0.0,0.0,0.0,0.0,0.0,0.0,0.0,0.0,0.0,0.0,0.0,0.0,0.0,0.0,0.0,0.0,0.0,0.0,0.0,0.0,0.0,0.0,0.0,0.0,0.0,0.0,0.0,0.0,0.0,0.0,0.0,0.0,0.0,0.0,0.0,0.0,0.0,0.0,0.0,0.0,0.0,0.0,0.0,0.0,0.0,1.3875,1.4586,1.4188,1.2586,1.2317,1.1468,0.0,0.0,0.0,0.0,0.0,0.0,0.0,0.0,0.0,0.0,0.0,0.0,0.0,0.0,0.0,0.0,0.0,0.0,0.0,0.0,0.0,0.0,0.0,0.0,0.0,0.0,0.0,0.0,0.0,0.0,0.0,0.0,0.0,0.0,0.0,0.0,0.0,0.0,0.0,0.0,0.0,0.0,0.0,0.0,0.0,0.0,0.0,0.0,0.0,0.0,0.0,0.0,0.0,0.0,0.0,0.0,0.0,0.0,0.0,0.0,0.0,0.0,0.0,0.0,0.0,0.0,0.0,0.0,0.0,0.0,0.0,0.0,0.0,0.0,0.0,0.0,0.0,0.0,0.0,0.0,0.0,0.0,0.0,0.0,0.0,0.0,0.0,0.0,0.0,0.0,0.0,0.0,0.0,0.0,0.0,0.0,0.0,0.0,0.0,0.0,0.0,0.0,0.0,0.0,0.0,0.0,0.0,0.0,1.3324,1.5108,1.6542,1.6536,1.4986,1.4043,1.265,0.0,0.0,0.0,0.0,0.0,0.0,0.0,0.0,0.0,0.0,0.0,0.0,0.0,0.0,0.0,0.0,0.0,0.0,0.0,0.0,0.0,0.0,0.0,0.0,0.0,0.0,0.0,0.0,0.0,0.0,0.0,0.0,0.0,0.0,0.0,0.0,0.0,0.0,0.0,0.0,0.0,0.0,0.0,0.0,0.0,0.0,0.0,0.0,0.0,0.0,0.0,0.0,0.0,0.0,0.0,0.0,0.0,0.0,0.0,0.0,0.0,0.0,0.0,0.0,0.0,0.0,0.0,0.0,0.0,0.0,0.0,0.0,0.0,0.0,0.0,0.0,0.0,0.0,0.0,0.0,0.0,0.0,0.0,0.0,0.0,0.0,0.0,0.0,0.0,0.0,0.0,0.0,0.0,0.0,0.0,0.0,0.0,0.0,0.0,0.0,0.0,0.0,0.0,0.0,0.0,0.0,0.0,0.0,1.4413,1.6577,1.7985,1.8412,1.7702,1.5605,1.3644,0.0,0.0,0.0,0.0,0.0,0.0,0.0,0.0,0.0,0.0,0.0,0.0,0.0,0.0,0.0,0.0,0.0,0.0,0.0,0.0,0.0,0.0,0.0,0.0,0.0,0.0,0.0,0.0,0.0,0.0,0.0,0.0,0.0,0.0,0.0,0.0,0.0,0.0,0.0,0.0,0.0,0.0,0.0,0.0,0.0,0.0,0.0,0.0,0.0,0.0,0.0,0.0,0.0,0.0,0.0,0.0,0.0,0.0,0.0,0.0,0.0,0.0,0.0,0.0,0.0,0.0,0.0,0.0,0.0,0.0,0.0,0.0,0.0,0.0,0.0,0.0,0.0,0.0,0.0,0.0,0.0,0.0,0.0,0.0,0.0,0.0,0.0,0.0,0.0,0.0,0.0,0.0,0.0,0.0,0.0,0.0,0.0,0.0,0.0,0.0,0.0,0.0,0.0,0.0,0.0,0.0,0.0,0.0,1.5881,1.8009,1.9479,1.9879,1.9158,1.7063,1.4675,0.0,0.0,0.0,0.0,0.0,0.0,0.0,0.0,0.0,0.0,0.0,0.0,0.0,0.0,0.0,0.0,0.0,0.0,0.0,0.0,0.0,0.0,0.0,0.0,0.0,0.0,0.0,0.0,0.0,0.0,0.0,0.0,0.0,0.0,0.0,0.0,0.0,0.0,0.0,0.0,0.0,0.0,0.0,0.0,0.0,0.0,0.0,0.0,0.9701,0.0,0.0,0.0,0.0,0.0,0.0,0.0,0.0,0.0,0.0,0.0,0.0,0.0,0.0,0.0,0.0,0.0,0.0,0.0,0.0,0.0,0.0,0.0,0.0,0.0,0.0,0.0,0.0,0.0,0.0,0.0,0.0,0.0,0.0,0.0,0.0,0.0,0.0,0.0,0.0,0.0,0.0,0.0,0.0,0.0,0.0,0.0,0.0,0.0,0.0,0.0,0.0,0.0,0.0,0.0,0.0,0.0,0.0,0.0,1.6345,1.8439,1.9953,2.0343,1.9591,1.7858,1.5674,0.0,0.0,0.0,0.0,0.0,0.0,0.0,0.0,0.0,0.0,0.0,0.0,0.0,0.0,0.0,0.0,0.0,0.0,0.0,0.0,0.0,0.0,0.0,0.0,0.0,0.0,0.0,0.0,0.0,0.0,0.0,0.0,0.0,0.0,0.0,0.0,0.0,0.0,0.0,0.0,0.0,0.0,0.0,0.0,0.0,0.0,0.0,0.0,0.0,0.0,0.0,0.0,0.0,0.0,0.0,0.0,0.0,0.0,0.0,0.0,0.0,0.0,0.0,0.0,0.0,0.0,0.0,0.0,0.0,0.0,0.0,0.0,0.0,0.0,0.0,0.0,0.0,0.0,0.0,0.0,0.0,0.0,0.0,0.0,0.0,0.0,0.0,0.0,0.0,0.0,0.0,0.0,0.0,0.0,0.0,0.0,0.0,0.0,0.0,0.0,0.0,0.0,0.0,0.0,0.0,0.0,0.0,1.4453,1.6602,1.8631,2.0108,2.0472,1.9621,1.8346,1.6555,0.0,0.0,0.0,0.0,0.0,0.0,0.0,0.0,0.0,0.0,0.0,0.0,0.0,0.0,0.0,0.0,0.0,0.0,0.0,0.0,0.0,0.0,0.0,0.0,0.0,0.0,0.0,0.0,0.0,0.0,0.0,0.0,0.0,0.0,0.0,0.0,0.0,0.0,0.0,1.1755,1.2247,0.0,0.0,0.0,0.0,0.0,0.0,0.0,0.0,1.1177,0.0,0.0,0.0,0.0,0.0,0.0,0.0,0.0,0.0,0.0,0.0,0.0,0.0,0.0,0.0,0.0,0.0,0.0,0.0,0.0,0.0,0.0,0.0,0.0,0.0,0.0,0.0,0.0,0.0,0.0,0.0,0.0,0.0,0.0,0.0,0.0,0.0,0.0,0.0,0.0,0.0,0.0,0.0,0.0,0.0,0.0,0.0,0.0,0.0,0.0,0.0,0.0,0.0,0.0,0.0,0.0,1.2911,1.5661,1.7813,1.9386,2.087,2.0966,1.9654,1.8774,1.7053,1.4299,0.0,0.0,0.0,0.0,0.0,0.0,0.0,0.0,0.0,0.0,0.0,0.0,0.0,0.0,0.0,0.0,0.0,0.0,0.0,0.0,0.0,0.0,0.0,0.0,0.0,0.0,0.0,0.0,0.0,0.0,0.0,0.0,0.0,0.0,0.0,0.0,0.0,0.0,0.0,1.3578,1.4016,0.0,0.0,0.0,0.0,0.0,0.0,0.0,0.0,1.2867,0.0,0.0,0.0,0.0,0.0,0.0,0.0,0.0,0.0,0.0,0.0,0.0,0.0,0.0,0.0,0.0,0.0,0.0,0.0,0.0,0.0,0.0,0.0,0.0,0.0,0.0,0.0,0.0,0.0,0.0,0.0,0.0,0.0,0.0,0.0,0.0,0.0,0.0,0.0,0.0,0.0,0.0,0.0,0.0,0.0,0.0,0.0,0.0,0.0,0.0,0.0,0.0,0.0,0.0,0.0,1.3182,1.5967,1.815,1.9591,2.1036,2.1098,1.9661,1.8497,1.6749,0.0,0.0,0.0,0.0,0.0,0.0,0.0,0.0,0.0,0.0,0.0,0.0,0.0,0.0,0.0,0.0,0.0,0.0,0.0,0.0,0.0,0.0,0.0,0.0,0.0,0.0,0.0,0.0,0.0,0.0,0.0,0.0,0.0,0.0,0.0,0.0,0.0,0.0,0.0,0.0,1.4194,1.5138,1.5547,0.0,0.0,0.0,0.0,0.0,0.0,1.4672,1.4692,0.0,0.0,0.0,0.0,0.0,0.0,0.0,0.0,0.0,0.0,0.0,0.0,0.0,0.0,0.0,0.0,0.0,0.0,0.0,0.0,0.0,0.0,0.0,0.0,0.0,0.0,0.0,0.0,0.0,0.0,0.0,0.0,0.0,0.0,0.0,0.0,0.0,0.0,0.0,0.0,0.0,0.0,0.0,0.0,0.0,0.0,0.0,0.0,0.0,0.0,0.0,0.0,0.0,0.0,0.0,1.3142,1.6003,1.8184,1.9591,2.0899,2.0933,1.9607,1.8002,1.613,0.0,0.0,0.0,0.0,0.0,0.0,0.0,0.0,0.0,0.0,0.0,0.0,0.0,0.0,0.0,0.0,0.0,0.0,0.0,0.0,0.0,0.0,0.0,0.0,0.0,0.0,0.0,0.0,0.0,0.0,0.0,0.0,0.0,0.0,0.0,0.0,0.0,0.0,0.0,0.0,0.0,1.6293,1.7074,1.7326,0.0,0.0,0.0,0.0,1.6751,1.6963,0.0,0.0,0.0,0.0,0.0,0.0,0.0,0.0,0.0,0.0,0.0,0.0,0.0,0.0,0.0,0.0,0.0,0.0,0.0,0.0,0.0,0.0,0.0,0.0,0.0,0.0,0.0,0.0,0.0,0.0,0.0,0.0,0.0,0.0,0.0,0.0,0.0,0.0,0.0,0.0,0.0,0.0,0.0,0.0,0.0,0.0,0.0,0.0,0.0,0.0,0.0,0.0,0.0,0.0,0.0,0.0,1.3142,1.6006,1.816,1.9558,2.041,2.0385,1.9527,1.7446,1.5307,0.0,0.0,0.0,0.0,0.0,0.0,0.0,0.0,0.0,0.0,0.0,0.0,0.0,0.0,0.0,0.0,0.0,0.0,0.0,0.0,0.0,0.0,0.0,0.0,0.0,0.0,0.0,0.0,0.0,0.0,0.0,0.0,0.0,0.0,0.0,0.0,0.0,0.0,0.0,0.0,0.0,1.79,1.8733,1.9419,1.963,0.0,0.0,0.0,1.6932,1.7904,0.0,0.0,0.0,0.0,0.0,0.0,0.0,0.0,0.0,0.0,0.0,0.0,0.0,0.0,0.0,0.0,0.0,0.0,0.0,0.0,0.0,0.0,0.0,0.0,0.0,0.0,0.0,0.0,0.0,0.0,0.0,0.0,0.0,0.0,0.0,0.0,0.0,0.0,0.0,0.0,0.0,0.0,0.0,0.0,0.0,0.0,0.0,0.0,0.0,0.0,0.0,0.0,0.0,0.0,0.0,1.1822,1.3736,1.6205,1.8184,1.9555,2.0307,2.0323,1.9514,1.7344,1.5162,0.0,0.0,0.0,0.0,0.0,0.0,0.0,0.0,0.0,0.0,0.0,0.0,0.0,0.0,0.0,0.0,0.0,0.0,0.0,0.0,0.0,0.0,0.0,0.0,0.0,0.0,0.0,0.0,0.0,0.0,0.0,0.0,0.0,0.0,0.0,0.0,0.0,0.0,0.0,0.0,0.0,0.0,1.9673,2.0465,0.0,0.0,0.0,1.9988,1.989,0.0,0.0,0.0,0.0,0.0,0.0,0.0,0.0,0.0,0.0,0.0,0.0,0.0,0.0,0.0,0.0,0.0,0.0,0.0,0.0,0.0,0.0,0.0,0.0,0.0,0.0,0.0,0.0,0.0,0.0,0.0,0.0,0.0,0.0,0.0,0.0,0.0,0.0,0.0,0.0,0.0,0.0,0.0,0.0,0.0,0.0,0.0,0.0,0.0,0.0,0.0,0.0,0.0,0.0,0.0,0.0,0.0,1.4199,1.6373,1.8184,1.9561,2.0314,2.0305,1.9486,1.7365,0.0,0.0,0.0,0.0,0.0,0.0,0.0,0.0,0.0,0.0,0.0,0.0,0.0,0.0,0.0,0.0,0.0,0.0,0.0,0.0,0.0,0.0,0.0,0.0,0.0,0.0,0.0,0.0,0.0,0.0,0.0,0.0,0.0,0.0,0.0,0.0,0.0,0.0,0.0,0.0,0.0,0.0,1.9813,2.1009,2.1873,2.245,0.0,0.0,2.183,2.2931,2.1521,2.0103,0.0,0.0,0.0,0.0,0.0,0.0,0.0,0.0,0.0,0.0,0.0,0.0,0.0,0.0,0.0,0.0,0.0,0.0,0.0,0.0,0.0,0.0,0.0,0.0,0.0,0.0,0.0,0.0,0.0,0.0,0.0,0.0,0.0,0.0,0.0,0.0,0.0,0.0,0.0,0.0,0.0,0.0,0.0,0.0,0.0,0.0,0.0,0.0,0.0,0.0,0.0,0.0,0.0,0.0,0.0,1.4169,1.637,1.8187,1.9551,2.031,2.0281,1.9408,1.7334,1.5466,0.0,0.0,0.0,0.0,0.0,0.0,0.0,0.0,0.0,0.0,0.0,0.0,0.0,0.0,0.0,0.0,0.0,0.0,0.0,0.0,0.0,0.0,0.0,0.0,0.0,0.0,0.0,0.0,0.0,0.0,0.0,0.0,0.0,0.0,0.0,0.0,0.0,0.0,0.0,0.0,0.0,2.1047,2.3255,2.4266,2.5027,0.0,0.0,2.3974,2.5013,2.4227,2.2817,2.0925,0.0,0.0,0.0,0.0,0.0,0.0,0.0,0.0,0.0,0.0,0.0,0.0,0.0,0.0,0.0,0.0,0.0,0.0,0.0,0.0,0.0,0.0,0.0,0.0,0.0,0.0,0.0,0.0,0.0,0.0,0.0,0.0,0.0,0.0,0.0,0.0,0.0,0.0,0.0,0.0,0.0,0.0,0.0,0.0,0.0,0.0,0.0,0.0,0.0,0.0,0.0,0.0,0.0,1.2232,1.4856,1.6613,1.8187,1.9558,2.0314,2.0274,1.943,1.7745,1.594,0.0,0.0,0.0,0.0,0.0,0.0,0.0,0.0,0.0,0.0,0.0,0.0,0.0,0.0,0.0,0.0,0.0,0.0,0.0,0.0,0.0,0.0,0.0,0.0,0.0,0.0,0.0,0.0,0.8746,0.9177,0.9471,0.0,0.0,0.0,0.0,0.0,0.0,0.0,0.0,0.0,0.0,2.2272,2.3614,2.4918,0.0,0.0,2.5673,2.5311,2.5378,2.452,2.3508,2.2747,2.0642,0.0,0.0,0.0,0.0,0.0,0.0,0.0,0.0,0.0,0.0,0.0,0.0,0.0,0.0,0.0,0.0,0.0,0.0,0.0,0.0,0.0,0.0,0.0,0.0,0.0,0.0,0.0,0.0,0.0,0.0,0.0,0.0,0.0,0.0,0.0,0.0,0.0,0.0,0.0,0.0,0.0,0.0,0.0,0.0,0.0,0.0,0.0,0.0,0.0,0.0,0.0,0.0,1.2566,1.5267,1.6939,1.8379,1.9578,2.0542,2.0523,1.9468,1.825,1.6666,0.0,0.0,0.0,0.0,0.0,0.0,0.0,0.0,0.0,0.0,0.0,0.0,0.0,0.0,0.0,0.0,0.0,0.0,0.0,0.0,0.0,0.0,0.0,0.0,0.0,0.0,0.0,0.0,0.9275,0.95,0.95,0.0,0.0,0.0,0.0,0.0,0.0,0.0,0.0,0.0,0.0,2.3082,2.4274,2.5432,2.6293,2.6805,2.6859,2.6651,2.5953,2.4715,2.3798,2.3798,0.0,0.0,0.0,0.0,0.0,0.0,0.0,0.0,0.0,0.0,0.0,0.0,0.0,0.0,0.0,0.0,0.0,0.0,0.0,0.0,0.0,0.0,0.0,0.0,0.0,0.0,0.0,0.0,0.0,0.0,0.0,0.0,0.0,0.0,0.0,0.0,0.0,0.0,0.0,0.0,0.0,0.0,0.0,0.0,0.0,0.0,0.0,0.0,0.0,0.0,0.0,0.0,0.0,0.0,1.5295,1.7395,1.8827,1.9621,2.1006,2.1043,1.9547,1.8752,1.7647,1.6049,0.0,0.0,0.0,0.0,0.0,0.0,0.0,0.0,0.0,0.0,0.0,0.0,0.0,0.0,0.0,0.0,0.0,0.0,0.0,0.0,0.0,0.0,0.0,0.0,0.0,0.0,1.0426,0.9919,0.9537,0.0,0.0,0.0,0.0,0.0,0.0,0.0,0.0,0.0,0.0,2.1985,2.3353,2.5584,2.5979,2.6563,2.8076,2.8373,2.8078,2.7021,2.5146,2.3798,0.0,0.0,0.0,0.0,0.0,0.0,0.0,0.0,0.0,0.0,0.0,0.0,0.0,0.0,0.0,0.0,0.0,0.0,0.0,0.0,0.0,0.0,0.0,0.0,0.0,0.0,0.0,0.8899,0.9362,0.0,0.0,0.0,0.0,0.0,0.0,0.0,0.0,0.0,0.0,0.0,1.4773,1.561,0.0,0.0,0.0,0.0,0.0,0.0,0.0,0.0,0.0,0.0,0.0,0.0,1.3821,1.5983,1.7651,1.9104,2.0307,2.1278,2.1308,2.0242,1.9478,1.8114,1.6101,0.0,0.0,0.0,0.0,0.0,0.0,0.0,0.0,0.0,0.0,0.0,0.0,0.0,0.0,0.0,0.0,0.0,0.0,0.0,0.0,0.0,0.0,0.0,0.0,0.0,1.085,0.0,0.0,0.0,0.0,0.0,0.0,0.0,0.0,0.0,0.0,0.0,1.9269,2.2352,2.3072,2.3947,2.576,2.6458,2.7184,0.0,0.0,0.0,0.0,0.0,0.0,0.0,0.0,0.0,0.0,0.0,0.0,0.0,0.0,2.4314,2.0637,1.9585,2.0231,2.3437,0.0,0.0,0.0,0.0,0.0,0.0,0.0,0.0,0.0,0.0,0.0,0.0,0.0,0.0,0.0,0.0,1.1041,0.0,0.0,0.0,0.0,0.0,0.0,0.0,0.0,1.5408,1.6449,1.6931,1.775,1.7494,0.0,1.6322,1.5242,0.0,0.0,0.0,0.0,0.0,0.0,0.0,0.0,1.4573,1.671,1.8187,1.9472,2.0652,2.1444,2.1404,2.0605,1.9798,1.8554,1.681,1.5164,1.3838,0.0,0.0,0.0,0.0,0.0,0.0,0.0,0.0,0.0,0.0,0.0,0.0,0.0,0.0,0.0,0.0,0.0,0.0,0.0,0.0,0.0,0.0,0.0,1.2169,0.0,0.0,0.0,0.0,0.0,0.0,0.0,0.0,0.0,1.5825,1.784,2.0333,2.3121,2.3835,2.4499,2.5766,0.0,0.0,0.0,0.0,0.0,0.0,0.0,2.5894,2.7583,2.7891,2.7849,2.7888,2.8754,2.9475,2.9475,0.0,0.0,2.4036,2.3194,2.4182,2.7379,2.7994,2.7397,2.5366,2.5426,2.6009,0.0,0.0,0.0,0.0,0.0,0.0,0.0,0.0,1.2015,1.2233,0.0,1.2349,0.0,0.0,0.0,0.0,0.0,0.0,0.0,0.0,1.7289,1.823,1.841,1.9114,1.9102,1.845,1.846,1.8074,1.7257,1.4655,0.0,0.0,0.0,0.0,0.0,0.0,1.5363,1.7461,1.8886,1.9985,2.0715,2.1407,2.14,2.0601,1.9792,1.8956,1.8138,1.7432,1.6454,1.5036,1.3601,0.0,0.0,0.0,0.0,0.0,0.0,0.0,0.0,0.0,0.0,0.0,0.0,0.0,0.0,0.0,0.0,0.0,0.0,0.0,0.0,1.3912,0.0,0.0,0.0,0.0,0.0,0.0,0.0,0.0,0.0,0.0,1.8808,1.9644,2.0973,2.3294,0.0,0.0,0.0,0.0,2.7335,2.8142,2.8246,2.8281,2.8213,2.8178,2.8827,3.0824,0.0,0.0,3.1118,3.2382,3.3393,3.3462,3.3357,3.2,2.7429,2.647,2.7417,3.0469,3.1161,3.0651,2.9304,2.8937,2.9055,1.602,0.0,0.0,0.0,0.0,1.4228,1.487,1.5848,1.476,1.4996,1.6095,1.5052,0.0,0.0,0.0,0.0,0.0,0.0,1.742,1.802,1.969,2.0748,2.1299,2.2075,2.2074,2.1372,2.1368,2.0733,1.958,1.8782,1.6979,1.431,0.0,0.0,0.0,0.0,1.6907,1.8072,1.9518,2.0598,2.1393,2.1628,2.1323,2.0548,2.0243,1.9707,1.893,1.8178,1.74,1.649,1.5083,0.0,0.0,0.0,0.0,0.0,0.0,0.0,0.0,0.0,0.0,0.0,0.0,0.0,0.0,0.0,0.0,0.0,0.0,0.0,1.5167,1.5349,1.51,0.0,0.0,0.0,0.0,0.0,0.0,0.0,0.0,0.0,2.165,2.2369,2.3157,0.0,0.0,2.5765,2.656,2.7332,2.8149,2.893,0.0,0.0,0.0,2.821,2.9615,3.3739,3.3965,3.357,3.357,3.44,3.512,3.5124,3.5121,3.4603,3.3335,3.1144,3.0894,3.3607,3.4403,3.3904,3.2501,3.2121,3.2315,1.9715,1.8228,1.7222,1.6804,1.6833,1.6795,1.7405,1.8338,1.7327,1.7516,1.8508,1.752,1.7212,1.7473,1.7361,0.0,0.0,0.0,1.9788,2.0259,2.1513,2.2307,2.2748,2.3256,2.3241,2.279,2.2782,2.2394,2.1619,2.0999,1.9693,1.7619,0.0,0.0,1.5706,1.6897,1.8013,1.9074,1.9956,2.0828,2.1636,2.1602,2.1364,2.0886,2.0777,2.0495,2.0005,1.9294,1.8712,1.8292,1.6698,1.5425,0.0,0.0,0.0,0.0,0.0,0.0,0.0,0.0,0.0,0.0,0.0,0.8236,0.0,0.0,0.0,0.0,1.4282,1.6329,1.6135,1.6769,0.0,0.0,0.0,0.0,0.0,0.0,0.0,1.7371,1.7923,2.0053,2.4685,2.5354,2.5717,2.6612,2.6472,2.6547,2.7367,0.0,2.9019,2.9773,3.0101,2.998,2.9219,2.8602,3.012,3.5844,3.6069,3.557,3.5566,3.6218,3.6721,3.6757,3.6757,3.6757,3.6757,3.5135,3.4342,3.6323,3.6761,3.6214,3.4693,3.4369,3.458,2.3044,2.2852,2.0537,1.9503,1.942,1.9391,1.9774,2.0344,1.9711,1.9788,2.042,1.9724,1.96,1.9889,2.033,0.0,0.0,2.132,2.2076,2.2207,2.2965,2.3333,2.3401,2.3437,2.3397,2.3401,2.3406,2.3419,2.3352,2.2061,2.1368,2.1263,1.9427,1.8396,1.8276,1.8178,1.8864,2.0245,2.0325,2.0734,2.1533,2.1449,2.1402,2.1395,2.1234,2.1179,2.1159,2.0516,2.0137,2.006,1.8389,1.7395,1.7232,0.0,0.0,0.0,0.0,0.0,0.0,0.0,0.0,0.0,0.0,0.0,0.0,0.0,0.0,0.0,1.5477,0.0,1.6898,1.82,0.0,0.0,0.0,1.8548,1.8702,1.9457,1.9705,1.9044,0.0,0.0,0.0,0.0,2.821,2.821,2.7627,2.7491,2.8234,2.9135,2.9976,3.069,3.0485,3.0302,3.0662,2.9873,3.13,3.6942,3.7575,3.7067,3.7067,3.7607,3.8114,3.811,3.8182,3.8146,3.8182,3.7969,3.8218,3.8074,3.8146,3.7707,3.6323,3.5997,3.6037,2.4395,2.4284,2.3688,2.291,2.2006,2.2006,2.2359,2.2939,2.2312,2.2376,2.2949,2.1884,2.1385,2.1311,2.1474,2.1808,2.2333,2.2871,2.3693,2.4727,2.506,2.554,2.6061,2.6071,2.6061,2.6061,2.6061,2.5538,2.455,2.416,2.3454,2.2414,2.138,2.0131,1.8729,1.9176,1.9553,1.9836,2.0452,2.0926,2.1294,2.1274,2.123,2.1258,2.1071,2.0954,2.0958,2.0795,2.0511,2.0069,2.019,1.9397,1.7366,1.4638,0.0,0.0,0.0,0.0,0.0,0.0,0.0,0.0,0.0,1.0231,1.1947,0.0,1.144,0.0,1.6666,1.9125,1.9054,1.9426,0.0,0.0,2.047,2.0818,2.1449,2.1936,2.1761,2.0598,2.1903,2.4257,2.7746,2.821,2.821,2.821,2.8636,2.8991,2.9257,3.0506,3.1462,3.1671,3.2033,3.2354,3.2477,3.3382,3.4793,3.7739,3.8041,3.7937,3.7929,3.8082,3.8218,3.8218,3.8218,3.8218,3.8218,3.8218,3.8218,3.8218,3.8218,3.8114,3.7711,3.7598,3.7607,2.572,2.5678,2.5672,2.5272,2.4611,2.4047,2.4007,2.4297,2.3937,2.3995,2.4268,2.3675,2.3335,2.3241,2.3393,2.3739,2.4259,2.4467,2.5035,2.5824,2.5993,2.6314,2.6673,2.6759,2.6781,2.6761,2.6835,2.6481,2.5681,2.5054,2.4341,2.3544,2.2478,2.1384,2.0307,2.0165,2.0117,2.0145,2.0625,2.0913,2.1002,2.1042,2.101,2.1002,2.0839,2.0564,2.0304,2.0292,2.0143,1.992,2.0773,2.0342,1.8258,1.6168,1.4749,0.0,0.0,0.0,0.0,0.0,0.0,0.0,0.0,0.0,0.0,0.0,1.3719,0.0,1.9369,0.0,2.0759,2.1339,2.194,2.2337,2.2538,2.2806,2.3292,2.3598,2.3512,2.2946,2.372,2.5248,2.7632,2.8056,2.8155,2.8203,2.8915,2.9622,3.0058,3.0941,3.1747,3.2468,3.2965,3.3214,3.3248,3.4049,3.553,3.7639,3.7901,3.7788,3.811,3.8218,3.8218,3.8218,3.8218,3.8218,3.8218,3.8218,3.8218,3.8218,3.8218,3.8218,3.8218,3.8218,3.8218,2.7039,2.7039,2.7039,2.7046,2.6981,2.5849,2.5297,2.5151,2.5145,2.5075,2.4947,2.5051,2.5082,2.5019,2.523,2.5474,2.5681,2.5947,2.6189,2.6439,2.6639,2.6744,2.6767,2.6778,2.6817,2.6829,2.6838,2.6826,2.6696,2.5431,2.4786,2.4627,2.316,2.2408,2.2279,2.1154,2.0683,2.0898,2.0871,2.085,2.0871,2.0768,2.0741,2.0724,2.0548,2.0157,1.9607,1.9602,1.9674,1.9834,2.0715,2.0709,1.951,1.8388,1.719,0.0,1.5075,0.0,0.0,0.0,0.0,0.0,0.0,0.0,0.0,1.5787,1.703,1.9925,2.2489,2.3454,2.2195,2.3285,2.4119,2.4223,2.4344,2.4475,2.4621,2.4825,2.5057,2.5366,2.551,2.6132,2.7398,2.7813,2.7975,2.8113,2.8688,2.9497,3.0485,3.0945,3.1683,3.309,3.3377,3.3367,3.3375,3.3422,3.4516,3.7168,3.7466,3.7321,3.8082,3.8218,3.8218,3.8218,3.8218,3.8218,3.8218,3.8218,3.8218,3.8218,3.8218,3.8218,3.8218,3.8218,3.8218,2.8346,2.8353,2.8324,2.8346,2.8317,2.8063,2.7388,2.6429,2.6458,2.6145,2.5616,2.5641,2.5394,2.5007,2.5055,2.5452,2.6123,2.6739,2.7413,2.8171,2.8761,2.9156,2.9262,2.8763,2.8539,2.8508,2.8015,2.7472,2.6954,2.665,2.6254,2.5664,2.4354,2.3659,2.3577,0.0,0.0,0.0,2.1435,2.1166,2.1277,2.0744,2.0465,2.0379,2.0254,0.0,2.0014,2.0091,2.0206,2.0344,2.0706,0.0,0.0,0.0,0.0,0.0,0.0,0.0,0.0,0.0,0.0,0.0,1.9084,1.8889,1.8015,1.8442,1.9995,2.2887,2.3682,2.3884,2.3619,2.383,2.4265,2.4833,2.5,2.5284,2.5875,2.6122,2.6286,2.6399,2.6586,2.6772,2.7075,2.74,2.7647,2.7771,2.8088,2.8902,3.0419,3.1268,3.2206,3.3137,3.3341,3.3389,3.3393,3.3393,3.419,3.6294,3.7027,3.7285,3.8005,3.8218,3.8218,3.8218,3.8218,3.8218,3.8218,3.8218,3.8218,3.8218,3.8218,3.8218,3.8218,3.8218,3.8218,2.8673,0.0,2.8673,2.8673,0.0,2.8673,2.8324,2.773,2.7736,2.7533,2.7243,2.7249,2.7079,2.6821,2.6821,2.711,2.7557,2.7917,2.8362,2.8878,2.9223,2.9487,2.9629,2.9359,2.9324,2.9359,2.8788,2.8304,2.7965,2.7243,2.6729,2.636,2.5325,2.4784,2.4748,2.3726,2.2822,2.2061,2.1749,2.1649,2.1662,2.1039,2.068,2.0644,0.0,0.0,0.0,0.0,0.0,0.0,0.0,0.0,0.0,0.0,0.0,2.1742,2.0399,1.9578,1.9661,2.0274,2.0823,2.119,2.2228,2.1801,1.9263,2.0723,2.2684,2.4837,2.5068,2.494,2.4601,2.487,2.5234,2.5603,2.5679,2.5854,2.6201,2.6372,2.6452,2.646,2.6615,2.6763,2.6763,2.6957,2.7209,2.748,2.7985,2.881,3.0114,3.0953,3.1841,3.3095,3.336,3.3393,3.3393,3.3393,3.4117,3.6037,3.6504,3.6906,3.8001,3.8218,3.8218,3.8218,3.8218,3.8218,3.8218,3.8218,3.8218,3.8218,3.8218,3.8218,3.8218,3.8218,3.8218,2.905,2.9028,2.9021,2.9043,2.9021,2.9021,2.905,2.9021,0.0,0.0,0.0,2.8673,2.8673,2.8673,2.8673,2.8751,2.8885,2.8973,2.9109,2.9226,2.9344,2.9479,2.9604,2.958,2.9694,2.9873,2.9324,2.907,2.9059,2.787,2.7205,2.7048,2.6321,2.5848,2.5609,2.5059,2.3955,2.2375,2.2203,2.2146,2.2136,2.1499,2.1126,2.1138,2.0492,1.9918,1.9446,1.9571,1.9724,1.9954,1.9507,1.9791,2.1067,2.2924,2.4083,2.4298,2.3031,2.2236,2.2398,2.3056,2.3586,2.3863,2.4978,2.4174,2.0657,2.2585,2.4713,2.6459,2.6355,2.5996,2.5541,2.5887,2.619,2.619,2.619,2.6194,2.6194,2.6237,2.6263,2.6226,2.6345,2.6459,2.6507,2.6611,2.6906,2.7417,2.808,2.9045,3.0157,3.095,3.1811,3.3084,3.3389,3.3393,3.3393,3.3393,3.4154,3.5743,3.5957,3.6355,3.753,3.8114,3.8186,3.8218,3.8218,3.8218,3.8218,3.8218,3.8218,3.8218,3.8218,3.8218,3.8218,3.8218,3.8218,3.0336,3.0329,3.0336,3.0329,3.0329,3.0336,3.0321,3.0241,2.9167,2.8702,2.8673,2.8673,2.8673,2.8673,2.8673,2.8716,2.8759,2.9254,2.9595,0.0,3.0331,3.0676,3.0814,3.029,3.0073,3.0161,2.9573,2.9334,2.9469,2.9289,2.8916,2.834,2.7638,2.6764,2.5693,2.5513,2.507,2.4214,2.3187,2.2687,2.2692,2.2043,2.1673,2.1594,2.1485,2.1419,2.1391,2.1561,2.1836,2.214,2.208,2.1776,2.1223,2.3338,2.4961,2.5726,2.4505,2.3943,2.4609,2.5305,2.6265,2.7476,2.7845,2.6648,2.3752,2.3748,2.5152,2.7703,2.7027,2.6435,2.6851,2.6535,2.6289,2.6261,2.6223,2.619,2.6265,2.6312,2.6312,2.6285,2.6212,2.6343,2.6593,2.6617,2.7028,2.7822,2.8343,2.9036,3.0781,3.203,3.2779,3.3254,3.3393,3.3393,3.3393,3.3393,3.386,3.4685,3.5442,3.6101,3.71,3.7792,3.8182,3.8218,3.8218,3.8218,3.8218,3.8218,3.8218,3.8218,3.8218,3.8218,3.8218,3.8218,3.8218,3.0598,3.0598,3.0598,3.0598,3.0598,3.0598,3.0786,3.104,3.048,3.0031,2.9748,2.9748,2.9719,2.9748,2.9719,2.9719,2.9755,3.0023,3.0184,3.0287,3.0563,3.0799,3.0903,3.0632,3.0565,3.068,3.0122,2.9909,2.9949,2.9717,2.9465,2.9129,2.8464,2.7835,2.7224,2.6512,2.5998,2.5669,2.4427,2.362,2.3235,2.261,2.2269,2.2248,2.1914,2.1744,2.1808,2.2071,2.2331,2.2629,2.3162,2.3187,2.2686,2.4905,2.6592,2.7301,2.6776,2.651,2.6875,2.7202,2.7675,2.8348,2.8764,2.8262,2.6553,2.6373,2.7277,2.9289,2.8872,2.8319,2.7945,2.7571,2.7396,2.7391,2.7401,2.7391,2.738,2.74,2.7273,2.7038,2.6976,2.7088,2.7492,2.7818,2.7882,2.8144,2.8783,3.0183,3.1607,3.2411,3.2993,3.3208,3.3349,3.3389,3.3389,3.3393,3.3751,3.4468,3.5261,3.6069,3.6846,3.7679,3.8114,3.8218,3.8218,3.8218,3.8218,3.8218,3.8218,3.8218,3.8218,3.8218,3.8218,3.8218,3.8218,3.0598,3.0598,3.0749,3.0873,3.1018,3.1018,3.1301,3.1713,3.1713,3.1467,3.1047,3.1026,3.1026,3.1047,3.1011,3.1047,3.1018,3.1018,3.104,3.1018,3.1018,3.1064,3.1184,3.1162,3.129,3.1411,3.108,3.0841,3.0713,3.0385,3.008,2.9758,2.9152,2.8763,2.857,2.7566,2.6907,2.6548,2.5579,2.4724,2.4064,2.3435,2.3117,2.3082,2.2473,2.2169,2.231,2.2597,2.2973,2.3453,2.4278,2.4572,2.4415,2.6473,2.8086,2.8721,2.857,2.8466,2.8636,2.8802,2.8863,2.8896,2.9345,2.9445,2.8963,2.8868,2.9322,3.029,3.039,2.9908,2.8891,2.8792,2.8769,2.8475,2.8414,2.8329,2.8377,2.8405,2.8172,2.7744,2.7712,2.7845,2.8006,2.8614,2.8843,2.8689,2.9837,3.128,3.2087,3.2514,3.2834,3.3091,3.3285,3.3367,3.3364,3.3375,3.3639,3.4291,3.516,3.592,3.6689,3.7494,3.815,3.8218,3.8218,3.8218,3.8218,3.8218,3.8218,3.8218,3.8218,3.8218,3.8218,3.8218,3.8218,3.0627,3.0677,3.1199,3.1771,3.2264,3.2301,3.2322,3.2409,3.2402,3.238,3.233,3.233,3.2322,3.2315,3.2272,3.2264,3.2264,3.233,3.2293,3.2264,3.2322,3.2338,3.2288,3.2317,3.2396,3.2503,3.2595,3.235,3.1953,3.2087,3.1592,3.0492,2.9817,2.9219,2.866,2.8464,2.7829,2.6644,2.6488,2.6087,2.5423,2.4754,2.442,2.4431,2.3778,2.3537,2.3784,2.3978,2.4606,2.5625,2.6041,2.6102,2.5923,2.7264,2.8773,3.0092,2.9123,2.8636,2.9279,2.9942,3.0224,3.0323,3.029,3.0318,3.0229,3.0257,3.0323,3.0484,3.0484,3.0125,2.9473,2.987,2.9715,2.8698,2.8546,2.8408,2.8495,2.8405,2.8177,2.7692,2.8186,2.7881,2.7269,2.7983,2.8905,2.9585,3.0588,3.1549,3.2025,3.2327,3.262,3.2878,3.3191,3.3311,3.3274,3.3326,3.3487,3.3683,3.4802,3.5663,3.621,3.72,3.8218,3.8218,3.8218,3.8218,3.8218,3.8218,3.8218,3.8218,3.8218,3.8218,3.8218,3.8218,3.8218,3.1721,3.1766,3.2003,3.2264,3.2468,3.2497,3.2729,3.308,3.308,3.3304,3.3599,3.3628,3.3222,3.2526,3.2497,3.2497,3.2497,3.2497,3.2497,3.2497,3.2497,3.2497,3.2497,3.2497,3.2536,3.26,3.2737,3.273,3.253,3.2398,3.202,3.1447,3.0615,2.9983,2.9707,2.9362,2.8883,2.838,2.7985,2.7649,2.726,2.5926,2.5214,2.5184,2.4915,2.4925,2.5166,2.529,2.5714,2.6477,2.6813,2.6987,2.6987,2.8161,2.9351,3.0346,2.997,2.9776,3.0026,3.0334,3.0484,3.0484,3.0484,3.0484,3.0484,3.0484,3.0484,3.0484,3.0484,3.0362,3.0097,3.0329,3.0234,2.9743,2.9643,2.9618,2.9633,2.9615,2.9531,2.9364,2.9496,2.9435,2.8956,2.9246,2.9889,3.0473,3.1118,3.1531,3.1916,3.2139,3.234,3.2602,3.2838,3.3028,3.3143,3.3315,3.3375,3.3567,3.4323,3.5116,3.588,3.7123,3.8186,3.8182,3.8186,3.8186,3.8218,3.8218,3.8218,3.8218,3.8218,3.8218,3.8218,3.8218,3.8218,3.2441,3.2518,3.2679,3.2882,3.3019,3.3019,3.3296,3.3719,3.3757,3.401,3.4382,3.4382,3.3898,3.3106,3.3027,3.3011,3.3019,3.3019,3.3019,3.3019,3.3019,3.3019,3.3019,3.3019,3.3019,3.3051,3.3226,3.3222,3.3035,3.2621,3.2426,3.2264,3.1425,3.0886,3.0691,3.0142,2.9764,2.9548,2.9092,2.8883,2.8667,2.744,2.6452,2.5938,2.5698,2.5714,2.5946,2.6058,2.6405,2.7009,2.7342,2.7763,2.8293,2.902,2.9742,3.0376,3.0479,3.0484,3.0484,3.0484,3.0484,3.0484,3.0484,3.0484,3.0484,3.0484,3.0484,3.0484,3.0484,3.0489,3.0484,3.0484,3.0484,3.0484,3.0484,3.0484,3.0451,3.0484,3.0423,3.0484,3.0346,3.0484,3.0451,3.0428,3.0531,3.0825,3.1083,3.1336,3.1634,3.1848,3.202,3.2353,3.2537,3.2737,3.3039,3.321,3.33,3.3567,3.411,3.4834,3.5558,3.6946,3.7715,3.7454,3.786,3.8041,3.7824,3.786,3.8186,3.8218,3.8218,3.8218,3.8218,3.8218,3.8218,3.2328,3.2613,3.3205,3.374,3.4266,3.4266,3.4295,3.4295,3.4324,3.4353,3.4382,3.4382,3.4353,3.4246,3.4179,3.4295,3.4266,3.4208,3.4217,3.4208,3.4237,3.4304,3.4333,3.4333,3.4266,3.4167,3.428,3.4258,3.3871,3.3276,3.2967,3.2916,3.2375,3.182,3.1322,3.0796,3.0193,2.9847,2.9631,2.9555,2.9541,2.9435,2.8374,2.6818,2.5968,2.5823,2.5873,2.602,2.6552,2.7469,2.7852,2.8549,2.9588,2.9761,2.9973,3.037,3.0447,3.0489,3.0522,3.055,3.0588,3.0588,3.0688,3.0522,3.0489,3.0484,3.0484,3.0484,3.0484,3.0484,3.0621,3.0726,3.0698,3.066,3.0588,3.0621,3.0588,3.0742,3.0522,3.0484,3.0484,3.0484,3.0484,3.0484,3.0556,3.0706,3.0878,3.1093,3.1312,3.1461,3.1682,3.1993,3.2275,3.2516,3.285,3.3004,3.3143,3.342,3.3921,3.4581,3.5421,3.6146,3.6363,3.6689,3.7023,3.7244,3.7244,3.7538,3.7973,3.815,3.8182,3.8218,3.8218,3.8218,3.8218,3.3512,3.3707,3.3964,3.4196,3.4382,3.4382,3.4382,3.4382,3.4382,3.4382,3.4382,3.4382,3.4382,3.4382,3.4382,3.4382,3.4382,3.4382,3.4382,3.4382,3.4382,3.4382,3.4382,3.4382,3.4382,3.4428,3.4458,3.443,3.4213,3.3706,3.3448,3.3371,3.3045,3.2703,3.2436,3.2005,3.1645,3.1383,3.0635,3.017,3.014,2.9824,2.9219,2.856,2.7865,2.7383,2.7091,2.7152,2.7448,2.8065,2.8323,2.875,2.9325,2.9804,3.0151,3.0375,3.0447,3.0693,3.1118,3.1223,3.1427,3.1868,3.1901,3.1427,3.0721,3.0484,3.0484,3.0517,3.0517,3.0721,3.1399,3.1702,3.1907,3.1907,3.1868,3.184,3.1923,3.19,3.1556,3.0742,3.0484,3.0484,3.0588,3.0484,3.0536,3.0688,3.0775,3.094,3.1077,3.1147,3.1414,3.1651,3.1846,3.2068,3.2551,3.2821,3.3044,3.3287,3.3689,3.412,3.4775,3.4653,3.4769,3.5635,3.6073,3.6222,3.6222,3.7208,3.7715,3.815,3.8218,3.8218,3.8218,3.8218,3.8218,3.4187,3.4306,3.4366,3.4382,3.4382,3.4382,3.4382,3.4382,3.4382,3.4382,3.4382,3.4382,3.4382,3.4382,3.4382,3.4382,3.4382,3.4382,3.4382,3.4382,3.4382,3.4382,3.4382,3.4382,3.4382,3.4382,3.4382,3.4382,3.437,3.408,3.3975,3.402,3.364,3.3472,3.3454,3.3064,3.2819,3.2609,3.1712,3.1136,3.1083,3.0529,3.011,2.9871,2.9452,2.8946,2.8426,2.82,2.8242,2.8492,2.8576,2.8756,2.9189,3.0184,3.0762,3.0722,3.0989,3.1351,3.1846,3.1951,3.2161,3.2613,3.268,3.2205,3.1299,3.1205,3.1399,3.1752,3.1918,3.2194,3.2464,3.3033,3.3204,3.284,3.268,3.268,3.2685,3.268,3.2209,3.1614,3.1824,3.1791,3.1322,3.1261,3.1304,3.1317,3.135,3.1434,3.1569,3.1621,3.1599,3.1745,3.1939,3.2057,3.2248,3.2477,3.2889,3.3159,3.3506,3.385,3.3956,3.3621,3.3679,3.4508,3.4943,3.5055,3.5675,3.6733,3.7494,3.8074,3.8218,3.8218,3.8218,3.8218,3.8218,3.4085,3.4136,3.4306,3.4366,3.4382,3.4382,3.4382,3.4382,3.4382,3.4382,3.4382,3.4382,3.4382,3.4382,3.4382,3.4382,3.4382,3.4382,3.4382,3.4382,3.4382,3.4382,3.4382,3.4382,3.4382,3.4382,3.4382,3.4382,3.4391,3.4375,3.4422,3.453,3.4245,3.4098,3.4181,3.3758,3.3522,3.3342,3.2766,3.2415,3.2415,3.1757,3.1129,3.0605,3.0441,3.0163,2.9628,2.9081,2.8805,2.8809,2.8645,2.8743,2.9569,3.0937,3.1767,3.1477,3.2005,3.248,3.2657,3.2702,3.2735,3.2939,3.2812,3.2906,3.2768,3.2746,3.3204,3.4121,3.4419,3.4352,3.3684,3.4148,3.422,3.3072,3.2978,3.2978,3.2879,3.2779,3.2713,3.2873,3.3663,3.4093,3.3171,3.2707,3.2685,3.2558,3.2503,3.247,3.2529,3.2551,3.2614,3.2435,3.2277,3.2232,3.2159,3.2126,3.2604,3.3043,3.337,3.3693,3.3762,3.3551,3.3418,3.4041,3.4733,3.4914,3.6037,3.7019,3.7571,3.8041,3.8114,3.8218,3.8218,3.8218,3.8218,3.3759,3.4102,3.4162,3.4272,3.4374,3.4382,3.4382,3.4382,3.4382,3.4382,3.4382,3.4382,3.4382,3.4382,3.4382,3.4412,3.4382,3.4382,3.4412,3.4412,3.4412,3.4412,3.4382,3.4382,3.4382,3.4382,3.4382,3.4382,3.4437,3.4547,3.4656,3.4681,3.4791,3.4836,3.4842,3.4445,3.4188,3.4106,3.3514,3.2968,3.2549,3.2295,3.1839,3.1279,3.1189,3.1069,3.0897,2.9911,2.9415,2.9495,2.9574,2.9974,3.0751,3.1525,3.2004,3.21,3.2328,3.2848,3.338,3.3464,3.3668,3.406,3.4199,3.4193,3.422,3.4165,3.4358,3.4894,3.4894,3.4723,3.459,3.4684,3.4651,3.4253,3.4193,3.4132,3.4099,3.4132,3.4226,3.4226,3.4623,3.4623,3.4364,3.4165,3.3834,3.3298,3.2967,3.2823,3.2813,3.2929,3.2802,3.2731,3.257,3.2435,3.2315,3.2497,3.296,3.3798,3.431,3.4076,3.3987,3.3886,3.3718,3.39,3.4483,3.5244,3.6399,3.7164,3.7675,3.8005,3.8146,3.8218,3.8218,3.8218,3.8218,3.3472,3.3914,3.4042,3.4213,3.4374,3.4382,3.4382,3.4382,3.4382,3.4382,3.4382,3.4382,3.4382,3.4382,3.4382,3.4565,3.4756,3.4777,3.4893,3.5,3.4835,3.4661,3.4441,3.4382,3.4382,3.4382,3.4382,3.4382,3.4428,3.4605,3.4731,3.4802,3.5042,3.5223,3.528,3.5044,3.4877,3.4787,3.421,3.3672,3.3215,3.2751,3.2295,3.1906,3.1623,3.1511,3.1414,3.0695,3.0227,3.0087,3.0131,3.0478,3.1211,3.2166,3.2742,3.2701,3.304,3.3559,3.4072,3.4164,3.4358,3.4828,3.4928,3.4894,3.4888,3.4928,3.4928,3.4928,3.4894,3.4928,3.4894,3.4928,3.4928,3.4894,3.4861,3.4928,3.4928,3.4928,3.4894,3.4828,3.4894,3.4928,3.4928,3.4894,3.469,3.4021,3.3723,3.3497,3.3497,3.3569,3.3493,3.3356,3.3226,3.2975,3.2547,3.2838,3.3349,3.4441,3.5552,3.5084,3.4705,3.4666,3.4551,3.4895,3.5381,3.5787,3.6798,3.7272,3.7752,3.7965,3.8327,3.8218,3.8218,3.8218,3.8218,3.3174,3.3568,3.3905,3.4136,3.4315,3.4332,3.434,3.4357,3.4382,3.4382,3.4382,3.4382,3.4382,3.4382,3.4499,3.4852,3.5296,3.5441,3.5656,3.5909,3.5744,3.5317,3.4797,3.4739,3.4731,3.4673,3.4644,3.4615,3.4748,3.4935,3.484,3.5049,3.5223,3.5332,3.5432,3.5473,3.5429,3.531,3.4839,3.4526,3.4354,3.3342,3.2639,3.2542,3.1966,3.163,3.1637,3.1428,3.112,3.0645,3.0428,3.0668,3.1407,3.3021,3.3604,3.3153,3.3997,3.4361,3.4658,3.4691,3.4822,3.4894,3.4928,3.4928,3.4928,3.4928,3.4928,3.4928,3.4928,3.4928,3.4928,3.4928,3.4928,3.4928,3.4928,3.4928,3.4928,3.4928,3.4928,3.4928,3.4928,3.4928,3.4928,3.4928,3.4861,3.4789,3.4723,3.4629,3.4629,3.4469,3.4505,3.4271,3.3918,3.379,3.3508,3.3424,3.3932,3.4881,3.5941,3.5728,3.5346,3.5289,3.5443,3.582,3.6101,3.654,3.7019,3.7566,3.8182,3.8721,3.8726,3.84,3.8472,3.8721,3.8794,3.2525,3.3183,3.3403,3.3727,3.402,3.4157,3.417,3.4196,3.4323,3.4357,3.4374,3.4382,3.4374,3.4441,3.4901,3.5238,3.55,3.5897,3.6112,3.6335,3.6693,3.6402,3.59,3.5784,3.5755,3.5726,3.5668,3.5804,3.5831,3.5889,3.5887,3.5672,3.5773,3.5757,3.5555,3.5495,3.5489,3.5489,3.5353,3.4959,3.4518,3.4196,3.3732,3.3215,3.2572,3.2243,3.2176,3.175,3.158,3.162,3.1523,3.1808,3.2421,3.3296,3.3783,3.3868,3.4174,3.4552,3.4679,3.4805,3.4883,3.4928,3.4928,3.4928,3.4928,3.4928,3.4928,3.4928,3.4928,3.4994,3.4961,3.4994,3.4961,3.4928,3.5054,3.5027,3.4961,3.4928,3.4928,3.4928,3.4928,3.506,3.4928,3.4961,3.4961,3.4928,3.4928,3.4928,3.4928,3.4894,3.4752,3.478,3.4612,3.4624,3.4543,3.4357,3.4639,3.5409,3.6011,3.6171,3.5881,3.5776,3.6084,3.6488,3.6669,3.7035,3.7554,3.8074,3.8726,3.9405,3.9695,3.9623,3.9763,3.998,3.9908,3.2119,3.2766,3.306,3.3394,3.3753,3.3865,3.3922,3.4045,3.414,3.4213,3.4247,3.4272,3.4315,3.447,3.5093,3.5558,3.5839,3.6431,3.6858,3.7157,3.7506,3.7302,3.68,3.651,3.6277,3.6277,3.6306,3.6277,3.6304,3.6493,3.6438,3.62,3.6115,3.5942,3.5682,3.5372,3.5294,3.5351,3.5375,3.5199,3.4951,3.4645,3.4354,3.3867,3.3275,3.2819,3.2512,3.2123,3.194,3.1945,3.1989,3.227,3.2793,3.3257,3.3649,3.3962,3.4207,3.4411,3.4594,3.4727,3.4829,3.4877,3.4928,3.4928,3.4928,3.4928,3.4955,3.5524,3.5678,3.5916,3.6048,3.5949,3.5843,3.5916,3.581,3.5678,3.5413,3.5479,3.5292,3.522,3.5545,3.5717,3.512,3.5187,3.5154,3.5021,3.4928,3.4928,3.4928,3.4928,3.4961,3.5027,3.4994,3.4891,3.4842,3.4668,3.4867,3.5673,3.6329,3.6482,3.6631,3.6506,3.6839,3.7212,3.7339,3.7533,3.7916,3.8504,3.9324,3.9935,4.0515,4.0736,4.07,4.0845,4.0809,3.1809,3.2336,3.2713,3.313,3.3431,3.3501,3.3614,3.3805,3.3865,3.396,3.4059,3.4085,3.43,3.4502,3.5291,3.5839,3.6452,3.7099,3.7622,3.7941,3.8086,3.7825,3.738,3.6954,3.6713,3.6684,3.6539,3.6597,3.674,3.6834,3.6769,3.6664,3.6334,3.6088,3.595,3.5423,3.5165,3.5352,3.5274,3.5305,3.5277,3.4967,3.4705,3.4555,3.3957,3.3305,3.2849,3.2572,3.2436,3.2004,3.1974,3.2086,3.2441,3.2978,3.3415,3.3758,3.4019,3.4277,3.4636,3.4867,3.5021,3.525,3.5286,3.5114,3.5253,3.5154,3.5286,3.6313,3.6976,3.7307,3.7235,3.7195,3.697,3.6837,3.6963,3.6731,3.6446,3.6425,3.6172,3.5394,3.6767,3.6711,3.6181,3.5678,3.5909,3.581,3.5651,3.5644,3.5644,3.5678,3.5518,3.522,3.516,3.506,3.4967,3.4873,3.5257,3.5777,3.6553,3.6984,3.7421,3.7508,3.7766,3.8011,3.8339,3.8285,3.8069,3.8794,3.9786,4.0773,4.1501,4.1325,4.1067,4.1356,4.1429,3.1132,3.1578,3.1964,3.2336,3.2641,3.2819,3.3095,3.345,3.3607,3.3832,3.3954,3.4091,3.4473,3.501,3.5743,3.646,3.7061,3.7641,3.8106,3.8144,3.8212,3.8144,3.797,3.7738,3.7767,3.7709,3.7757,3.7757,3.7756,3.7668,3.7654,3.7277,3.7088,3.6981,3.6537,3.5945,3.5786,3.584,3.5479,3.5294,3.5449,3.537,3.5228,3.5168,3.4607,3.3979,3.3425,3.3267,3.323,3.2939,3.2263,3.2011,3.2402,3.2987,3.3488,3.377,3.4046,3.4493,3.518,3.5487,3.5861,3.6396,3.6433,3.6638,3.6539,3.5545,3.5711,3.681,3.8043,3.8268,3.7593,3.7222,3.7261,3.7294,3.7268,3.7353,3.7557,3.7538,3.7128,3.6995,3.7317,3.791,3.8148,3.7102,3.6936,3.6671,3.6566,3.6599,3.6533,3.64,3.6135,3.5777,3.575,3.5684,3.5358,3.5425,3.5943,3.631,3.6939,3.7302,3.7762,3.8325,3.8478,3.8939,3.9472,3.9204,3.8755,3.9456,4.0519,4.1488,4.2344,4.2162,4.2018,4.2122,4.2049,3.0729,3.1048,3.144,3.1772,3.2082,3.2509,3.2946,3.3309,3.3714,3.4096,3.443,3.4535,3.4939,3.5539,3.6281,3.6874,3.7333,3.7903,3.8202,3.8212,3.8212,3.8212,3.8212,3.8212,3.8212,3.8212,3.8173,3.8212,3.8212,3.8183,3.8026,3.7791,3.7576,3.7263,3.6894,3.6195,3.5826,3.5853,3.5422,3.5203,3.5441,3.5489,3.5489,3.5481,3.513,3.4659,3.4039,3.3971,3.3799,3.3402,3.2826,3.2328,3.2445,3.3253,3.3966,3.4424,3.4639,3.5097,3.576,3.6128,3.6432,3.6994,3.7058,3.7096,3.7036,3.6301,3.6533,3.7493,3.8467,3.8911,3.8235,3.8169,3.8129,3.8129,3.8096,3.8327,3.8519,3.8294,3.8094,3.8086,3.8391,3.8738,3.8679,3.8102,3.8069,3.7877,3.7003,3.6963,3.6897,3.6798,3.6758,3.6566,3.6533,3.634,3.5889,3.6054,3.6717,3.712,3.7608,3.7749,3.7911,3.855,3.9135,3.9541,3.9891,3.9941,3.972,4.0501,4.1193,4.2071,4.271,4.2855,4.2819,4.2561,4.2525,3.0444,3.0641,3.1011,3.1334,3.1662,3.2246,3.2798,3.3344,3.3863,3.4323,3.4929,3.5059,3.5389,3.6123,3.6691,3.7119,3.7537,3.7874,3.8212,3.8212,3.8212,3.8212,3.8212,3.8212,3.8212,3.8212,3.8212,3.8212,3.8212,3.8212,3.8192,3.8095,3.7738,3.7542,3.7185,3.6433,3.5985,3.6097,3.5592,3.5289,3.5462,3.5489,3.5489,3.5481,3.5421,3.519,3.4749,3.46,3.4428,3.3844,3.3814,3.3337,3.3152,3.3607,3.4917,3.5492,3.5566,3.5783,3.6315,3.6685,3.6927,3.7136,3.7345,3.7468,3.7487,3.7566,3.7765,3.8228,3.8937,3.9282,3.9282,3.911,3.9143,3.9209,3.9242,3.9315,3.9209,3.8732,3.8725,3.8997,3.899,3.913,3.9083,3.8745,3.8944,3.8944,3.8003,3.7394,3.7367,3.7367,3.746,3.7354,3.7288,3.6963,3.6473,3.7121,3.7711,3.7881,3.8313,3.8356,3.8401,3.9118,3.9751,3.9851,4.0089,4.0317,4.0738,4.1331,4.2038,4.2755,4.2892,4.2892,4.2892,4.2892,4.2892,3.0184,3.0231,3.0454,3.0912,3.1499,3.1678,3.2337,3.3163,3.3599,3.4042,3.4647,3.4976,3.5685,3.6463,3.6837,3.7369,3.7894,3.8144,3.8212,3.8212,3.8212,3.8212,3.8212,3.8212,3.8212,3.8212,3.8212,3.8212,3.8212,3.8212,3.8212,3.8183,3.8086,3.7999,3.7842,3.7467,3.6819,3.6492,3.6077,3.5775,3.5552,3.5489,3.5489,3.5489,3.5489,3.54,3.534,3.5302,3.5272,3.519,3.5152,3.5013,3.4691,3.4607,3.5249,3.6076,3.6029,3.6157,3.6904,3.7248,3.7817,3.8392,3.8559,3.8679,3.8798,3.8844,3.8778,3.8944,3.9143,3.9315,3.9315,3.9315,3.9315,3.9315,3.9315,3.9315,3.9275,3.9176,3.9037,3.9275,3.9315,3.9315,3.9183,3.911,3.9143,3.9209,3.8772,3.8407,3.844,3.8467,3.85,3.8288,3.801,3.7586,3.7063,3.8109,3.8851,3.8771,3.9002,3.9158,3.9341,3.9904,4.0323,4.0254,4.0775,4.1411,4.1821,4.2154,4.2426,4.2832,4.2887,4.2892,4.2892,4.2892,4.2892,2.9934,2.9988,3.0435,3.0851,3.1291,3.1945,3.2576,3.3203,3.3789,3.4443,3.5045,3.5464,3.6162,3.6969,3.7243,3.767,3.8059,3.8212,3.8212,3.8212,3.8212,3.8212,3.8212,3.8212,3.8212,3.8212,3.8212,3.8212,3.8212,3.8212,3.8212,3.8212,3.8212,3.8212,3.8104,3.7737,3.7333,3.6845,3.6424,3.5973,3.5555,3.5489,3.5489,3.5489,3.5489,3.5489,3.5489,3.5489,3.5481,3.5459,3.5489,3.5489,3.5415,3.5381,3.553,3.643,3.6506,3.6683,3.742,3.7766,3.8248,3.8745,3.8939,3.9101,3.9255,3.9249,3.9315,3.9315,3.9315,3.9315,3.9315,3.9315,3.9315,3.9315,3.9315,3.9315,3.9315,3.9315,3.9315,3.9315,3.9315,3.9315,3.9315,3.9282,3.9282,3.9315,3.9315,3.9315,3.9315,3.9209,3.907,3.8931,3.8626,3.8394,3.8003,3.8606,3.9315,3.9335,3.9375,3.9534,3.9723,4.0047,4.0324,4.0423,4.1193,4.1963,4.2251,4.2298,4.2623,4.2868,4.2882,4.2892,4.2892,4.2892,4.3005,2.9779,2.9849,3.0559,3.0896,3.1189,3.2255,3.2926,3.3369,3.4012,3.4769,3.5548,3.5904,3.6511,3.7289,3.7625,3.7853,3.8193,3.8212,3.8212,3.8212,3.8212,3.8212,3.8212,3.8212,3.8212,3.8212,3.8212,3.8212,3.8212,3.8212,3.8212,3.8212,3.8212,3.8212,3.8133,3.8035,3.7506,3.7078,3.6653,3.6185,3.5658,3.5489,3.5489,3.5489,3.5489,3.5489,3.5489,3.5489,3.5489,3.5489,3.5489,3.5489,3.5489,3.5489,3.5756,3.6258,3.6808,3.7247,3.7616,3.7994,3.8313,3.8713,3.8897,3.9067,3.9262,3.9315,3.9315,3.9315,3.9315,3.9315,3.9315,3.9315,3.9315,3.9315,3.9315,3.9315,3.9315,3.9315,3.9315,3.9315,3.9315,3.9315,3.9315,3.9315,3.9315,3.9315,3.9315,3.9315,3.9315,3.9315,3.9242,3.9242,3.9176,3.9176,3.8977,3.8878,3.9315,3.9322,3.9342,3.9428,3.9633,3.9839,4.0142,4.0474,4.1116,4.1761,4.2126,4.245,4.2683,4.2806,4.2863,4.3036,4.329,4.344,4.3558,2.9779,2.9864,3.0401,3.0914,3.1387,3.2072,3.2716,3.3386,3.3911,3.4528,3.5239,3.576,3.6379,3.7066,3.7672,3.7977,3.8127,3.8212,3.8212,3.8212,3.8212,3.8212,3.8212,3.8212,3.8212,3.8212,3.8212,3.8212,3.8212,3.8212,3.8212,3.8212,3.8212,3.8212,3.8211,3.8335,3.8318,3.7703,3.7333,3.6636,3.5718,3.5479,3.5449,3.5457,3.5449,3.5449,3.5441,3.5449,3.5457,3.5489,3.5489,3.5489,3.5489,3.5489,3.5527,3.5812,3.6289,3.6937,3.7372,3.777,3.8198,3.8525,3.8766,3.8959,3.9188,3.9315,3.9315,3.9315,3.9315,3.9315,3.9315,3.9315,3.9315,3.9315,3.9315,3.9315,3.9315,3.9315,3.9315,3.9315,3.9315,3.9315,3.9315,3.9315,3.9315,3.9315,3.9315,3.9315,3.9315,3.9315,3.9315,3.9315,3.9315,3.9315,3.9315,3.9315,3.9315,3.9315,3.9329,3.9349,3.9521,3.9729,4.0119,4.0526,4.1157,4.1667,4.1995,4.2323,4.2593,4.2922,4.323,4.3544,4.3865,4.3983,4.4138,2.9779,2.9889,3.0718,3.1195,3.1497,3.2326,3.2896,3.3264,3.3709,3.4251,3.4874,3.5416,3.6151,3.6969,3.7634,3.7929,3.8014,3.8146,3.8212,3.8212,3.8212,3.8212,3.8212,3.8212,3.8212,3.8212,3.8212,3.8212,3.8212,3.8212,3.8212,3.8212,3.8212,3.8212,3.8221,3.8482,3.8194,3.758,3.6942,3.6306,3.5772,3.5386,3.5187,3.5187,3.5157,3.5207,3.531,3.5326,3.5392,3.5449,3.5489,3.5489,3.5489,3.5489,3.5489,3.553,3.5973,3.6531,3.7081,3.7528,3.8004,3.8403,3.869,3.8965,3.9195,3.9315,3.9315,3.9315,3.9315,3.9315,3.9315,3.9315,3.9315,3.9315,3.9315,3.9315,3.9315,3.9315,3.9315,3.9315,3.9315,3.9315,3.9315,3.9315,3.9315,3.9315,3.9315,3.9315,3.9315,3.9315,3.9315,3.9315,3.9315,3.9315,3.9315,3.9315,3.9315,3.9315,3.9315,3.9355,3.9435,3.9658,4.0153,4.0749,4.1449,4.181,4.2016,4.2256,4.2583,4.3115,4.3652,4.4051,4.4444,4.4765,4.4993,2.9779,2.988,3.0809,3.1296,3.1497,3.2462,3.2964,3.3144,3.3471,3.3953,3.4595,3.5212,3.6031,3.6852,3.7462,3.7777,3.791,3.8099,3.8183,3.8212,3.8212,3.8212,3.8212,3.8212,3.8212,3.8212,3.8212,3.8212,3.8212,3.8212,3.8212,3.8212,3.8212,3.8212,3.8249,3.836,3.8198,3.7606,3.6946,3.6376,3.5874,3.5453,3.5149,3.4985,3.4926,3.4968,3.5092,3.5182,3.5302,3.5367,3.5465,3.5481,3.5489,3.5489,3.5489,3.5562,3.59,3.625,3.6762,3.7253,3.7801,3.8255,3.8676,3.8999,3.9255,3.9315,3.9315,3.9315,3.9315,3.9315,3.9315,3.9315,3.9315,3.9315,3.9315,3.9315,3.9315,3.9315,3.9315,3.9315,3.9315,3.9315,3.9315,3.9315,3.9315,3.9315,3.9315,3.9315,3.9315,3.9315,3.9315,3.9315,3.9315,3.9315,3.9315,3.9315,3.9315,3.9415,3.9448,3.9527,3.9761,4.0041,4.0438,4.1089,4.1802,4.2532,4.3106,4.2828,4.2609,4.3151,4.373,4.4558,4.506,4.5417,4.5883,2.9779,2.9854,3.0432,3.0944,3.1432,3.2003,3.2602,3.3025,3.3322,3.3715,3.4314,3.5192,3.6011,3.6675,3.7144,3.7567,3.7882,3.8099,3.8174,3.8193,3.8212,3.8212,3.8212,3.8212,3.8212,3.8212,3.8212,3.8212,3.8212,3.8212,3.8212,3.8212,3.8212,3.8212,3.8249,3.8323,3.8238,3.7822,3.7422,3.6793,3.6192,3.5709,3.5444,3.4957,3.4885,3.491,3.4935,3.5067,3.5182,3.5253,3.54,3.5481,3.5489,3.5489,3.5489,3.5562,3.5766,3.6092,3.6445,3.7035,3.7623,3.8123,3.8595,3.9033,3.9249,3.9315,3.9315,3.9315,3.9315,3.9315,3.9315,3.9315,3.9315,3.9315,3.9315,3.9315,3.9315,3.9315,3.9315,3.9315,3.9315,3.9315,3.9315,3.9315,3.9315,3.9315,3.9315,3.9315,3.9315,3.9315,3.9315,3.9315,3.9315,3.9315,3.9315,3.9441,3.9865,3.9931,3.9938,4.0104,4.029,4.0608,4.091,4.1624,4.2368,4.3274,4.4002,4.3802,4.3593,4.3458,4.3978,4.5314,4.6069,4.6463,4.6933,2.9779,2.9804,3.003,3.0432,3.0974,3.1828,3.233,3.2623,3.3138,3.3725,3.4304,3.5141,3.579,3.632,3.6881,3.7327,3.7701,3.7929,3.8052,3.8174,3.8212,3.8212,3.8212,3.8212,3.8212,3.8212,3.8212,3.8212,3.8212,3.8212,3.8212,3.8212,3.8212,3.8212,3.8249,3.8277,3.8186,3.8028,3.7647,3.6996,3.6324,3.569,3.5252,3.4651,3.4585,3.466,3.4752,3.4918,3.505,3.522,3.5384,3.5457,3.5489,3.5489,3.5489,3.5506,3.5726,3.5919,3.6258,3.6884,3.7543,3.8212,3.8662,3.9006,3.9242,3.9315,3.9315,3.9315,3.9348,3.9308,3.9348,3.9348,3.9315,3.9315,3.9381,3.9441,3.9507,3.9607,3.9507,3.9607,3.9441,3.9315,3.9315,3.9315,3.9315,3.9315,3.9315,3.9315,3.9315,3.9315,3.9315,3.9315,3.9315,3.9772,3.9839,4.0163,4.0547,4.0521,4.0495,4.0687,4.0926,4.1183,4.1551,4.2274,4.2913,4.3696,4.4267,4.4594,4.4705,4.4753,4.5534,4.668,4.7223,4.7575,4.7901,2.9779,2.9779,2.9779,3.0131,3.0688,3.1401,3.1918,3.2286,3.2775,3.3492,3.4215,3.4884,3.5467,3.5981,3.6606,3.7124,3.751,3.7787,3.7977,3.81,3.8146,3.8193,3.8212,3.8212,3.8212,3.8212,3.8212,3.8212,3.8212,3.8212,3.8212,3.8212,3.8212,3.8212,3.8212,3.8212,3.8212,3.8057,3.7796,3.7244,3.6644,3.6246,3.5546,3.4956,3.479,3.465,3.4714,3.4794,3.4968,3.5125,3.5326,3.5465,3.5489,3.5489,3.5489,3.5546,3.5637,3.5832,3.6219,3.6914,3.7648,3.8276,3.8648,3.8965,3.9215,3.9375,3.954,4.0746,4.0157,3.9507,3.9772,4.0097,4.0057,4.019,4.0249,4.0282,4.0256,4.0289,4.0064,3.9931,3.9806,3.9839,3.9647,3.9673,3.9408,3.9375,3.9315,3.9315,3.9315,3.9315,3.9315,3.9315,3.9315,3.9898,4.0521,4.1276,4.1858,4.1269,4.1269,4.1361,4.1595,4.1893,4.2292,4.2946,4.3557,4.4107,4.4686,4.5224,4.5745,4.6199,4.7223,4.8337,4.841,4.8724,4.881,2.9779,2.9779,2.9779,3.0105,3.0548,3.0623,3.1225,3.2003,3.2261,3.2897,3.3801,3.4481,3.512,3.573,3.6379,3.6871,3.7336,3.7692,3.7901,3.7967,3.8118,3.8193,3.8212,3.8212,3.8212,3.8212,3.8212,3.8212,3.8212,3.8212,3.8212,3.8212,3.8212,3.8212,3.8212,3.8212,3.8212,3.8202,3.8144,3.7738,3.7273,3.7003,3.6353,3.5636,3.5209,3.5002,3.48,3.4781,3.4948,3.5001,3.5326,3.5465,3.5489,3.5489,3.5489,3.5497,3.5621,3.5814,3.6099,3.7121,3.7853,3.8381,3.8743,3.9,3.9221,3.9461,4.0388,4.1858,4.1203,4.068,4.0945,4.1368,4.1236,4.0905,4.0931,4.0926,4.0906,4.0872,4.0613,4.0688,4.0707,4.0634,4.0336,4.0071,3.964,3.9441,3.9342,3.9342,3.9467,3.964,3.9772,3.954,3.964,4.0852,4.1733,4.2745,4.3076,4.2414,4.2189,4.2454,4.2653,4.2962,4.3377,4.3782,4.4327,4.4949,4.548,4.5966,4.6987,4.8056,4.8996,4.9791,4.9828,4.9706,4.9653,2.9779,2.9779,2.9779,2.9905,3.0105,3.0472,3.0849,3.124,3.1899,3.2758,3.3623,3.4157,3.476,3.5457,3.6038,3.6557,3.7114,3.7519,3.773,3.7901,3.8109,3.8183,3.8212,3.8212,3.8212,3.8212,3.8212,3.8212,3.8212,3.8212,3.8212,3.8212,3.826,3.8212,3.8212,3.8212,3.8212,3.8212,3.8144,3.7903,3.738,3.7264,3.6887,3.6025,3.5674,3.5334,3.5031,3.5007,3.4952,3.4997,3.531,3.5473,3.5489,3.5489,3.5511,3.5511,3.5617,3.5991,3.6675,3.7569,3.8142,3.8607,3.8998,3.9159,3.9049,3.9215,4.0884,4.2712,4.252,4.199,4.16,4.2454,4.2421,4.1461,4.1283,4.128,4.1261,4.1264,4.1243,4.1578,4.1699,4.1636,4.1442,4.0885,4.0388,4.0256,4.0256,4.0077,4.0129,4.0448,4.062,4.0123,4.0223,4.1666,4.2877,4.3606,4.3837,4.3241,4.3422,4.3926,4.4092,4.4051,4.4499,4.4907,4.5381,4.5841,4.6294,4.7059,4.88,5.0056,5.0388,5.0426,5.0167,5.0084,5.0097,2.9779,2.9779,2.9779,2.9779,2.9854,3.0181,3.0397,3.0723,3.1537,3.2459,3.3236,3.3638,3.4297,3.5061,3.569,3.6208,3.6811,3.722,3.7586,3.7777,3.8005,3.8108,3.8174,3.8212,3.8212,3.8212,3.8212,3.8212,3.8212,3.8212,3.8212,3.826,3.8434,3.8599,3.8551,3.8434,3.8212,3.8212,3.8173,3.8057,3.7767,3.7593,3.7322,3.6751,3.6313,3.5904,3.5551,3.5321,3.5179,3.5185,3.5277,3.5511,3.5489,3.5519,3.5721,3.596,3.6307,3.6715,3.7414,3.7927,3.856,3.9312,3.9591,3.961,3.9511,3.983,4.126,4.2752,4.3458,4.3142,4.2546,4.3473,4.3076,4.2083,4.2071,4.2102,4.2128,4.2196,4.2222,4.2534,4.2581,4.2557,4.2322,4.1799,4.121,4.1203,4.1236,4.1049,4.0903,4.1156,4.1501,4.121,4.0912,4.199,4.3216,4.4217,4.4275,4.4003,4.4449,4.5027,4.4961,4.4887,4.5461,4.5947,4.6086,4.6386,4.7061,4.8097,4.9519,5.0374,5.0745,5.0678,5.0456,5.0544,5.0668,2.9779,2.9779,2.9779,2.9779,2.9779,2.9829,3.0131,3.0623,3.116,3.1842,3.2596,3.3039,3.3746,3.4659,3.5369,3.5921,3.6466,3.6861,3.7269,3.7615,3.791,3.8062,3.8165,3.8212,3.8212,3.8212,3.8212,3.8212,3.8212,3.8212,3.8212,3.8434,3.8841,3.9034,3.8986,3.8841,3.8551,3.8492,3.8415,3.8289,3.8086,3.8057,3.7767,3.736,3.7041,3.6579,3.6204,3.5914,3.5672,3.5543,3.5473,3.5517,3.5511,3.5511,3.6327,3.7019,3.7429,3.7654,3.7999,3.8399,3.9108,3.9893,4.0385,4.0471,4.0659,4.0921,4.1989,4.2925,4.3598,4.3598,4.3598,4.3598,4.3532,4.33,4.33,4.3322,4.3356,4.3333,4.3333,4.3389,4.3396,4.3241,4.2811,4.2322,4.2229,4.2222,4.2289,4.2428,4.2222,4.1818,4.2189,4.2627,4.2421,4.2414,4.3481,4.4846,4.4953,4.4747,4.531,4.5822,4.5723,4.5789,4.6251,4.6565,4.6558,4.6912,4.7706,4.8665,4.9874,5.0535,5.0944,5.1124,5.0943,5.1304,5.1521,2.9779,2.9779,2.9779,2.9779,2.9779,2.9779,3.0105,3.0588,3.0799,3.1292,3.2062,3.2551,3.3178,3.3986,3.4872,3.5524,3.6201,3.6841,3.7298,3.7634,3.792,3.8109,3.8183,3.8212,3.8212,3.8212,3.8212,3.8212,3.8212,3.8212,3.8531,3.8937,3.916,3.945,3.9654,3.9654,3.9325,3.9005,3.8937,3.8609,3.8347,3.8231,3.8028,3.7883,3.7525,3.7121,3.6977,3.6666,3.6398,3.6038,3.6124,3.6058,3.5503,3.5938,3.6673,3.7233,3.761,3.7892,3.8456,3.8952,3.956,4.0332,4.0882,4.1565,4.1824,4.2078,4.2515,4.3191,4.3583,4.3598,4.3598,4.3598,4.3598,4.3598,4.3598,4.3598,4.3598,4.3598,4.3598,4.3598,4.3598,4.3672,4.3241,4.3381,4.3322,4.3282,4.3348,4.3595,4.3595,4.319,4.3157,4.3621,4.3779,4.3771,4.454,4.5807,4.5649,4.5616,4.6179,4.6576,4.6609,4.6742,4.7106,4.7254,4.7342,4.7767,4.8434,4.9337,5.0107,5.062,5.0999,5.1273,5.1543,5.1727,5.1994,2.9779,2.9779,2.9779,2.9779,2.9779,2.9779,3.0005,3.0246,3.0271,3.0682,3.1342,3.1737,3.2439,3.3393,3.4238,3.5073,3.5931,3.6646,3.7192,3.7644,3.7929,3.8109,3.8165,3.8212,3.8212,3.8212,3.8212,3.8212,3.8212,3.826,3.8522,3.9131,3.9363,3.9915,4.0379,4.067,4.0554,4.0002,3.9489,3.9044,3.8667,3.8347,3.8231,3.8154,3.7767,3.7749,3.7685,3.7358,3.7083,3.6743,3.684,3.6387,3.6131,3.6716,3.7443,3.8042,3.8274,3.8653,3.9086,3.9365,3.9895,4.042,4.101,4.1459,4.2005,4.2275,4.2854,4.3441,4.3531,4.3598,4.3598,4.3598,4.3598,4.3598,4.3598,4.3598,4.3598,4.3598,4.3598,4.3598,4.3738,4.3911,4.4011,4.425,4.4482,4.4589,4.4655,4.4795,4.4828,4.4622,4.4589,4.4861,4.5012,4.5096,4.5939,4.6477,4.6477,4.651,4.6908,4.7272,4.7404,4.7471,4.757,4.7865,4.816,4.8519,4.8731,4.9398,5.0079,5.0599,5.1029,5.1226,5.1434,5.1639,5.1941,2.9779,2.9779,2.9779,2.9779,2.9779,2.9779,2.9804,2.9779,2.9854,3.008,3.0557,3.0786,3.1609,3.2621,3.3459,3.44,3.5246,3.6045,3.6645,3.7425,3.7643,3.7812,3.7991,3.8183,3.8212,3.8212,3.8212,3.8212,3.8212,3.826,3.8551,3.9189,3.9625,4.0089,4.0641,4.1279,4.1163,4.0738,4.0041,3.9479,3.9073,3.8628,3.8251,3.8202,3.8133,3.8099,3.7974,3.7839,3.7748,3.7586,3.7336,3.6857,3.7097,3.7785,3.8533,3.8772,3.8918,3.9169,3.9405,3.9595,3.9977,4.0375,4.0739,4.1182,4.1683,4.2206,4.2743,4.3723,4.3974,4.4146,4.4176,4.4309,4.4375,4.4375,4.4375,4.4375,4.4375,4.4102,4.3598,4.3598,4.3631,4.3977,4.4986,4.5218,4.5508,4.5756,4.5822,4.5863,4.5922,4.5847,4.5888,4.5955,4.584,4.5964,4.6502,4.7007,4.7305,4.7504,4.7661,4.7728,4.7736,4.7835,4.7968,4.8115,4.8219,4.8547,4.8881,4.9456,5.0031,5.0738,5.1072,5.1187,5.1418,5.1754,5.2346,2.9779,2.9779,2.9779,2.9779,2.9779,2.9779,2.9779,2.9779,2.9779,2.9889,3.0065,3.0486,3.1032,3.1796,3.2651,3.3565,3.4399,3.5302,3.5667,3.6342,3.6868,3.7361,3.7604,3.7932,3.8144,3.8212,3.8212,3.8212,3.8212,3.8289,3.8512,3.9122,3.947,3.9828,4.0437,4.1105,4.126,4.1057,4.0854,4.006,3.9392,3.9102,3.8812,3.8434,3.8211,3.8368,3.8335,3.8491,3.8353,3.8223,3.8165,3.7973,3.7853,3.8862,3.9251,3.9221,3.9272,3.9436,3.9619,3.9757,4.0105,4.0645,4.1005,4.1165,4.149,4.1962,4.2751,4.3838,4.4596,4.4777,4.4879,4.5078,4.5152,4.5185,4.5144,4.5144,4.5144,4.4507,4.3804,4.3598,4.3598,4.4573,4.569,4.622,4.6477,4.6609,4.6609,4.6684,4.6841,4.6874,4.6775,4.6742,4.6436,4.6594,4.7139,4.7404,4.7636,4.7769,4.7868,4.7934,4.8001,4.8001,4.8034,4.805,4.8163,4.8676,4.9084,4.9305,4.9929,5.088,5.1459,5.1735,5.2031,5.236,5.3071,2.9393,2.9418,2.9679,2.9779,2.9779,2.9779,2.9779,2.9779,2.9779,2.9779,2.9814,3.0145,3.0593,3.1192,3.201,3.2923,3.3783,3.4611,3.5237,3.5765,3.6153,3.6738,3.7184,3.7604,3.7961,3.8115,3.8173,3.8212,3.8212,3.826,3.8522,3.9063,3.9218,3.9479,4.0089,4.0699,4.1086,4.1115,4.1308,4.0931,3.9944,3.9538,3.9131,3.8667,3.8462,3.8542,3.8638,3.8804,3.8836,3.8814,3.8853,3.8841,3.8772,3.9152,3.9352,3.9382,3.9412,3.9541,3.9766,4.0018,4.0386,4.1,4.1504,4.1736,4.2067,4.2676,4.3992,4.5105,4.6213,4.6511,4.6163,4.6204,4.5947,4.5814,4.5649,4.5524,4.5491,4.5218,4.4349,4.3639,4.4433,4.627,4.7073,4.7139,4.7396,4.7371,4.7371,4.7305,4.7504,4.757,4.7537,4.7471,4.7131,4.7165,4.7603,4.7769,4.7868,4.7968,4.8001,4.8034,4.8067,4.8034,4.8042,4.8539,4.892,4.9182,4.951,4.9736,5.0571,5.1659,5.2098,5.2397,5.2747,5.3174,5.3884,2.8847,2.8982,2.9443,2.9739,2.9779,2.9779,2.9779,2.9779,2.9779,2.9779,2.9779,2.9804,3.0353,3.1006,3.1597,3.2611,3.3382,3.3844,3.4556,3.5071,3.5502,3.6084,3.667,3.7155,3.7664,3.8038,3.8202,3.8212,3.8212,3.826,3.8463,3.8986,3.9189,3.9334,3.9905,4.0525,4.0883,4.1076,4.1308,4.1628,4.0931,4.006,3.9538,3.9102,3.8724,3.8543,3.8706,3.8841,3.9035,3.9208,3.9302,3.9272,3.9272,3.9331,3.9361,3.9412,3.9631,3.9879,4.0226,4.0484,4.1036,4.1595,4.2061,4.2484,4.2834,4.3734,4.5031,4.6088,4.7201,4.7572,4.7216,4.7057,4.6742,4.651,4.6286,4.6153,4.6087,4.6062,4.5218,4.4309,4.574,4.7669,4.7868,4.7959,4.7993,4.8001,4.8001,4.8001,4.7968,4.7868,4.7802,4.7802,4.7669,4.7802,4.8001,4.8001,4.8001,4.8001,4.8001,4.8067,4.8233,4.863,4.9094,4.9707,5.0025,4.9893,5.0139,5.0453,5.1368,5.226,5.268,5.3047,5.39,5.4331,5.4853,2.8505,2.8913,2.9057,2.9333,2.9729,2.9779,2.9779,2.9779,2.9779,2.9779,2.9779,2.9808,3.0112,3.0579,3.0996,3.1736,3.2484,3.2964,3.329,3.3717,3.4458,3.5305,3.6149,3.6869,3.7483,3.7914,3.8212,3.8212,3.8212,3.8202,3.8251,3.8463,3.8434,3.858,3.8773,3.9538,4.0476,4.0786,4.1482,4.1947,4.1802,4.0999,4.0147,3.9625,3.9112,3.8931,3.8863,3.8797,3.9035,3.9265,3.9412,3.9412,3.9412,3.9412,3.9451,3.966,3.9849,4.0277,4.0645,4.1014,4.1608,4.2264,4.2737,4.3279,4.3747,4.4396,4.5507,4.6396,4.7245,4.753,4.7432,4.7637,4.7504,4.7504,4.7371,4.7338,4.7338,4.7305,4.6974,4.6701,4.7131,4.7934,4.7934,4.8001,4.8001,4.8001,4.8001,4.8001,4.8001,4.8001,4.8034,4.8034,4.8034,4.8001,4.8001,4.8001,4.8001,4.8001,4.8233,4.8663,4.9094,4.9591,5.0121,5.0668,5.0553,5.0266,5.061,5.1218,5.1711,5.2482,5.31,5.3709,5.4627,5.5174,5.539]},{"header":{"parameterUnit":"m.s-1","parameterCategory":1,"la1":31.0,"la2":29.5877,"lo1":-88.7671,"lo2":-86.6584,"dy":0.0162,"dx":0.0185,"nx":115,"ny":88,"refTime":"2024-04-11T06:00:00:Z","depth":0,"parameterNumber":3,"parameterNumberName":"V-component_of_WINDS"},"data":[0.0,0.0,0.0,0.0,0.0,0.0,0.0,0.0,0.0,0.0,0.0,0.0,0.0,0.0,0.0,0.0,0.0,0.0,0.0,0.0,0.0,0.0,0.0,0.0,0.0,0.0,0.0,0.0,0.0,0.0,0.0,0.0,0.0,0.0,0.0,0.0,0.0,0.0,0.0,0.0,0.0,0.0,0.0,0.0,0.0,0.0,0.0,0.0,0.0,0.0,0.0,0.0,0.0,0.0,0.0,0.0,0.0,0.0,0.0,0.0,0.0,0.0,0.0,0.0,0.0,0.0,0.0,0.0,0.0,0.0,0.0,0.0,0.0,0.0,0.0,0.0,0.0,0.0,0.0,0.0,0.0,0.0,0.0,0.0,0.0,0.0,0.0,0.0,0.0,0.0,0.0,0.0,0.0,0.0,0.0,0.0,0.0,0.0,0.0,0.0,0.0,0.0,0.0,0.0,0.0,0.0,0.0,0.0,0.0,0.0,0.0,0.0,0.0,0.0,0.0,0.0,0.0,0.0,0.0,0.0,0.0,0.0,0.0,0.0,0.0,0.0,0.0,0.0,0.0,0.0,0.0,0.0,0.0,0.0,0.0,0.0,0.0,0.0,0.0,0.0,0.0,0.0,0.0,0.0,0.0,0.0,0.0,0.0,0.0,0.0,0.0,0.0,0.0,0.0,0.0,0.0,0.0,0.0,0.0,0.0,0.0,0.0,0.0,0.0,0.0,0.0,0.0,0.0,0.0,0.0,0.0,0.0,0.0,0.0,0.0,0.0,0.0,0.0,0.0,0.0,0.0,0.0,0.0,0.0,0.0,0.0,0.0,0.0,0.0,0.0,0.0,0.0,0.0,0.0,0.0,0.0,0.0,0.0,0.0,0.0,0.0,0.0,0.0,0.0,0.0,0.0,0.0,0.0,0.0,0.0,0.0,0.0,0.0,0.0,0.0,0.0,0.0,0.0,0.0,0.0,0.0,0.0,0.0,0.0,0.0,0.0,0.0,0.0,0.0,0.0,0.0,0.0,0.0,0.0,0.0,0.0,0.0,0.0,0.0,0.0,0.0,0.0,0.0,0.0,0.0,0.0,0.0,0.0,0.0,0.0,0.0,0.0,0.0,0.0,0.0,0.0,0.0,0.0,0.0,0.0,0.0,0.0,0.0,0.0,0.0,0.0,0.0,0.0,0.0,0.0,0.0,0.0,0.0,0.0,0.0,0.0,0.0,0.0,0.0,0.0,0.0,0.0,0.0,0.0,0.0,0.0,0.0,0.0,0.0,0.0,0.0,0.0,0.0,0.0,0.0,0.0,0.0,0.0,0.0,0.0,0.0,0.0,0.0,0.0,0.0,0.0,0.0,0.0,0.0,0.0,0.0,0.0,0.0,0.0,0.0,0.0,0.0,0.0,0.0,0.0,0.0,0.0,0.0,0.0,0.0,0.0,0.0,0.0,0.0,0.0,0.0,0.0,0.0,0.0,0.0,0.0,0.0,0.0,0.0,0.0,0.0,0.0,0.0,0.0,0.0,0.0,0.0,0.0,0.0,0.0,0.0,0.0,0.0,0.0,0.0,0.0,0.0,0.0,0.0,0.0,0.0,0.0,0.0,0.0,0.0,0.0,0.0,0.0,0.0,0.0,0.0,0.0,0.0,0.0,0.0,0.0,0.0,0.0,0.0,0.0,0.0,0.0,0.0,0.0,0.0,0.0,0.0,0.0,0.0,0.0,0.0,0.0,0.0,0.0,0.0,0.0,0.0,0.0,0.0,0.0,0.0,0.0,0.0,0.0,0.0,0.0,0.0,0.0,0.0,0.0,0.0,0.0,0.0,0.0,0.0,0.0,0.0,0.0,0.0,0.0,0.0,0.0,0.0,0.0,0.0,0.0,0.0,0.0,0.0,0.0,0.0,0.0,0.0,0.0,0.0,0.0,0.0,0.0,0.0,0.0,0.0,0.0,0.0,0.0,0.0,0.0,0.0,0.0,0.0,0.0,0.0,0.0,0.0,0.0,0.0,0.0,0.0,0.0,0.0,0.0,0.0,0.0,0.0,0.0,0.0,0.0,0.0,0.0,0.0,0.0,0.0,0.0,0.0,0.0,0.0,0.0,0.0,0.0,0.0,0.0,0.0,0.0,0.0,0.0,0.0,0.0,0.0,0.0,0.0,0.0,0.0,0.0,0.0,0.0,0.0,0.0,0.0,0.0,0.0,0.0,0.0,0.0,0.0,0.0,0.0,0.0,0.0,0.0,0.0,0.0,0.0,0.0,0.0,0.0,0.0,0.0,0.0,0.0,0.0,0.0,0.0,0.0,0.0,0.0,0.0,0.0,0.0,0.0,0.0,0.0,0.0,0.0,0.0,0.0,0.0,0.0,0.0,0.0,0.0,0.0,0.0,0.0,0.0,0.0,0.0,0.0,0.0,0.0,0.0,0.0,0.0,0.0,0.0,0.0,0.0,0.0,0.0,0.0,0.0,0.0,0.0,0.0,0.0,0.0,0.0,0.0,0.0,0.0,0.0,0.0,0.0,0.0,0.0,0.0,0.0,0.0,0.0,0.0,0.0,0.0,0.0,0.0,0.0,0.0,0.0,0.0,0.0,0.0,0.0,0.0,0.0,0.0,0.0,0.0,0.0,0.0,0.0,0.0,0.0,0.0,0.0,0.0,0.0,0.0,0.0,0.0,0.0,0.0,0.0,0.0,0.0,0.0,0.0,0.0,0.0,0.0,0.0,0.0,0.0,0.0,0.0,0.0,0.0,0.0,0.0,0.0,0.0,0.0,0.0,0.0,0.0,0.0,0.0,0.0,0.0,0.0,0.0,0.0,0.0,0.0,0.0,0.0,0.0,0.0,0.0,0.0,0.0,0.0,0.0,0.0,0.0,0.0,0.0,0.0,0.0,0.0,0.0,0.0,0.0,0.0,0.0,0.0,0.0,0.0,0.0,0.0,0.0,0.0,0.0,0.0,0.0,0.0,0.0,0.0,0.0,0.0,0.0,0.0,0.0,0.0,0.0,0.0,0.0,0.0,0.0,0.0,0.0,0.0,0.0,0.0,0.0,0.0,0.0,0.0,0.0,0.0,0.0,0.0,0.0,0.0,0.0,0.0,0.0,0.0,0.0,0.0,0.0,0.0,0.0,0.0,0.0,0.0,0.0,0.0,0.0,0.0,0.0,0.0,0.0,0.0,0.0,0.0,0.0,0.0,0.0,0.0,0.0,0.0,0.0,0.0,0.0,0.0,0.0,0.0,0.0,0.0,0.0,0.0,0.0,0.0,0.0,0.0,0.0,0.0,0.0,0.0,0.0,0.0,0.0,0.0,0.0,0.0,0.0,0.0,0.0,0.0,0.0,0.0,0.0,0.0,0.0,0.0,0.0,0.0,0.0,0.0,0.0,0.0,0.0,0.0,0.0,0.0,0.0,0.0,0.0,0.0,0.0,0.0,0.0,0.0,0.0,0.0,0.0,0.0,0.0,0.0,0.0,0.0,0.0,0.0,0.0,0.0,0.0,0.0,0.0,0.0,0.0,0.0,0.0,0.0,0.0,0.0,0.0,0.0,0.0,0.0,0.0,0.0,0.0,0.0,0.0,0.0,0.0,0.0,0.0,0.0,0.0,0.0,0.0,0.0,0.0,0.0,0.0,0.0,0.0,0.0,0.0,0.0,0.0,0.0,0.0,0.0,0.0,0.0,0.0,0.0,0.0,0.0,0.0,0.0,0.0,0.0,0.0,0.0,0.0,0.0,0.0,0.0,0.0,0.0,0.0,0.0,0.0,0.0,0.0,0.0,0.0,0.0,0.0,0.0,0.0,0.0,0.0,0.0,0.0,0.0,0.0,0.0,0.0,0.0,0.0,0.0,0.0,0.0,0.0,0.0,0.0,0.0,0.0,0.0,0.0,0.0,0.0,0.0,0.0,0.0,0.0,0.0,0.0,0.0,0.0,0.0,0.0,0.0,0.0,0.0,0.0,0.0,0.0,0.0,0.0,0.0,0.0,0.0,0.0,0.0,0.0,0.0,0.0,0.0,0.0,0.0,0.0,0.0,0.0,0.0,0.0,0.0,0.0,0.0,0.0,0.0,0.0,0.0,0.0,0.0,0.0,0.0,0.0,0.0,0.0,0.0,0.0,0.0,0.0,0.0,0.0,0.0,0.0,0.0,0.0,0.0,0.0,0.0,0.0,0.0,0.0,0.0,0.0,0.0,0.0,0.0,0.0,0.0,0.0,0.0,0.0,0.0,0.0,0.0,0.0,0.0,0.0,0.0,0.0,0.0,0.2601,0.0,0.0,0.0,0.0,0.0,0.0,0.0,0.0,0.0,0.0,0.0,0.0,0.0,0.0,0.0,0.0,0.0,0.0,0.0,0.0,0.0,0.0,0.0,0.0,0.0,0.0,0.0,0.0,0.0,0.0,0.0,0.0,0.0,0.0,0.0,0.0,0.0,0.0,0.0,0.0,0.0,0.0,0.0,0.0,0.0,0.0,0.0,0.0,0.0,0.0,0.0,0.0,0.0,0.0,0.0,0.0,0.0,0.0,0.0,0.0,0.0,0.0,0.0,0.0,0.0,0.0,0.0,0.0,0.0,0.0,0.0,0.0,0.0,0.0,0.0,0.0,0.0,0.0,0.0,0.0,0.0,0.0,0.0,0.0,0.0,0.0,0.0,0.0,0.0,0.0,0.0,0.0,0.0,0.0,0.0,0.0,0.0,0.0,0.0,0.0,0.0,0.0,0.0,0.0,0.0,0.0,0.0,0.0,0.0,0.0,0.26,0.26,0.26,0.2694,0.2914,0.0,0.0,0.0,0.0,0.0,0.0,0.0,0.0,0.0,0.0,0.0,0.0,0.0,0.0,0.0,0.0,0.0,0.0,0.0,0.0,0.0,0.0,0.0,0.0,0.0,0.0,0.0,0.0,0.0,0.0,0.0,0.0,0.0,0.0,0.0,0.0,0.0,0.0,0.0,0.0,0.0,0.0,0.0,0.0,0.0,0.0,0.0,0.0,0.0,0.0,0.0,0.0,0.0,0.0,0.0,0.0,0.0,0.0,0.0,0.0,0.0,0.0,0.0,0.0,0.0,0.0,0.0,0.0,0.0,0.0,0.0,0.0,0.0,0.0,0.0,0.0,0.0,0.0,0.0,0.0,0.0,0.0,0.0,0.0,0.0,0.0,0.0,0.0,0.0,0.0,0.0,0.0,0.0,0.0,0.0,0.0,0.0,0.0,0.0,0.0,0.0,0.0,0.0,0.0,0.0,0.0,0.0,0.0,0.0,0.0,0.0,0.0,0.2698,0.3011,0.3537,0.0,0.0,0.0,0.0,0.0,0.0,0.0,0.0,0.0,0.0,0.0,0.0,0.0,0.0,0.0,0.0,0.0,0.0,0.0,0.0,0.0,0.0,0.0,0.0,0.0,0.0,0.0,0.0,0.0,0.0,0.0,0.0,0.0,0.0,0.0,0.0,0.0,0.0,0.0,0.0,0.0,0.0,0.0,0.0,0.0,0.0,0.0,0.0,0.0,0.0,0.0,0.0,0.0,0.0,0.0,0.0,0.0,0.0,0.0,0.0,0.0,0.0,0.0,0.0,0.0,0.0,0.0,0.0,0.0,0.0,0.0,0.0,0.0,0.0,0.0,0.0,0.0,0.0,0.0,0.0,0.0,0.0,0.0,0.0,0.0,0.0,0.0,0.0,0.0,0.0,0.0,0.0,0.0,0.0,0.0,0.0,0.0,0.0,0.0,0.0,0.0,0.0,0.0,0.0,0.0,0.0,0.0,0.0,0.0,0.0,0.2589,0.261,0.3014,0.0,0.4507,0.0,0.0,0.0,0.0,0.0,0.0,0.0,0.0,0.0,0.0,0.0,0.0,0.0,0.0,0.0,0.0,0.0,0.0,0.0,0.0,0.0,0.0,0.0,0.0,0.0,0.0,0.0,0.0,0.0,0.0,0.0,0.0,0.0,0.0,0.0,0.0,0.0,0.0,0.0,0.0,0.0,0.0,0.0,0.0,0.0,0.0,0.0,0.0,0.0,0.0,0.0,0.0,0.0,0.0,0.0,0.0,0.0,0.0,0.0,0.0,0.0,0.0,0.0,0.0,0.0,0.0,0.0,0.0,0.0,0.0,0.0,0.0,0.0,0.0,0.0,0.0,0.0,0.0,0.0,0.0,0.0,0.0,0.0,0.0,0.0,0.0,0.0,0.0,0.0,0.0,0.0,0.0,0.0,0.0,0.0,0.0,0.0,0.0,0.0,0.0,0.0,0.0,0.0,0.0,0.0,0.0,0.0,0.0,0.0,0.0,0.2737,0.3007,0.373,0.4306,0.0,0.0,0.0,0.0,0.0,0.0,0.0,0.0,0.0,0.0,0.0,0.0,0.0,0.0,0.0,0.0,0.0,0.0,0.0,0.0,0.0,0.0,0.0,0.0,0.0,0.0,0.0,0.0,0.0,0.0,0.0,0.0,0.0,0.0,0.0,0.0,0.0,0.0,0.0,0.0,0.0,0.0,0.0,0.0,0.0,0.0,0.0,0.0,0.0,0.0,0.0,0.0,0.0,0.0,0.0,0.0,0.0,0.0,0.0,0.0,0.0,0.0,0.0,0.0,0.0,0.0,0.0,0.0,0.0,0.0,0.0,0.0,0.0,0.0,0.0,0.0,0.0,0.0,0.0,0.0,0.0,0.0,0.0,0.0,0.0,0.0,0.0,0.0,0.0,0.0,0.0,0.0,0.0,0.0,0.0,0.0,0.0,0.0,0.0,0.0,0.0,0.0,0.0,0.0,0.0,0.0,0.0,0.0,0.0,0.0,0.26,0.2908,0.3499,0.4305,0.4781,0.4925,0.0,0.0,0.0,0.0,0.0,0.0,0.0,0.0,0.0,0.0,0.0,0.0,0.0,0.0,0.0,0.0,0.0,0.0,0.0,0.0,0.0,0.0,0.0,0.0,0.0,0.0,0.0,0.0,0.0,0.0,0.0,0.0,0.0,0.0,0.0,0.0,0.0,0.0,0.0,0.0,0.0,0.0,0.0,0.0,0.0,0.0,0.0,0.0,0.0,0.0,0.0,0.0,0.0,0.0,0.0,0.0,0.0,0.0,0.0,0.0,0.0,0.0,0.0,0.0,0.0,0.0,0.0,0.0,0.0,0.0,0.0,0.0,0.0,0.0,0.0,0.0,0.0,0.0,0.0,0.0,0.0,0.0,0.0,0.0,0.0,0.0,0.0,0.0,0.0,0.0,0.0,0.0,0.0,0.0,0.0,0.0,0.0,0.0,0.0,0.0,0.0,0.0,0.0,0.0,0.0,0.0,0.0,0.0,0.2512,0.2583,0.3081,0.4041,0.4553,0.5,0.0,0.0,0.0,0.0,0.0,0.0,0.0,0.0,0.0,0.0,0.0,0.0,0.0,0.0,0.0,0.0,0.0,0.0,0.0,0.0,0.0,0.0,0.0,0.0,0.0,0.0,0.0,0.0,0.0,0.0,0.0,0.0,0.0,0.0,0.0,0.0,0.0,0.0,0.0,0.0,0.0,0.0,0.0,0.0,0.0,0.0,0.0,0.0,0.0,0.0,0.0,0.0,0.0,0.0,0.0,0.0,0.0,0.0,0.0,0.0,0.0,0.0,0.0,0.0,0.0,0.0,0.0,0.0,0.0,0.0,0.0,0.0,0.0,0.0,0.0,0.0,0.0,0.0,0.0,0.0,0.0,0.0,0.0,0.0,0.0,0.0,0.0,0.0,0.0,0.0,0.0,0.0,0.0,0.0,0.0,0.0,0.0,0.0,0.0,0.0,0.0,0.0,0.0,0.0,0.0,0.0,0.0,0.0,0.0,0.2601,0.3208,0.3866,0.4478,0.4972,0.5318,0.0,0.0,0.0,0.0,0.0,0.0,0.0,0.0,0.0,0.0,0.0,0.0,0.0,0.0,0.0,0.0,0.0,0.0,0.0,0.0,0.0,0.0,0.0,0.0,0.0,0.0,0.0,0.0,0.0,0.0,0.0,0.0,0.0,0.0,0.0,0.0,0.0,0.0,0.0,0.0,0.0,0.0,0.0,0.0,0.0,0.0,0.0,0.0,0.0,0.0,0.0,0.0,0.0,0.0,0.0,0.0,0.0,0.0,0.0,0.0,0.0,0.0,0.0,0.0,0.0,0.0,0.0,0.0,0.0,0.0,0.0,0.0,0.0,0.0,0.0,0.0,0.0,0.0,0.0,0.0,0.0,0.0,0.0,0.0,0.0,0.0,0.0,0.0,0.0,0.0,0.0,0.0,0.0,0.0,0.0,0.0,0.0,0.0,0.0,0.0,0.0,0.0,0.0,0.0,0.0,0.0,0.0,0.0,0.0,0.3067,0.0,0.4428,0.4724,0.5228,0.5487,0.0,0.0,0.0,0.0,0.0,0.0,0.0,0.0,0.0,0.0,0.0,0.0,0.0,0.0,0.0,0.0,0.0,0.0,0.0,0.0,0.0,0.0,0.0,0.0,0.0,0.0,0.0,0.0,0.0,0.0,0.0,0.0,0.0,0.0,0.0,0.0,0.0,0.0,0.0,0.0,0.0,0.0,0.0,0.0,0.0,0.0,0.0,0.0,0.0,0.0,0.0,0.0,0.0,0.0,0.0,0.0,0.0,0.0,0.0,0.0,0.0,0.0,0.0,0.0,0.0,0.0,0.0,0.0,0.0,0.0,0.0,0.0,0.0,0.0,0.0,0.0,0.0,0.0,0.0,0.0,0.0,0.0,0.0,0.0,0.0,0.0,0.0,0.0,0.0,0.0,0.0,0.0,0.0,0.0,0.0,0.0,0.0,0.0,0.0,0.0,0.0,0.0,0.0,0.0,0.0,0.0,0.0,0.0,0.3491,0.4009,0.446,0.4765,0.4836,0.5301,0.551,0.0,0.0,0.0,0.0,0.0,0.0,0.0,0.0,0.0,0.0,0.0,0.0,0.0,0.0,0.0,0.0,0.0,0.0,0.0,0.0,0.0,0.0,0.0,0.0,0.0,0.0,0.0,0.0,0.0,0.0,0.0,0.0,0.0,0.0,0.0,0.0,0.0,0.0,0.0,0.0,0.0,0.0,0.0,0.0,0.0,0.0,0.0,0.0,0.0,0.0,0.0,0.0,0.0,0.0,0.0,0.0,0.0,0.0,0.0,0.0,0.0,0.0,0.0,0.0,0.0,0.0,0.0,0.0,0.0,0.0,0.0,0.0,0.0,0.0,0.0,0.0,0.0,0.0,0.0,0.0,0.0,0.0,0.0,0.0,0.0,0.0,0.0,0.0,0.0,0.0,0.0,0.0,0.0,0.0,0.0,0.0,0.0,0.0,0.0,0.0,0.0,0.0,0.0,0.0,0.0,0.0,0.0,0.0,0.0,0.4963,0.5139,0.5384,0.57,0.583,0.5793,0.0,0.0,0.0,0.0,0.0,0.0,0.0,0.0,0.0,0.0,0.0,0.0,0.0,0.0,0.0,0.0,0.0,0.0,0.0,0.0,0.0,0.0,0.0,0.0,0.0,0.0,0.0,0.0,0.0,0.0,0.0,0.0,0.0,0.0,0.0,0.0,0.0,0.0,0.0,0.0,0.0,0.0,0.0,0.0,0.0,0.0,0.0,0.0,0.0,0.0,0.0,0.0,0.0,0.0,0.0,0.0,0.0,0.0,0.0,0.0,0.0,0.0,0.0,0.0,0.0,0.0,0.0,0.0,0.0,0.0,0.0,0.0,0.0,0.0,0.0,0.0,0.0,0.0,0.0,0.0,0.0,0.0,0.0,0.0,0.0,0.0,0.0,0.0,0.0,0.0,0.0,0.0,0.0,0.0,0.0,0.0,0.0,0.0,0.0,0.0,0.0,0.0,0.0,0.0,0.0,0.0,0.0,0.0,0.0,0.6426,0.6141,0.6096,0.6348,0.6194,0.5972,0.5738,0.0,0.0,0.0,0.0,0.0,0.0,0.0,0.0,0.0,0.0,0.0,0.0,0.0,0.0,0.0,0.0,0.0,0.0,0.0,0.0,0.0,0.0,0.0,0.0,0.0,0.0,0.0,0.0,0.0,0.0,0.0,0.0,0.0,0.0,0.0,0.0,0.0,0.0,0.0,0.0,0.0,0.0,0.0,0.0,0.0,0.0,0.0,0.0,0.0,0.0,0.0,0.0,0.0,0.0,0.0,0.0,0.0,0.0,0.0,0.0,0.0,0.0,0.0,0.0,0.0,0.0,0.0,0.0,0.0,0.0,0.0,0.0,0.0,0.0,0.0,0.0,0.0,0.0,0.0,0.0,0.0,0.0,0.0,0.0,0.0,0.0,0.0,0.0,0.0,0.0,0.0,0.0,0.0,0.0,0.0,0.0,0.0,0.0,0.0,0.0,0.0,0.0,0.0,0.0,0.0,0.0,0.0,0.0,0.8225,0.7425,0.6967,0.6878,0.6471,0.617,0.0,0.0,0.0,0.0,0.0,0.0,0.0,0.0,0.0,0.0,0.0,0.0,0.0,0.0,0.0,0.0,0.0,0.0,0.0,0.0,0.0,0.0,0.0,0.0,0.0,0.0,0.0,0.0,0.0,0.0,0.0,0.0,0.0,0.0,0.0,0.0,0.0,0.0,0.0,0.0,0.0,0.0,0.0,0.0,0.0,0.0,0.0,0.0,0.0,0.0,0.0,0.0,0.0,0.0,0.0,0.0,0.0,0.0,0.0,0.0,0.0,0.0,0.0,0.0,0.0,0.0,0.0,0.0,0.0,0.0,0.0,0.0,0.0,0.0,0.0,0.0,0.0,0.0,0.0,0.0,0.0,0.0,0.0,0.0,0.0,0.0,0.0,0.0,0.0,0.0,0.0,0.0,0.0,0.0,0.0,0.0,0.0,0.0,0.0,0.0,0.0,0.0,0.0,0.0,0.0,0.0,0.0,0.0,0.0,0.8681,0.9092,0.8844,0.7869,0.771,0.7153,0.0,0.0,0.0,0.0,0.0,0.0,0.0,0.0,0.0,0.0,0.0,0.0,0.0,0.0,0.0,0.0,0.0,0.0,0.0,0.0,0.0,0.0,0.0,0.0,0.0,0.0,0.0,0.0,0.0,0.0,0.0,0.0,0.0,0.0,0.0,0.0,0.0,0.0,0.0,0.0,0.0,0.0,0.0,0.0,0.0,0.0,0.0,0.0,0.0,0.0,0.0,0.0,0.0,0.0,0.0,0.0,0.0,0.0,0.0,0.0,0.0,0.0,0.0,0.0,0.0,0.0,0.0,0.0,0.0,0.0,0.0,0.0,0.0,0.0,0.0,0.0,0.0,0.0,0.0,0.0,0.0,0.0,0.0,0.0,0.0,0.0,0.0,0.0,0.0,0.0,0.0,0.0,0.0,0.0,0.0,0.0,0.0,0.0,0.0,0.0,0.0,0.0,0.0,0.0,0.0,0.0,0.0,0.0,0.831,0.9435,1.0311,1.032,0.9336,0.8781,0.7914,0.0,0.0,0.0,0.0,0.0,0.0,0.0,0.0,0.0,0.0,0.0,0.0,0.0,0.0,0.0,0.0,0.0,0.0,0.0,0.0,0.0,0.0,0.0,0.0,0.0,0.0,0.0,0.0,0.0,0.0,0.0,0.0,0.0,0.0,0.0,0.0,0.0,0.0,0.0,0.0,0.0,0.0,0.0,0.0,0.0,0.0,0.0,0.0,0.0,0.0,0.0,0.0,0.0,0.0,0.0,0.0,0.0,0.0,0.0,0.0,0.0,0.0,0.0,0.0,0.0,0.0,0.0,0.0,0.0,0.0,0.0,0.0,0.0,0.0,0.0,0.0,0.0,0.0,0.0,0.0,0.0,0.0,0.0,0.0,0.0,0.0,0.0,0.0,0.0,0.0,0.0,0.0,0.0,0.0,0.0,0.0,0.0,0.0,0.0,0.0,0.0,0.0,0.0,0.0,0.0,0.0,0.0,0.0,0.9001,1.0327,1.1245,1.1519,1.1034,0.9745,0.8536,0.0,0.0,0.0,0.0,0.0,0.0,0.0,0.0,0.0,0.0,0.0,0.0,0.0,0.0,0.0,0.0,0.0,0.0,0.0,0.0,0.0,0.0,0.0,0.0,0.0,0.0,0.0,0.0,0.0,0.0,0.0,0.0,0.0,0.0,0.0,0.0,0.0,0.0,0.0,0.0,0.0,0.0,0.0,0.0,0.0,0.0,0.0,0.0,0.0,0.0,0.0,0.0,0.0,0.0,0.0,0.0,0.0,0.0,0.0,0.0,0.0,0.0,0.0,0.0,0.0,0.0,0.0,0.0,0.0,0.0,0.0,0.0,0.0,0.0,0.0,0.0,0.0,0.0,0.0,0.0,0.0,0.0,0.0,0.0,0.0,0.0,0.0,0.0,0.0,0.0,0.0,0.0,0.0,0.0,0.0,0.0,0.0,0.0,0.0,0.0,0.0,0.0,0.0,0.0,0.0,0.0,0.0,0.0,0.9894,1.128,1.2172,1.2415,1.2022,1.0656,0.917,0.0,0.0,0.0,0.0,0.0,0.0,0.0,0.0,0.0,0.0,0.0,0.0,0.0,0.0,0.0,0.0,0.0,0.0,0.0,0.0,0.0,0.0,0.0,0.0,0.0,0.0,0.0,0.0,0.0,0.0,0.0,0.0,0.0,0.0,0.0,0.0,0.0,0.0,0.0,0.0,0.0,0.0,0.0,0.0,0.0,0.0,0.0,0.0,0.3498,0.0,0.0,0.0,0.0,0.0,0.0,0.0,0.0,0.0,0.0,0.0,0.0,0.0,0.0,0.0,0.0,0.0,0.0,0.0,0.0,0.0,0.0,0.0,0.0,0.0,0.0,0.0,0.0,0.0,0.0,0.0,0.0,0.0,0.0,0.0,0.0,0.0,0.0,0.0,0.0,0.0,0.0,0.0,0.0,0.0,0.0,0.0,0.0,0.0,0.0,0.0,0.0,0.0,0.0,0.0,0.0,0.0,0.0,0.0,1.0183,1.155,1.2445,1.2704,1.2286,1.1152,0.9783,0.0,0.0,0.0,0.0,0.0,0.0,0.0,0.0,0.0,0.0,0.0,0.0,0.0,0.0,0.0,0.0,0.0,0.0,0.0,0.0,0.0,0.0,0.0,0.0,0.0,0.0,0.0,0.0,0.0,0.0,0.0,0.0,0.0,0.0,0.0,0.0,0.0,0.0,0.0,0.0,0.0,0.0,0.0,0.0,0.0,0.0,0.0,0.0,0.0,0.0,0.0,0.0,0.0,0.0,0.0,0.0,0.0,0.0,0.0,0.0,0.0,0.0,0.0,0.0,0.0,0.0,0.0,0.0,0.0,0.0,0.0,0.0,0.0,0.0,0.0,0.0,0.0,0.0,0.0,0.0,0.0,0.0,0.0,0.0,0.0,0.0,0.0,0.0,0.0,0.0,0.0,0.0,0.0,0.0,0.0,0.0,0.0,0.0,0.0,0.0,0.0,0.0,0.0,0.0,0.0,0.0,0.0,0.9009,1.0362,1.1685,1.2565,1.2793,1.2313,1.1478,1.0364,0.0,0.0,0.0,0.0,0.0,0.0,0.0,0.0,0.0,0.0,0.0,0.0,0.0,0.0,0.0,0.0,0.0,0.0,0.0,0.0,0.0,0.0,0.0,0.0,0.0,0.0,0.0,0.0,0.0,0.0,0.0,0.0,0.0,0.0,0.0,0.0,0.0,0.0,0.0,0.469,0.4828,0.0,0.0,0.0,0.0,0.0,0.0,0.0,0.0,0.4346,0.0,0.0,0.0,0.0,0.0,0.0,0.0,0.0,0.0,0.0,0.0,0.0,0.0,0.0,0.0,0.0,0.0,0.0,0.0,0.0,0.0,0.0,0.0,0.0,0.0,0.0,0.0,0.0,0.0,0.0,0.0,0.0,0.0,0.0,0.0,0.0,0.0,0.0,0.0,0.0,0.0,0.0,0.0,0.0,0.0,0.0,0.0,0.0,0.0,0.0,0.0,0.0,0.0,0.0,0.0,0.0,0.8087,0.9804,1.1151,1.2172,1.3041,1.3109,1.2333,1.1824,1.0746,0.8962,0.0,0.0,0.0,0.0,0.0,0.0,0.0,0.0,0.0,0.0,0.0,0.0,0.0,0.0,0.0,0.0,0.0,0.0,0.0,0.0,0.0,0.0,0.0,0.0,0.0,0.0,0.0,0.0,0.0,0.0,0.0,0.0,0.0,0.0,0.0,0.0,0.0,0.0,0.0,0.5285,0.5451,0.0,0.0,0.0,0.0,0.0,0.0,0.0,0.0,0.5065,0.0,0.0,0.0,0.0,0.0,0.0,0.0,0.0,0.0,0.0,0.0,0.0,0.0,0.0,0.0,0.0,0.0,0.0,0.0,0.0,0.0,0.0,0.0,0.0,0.0,0.0,0.0,0.0,0.0,0.0,0.0,0.0,0.0,0.0,0.0,0.0,0.0,0.0,0.0,0.0,0.0,0.0,0.0,0.0,0.0,0.0,0.0,0.0,0.0,0.0,0.0,0.0,0.0,0.0,0.0,0.8242,0.9977,1.1349,1.2286,1.3144,1.3192,1.2323,1.1678,1.0568,0.0,0.0,0.0,0.0,0.0,0.0,0.0,0.0,0.0,0.0,0.0,0.0,0.0,0.0,0.0,0.0,0.0,0.0,0.0,0.0,0.0,0.0,0.0,0.0,0.0,0.0,0.0,0.0,0.0,0.0,0.0,0.0,0.0,0.0,0.0,0.0,0.0,0.0,0.0,0.0,0.564,0.6015,0.6149,0.0,0.0,0.0,0.0,0.0,0.0,0.5812,0.5866,0.0,0.0,0.0,0.0,0.0,0.0,0.0,0.0,0.0,0.0,0.0,0.0,0.0,0.0,0.0,0.0,0.0,0.0,0.0,0.0,0.0,0.0,0.0,0.0,0.0,0.0,0.0,0.0,0.0,0.0,0.0,0.0,0.0,0.0,0.0,0.0,0.0,0.0,0.0,0.0,0.0,0.0,0.0,0.0,0.0,0.0,0.0,0.0,0.0,0.0,0.0,0.0,0.0,0.0,0.0,0.8232,0.9994,1.1369,1.2286,1.3067,1.3088,1.2334,1.1365,1.0232,0.0,0.0,0.0,0.0,0.0,0.0,0.0,0.0,0.0,0.0,0.0,0.0,0.0,0.0,0.0,0.0,0.0,0.0,0.0,0.0,0.0,0.0,0.0,0.0,0.0,0.0,0.0,0.0,0.0,0.0,0.0,0.0,0.0,0.0,0.0,0.0,0.0,0.0,0.0,0.0,0.0,0.6598,0.6855,0.6962,0.0,0.0,0.0,0.0,0.6715,0.6816,0.0,0.0,0.0,0.0,0.0,0.0,0.0,0.0,0.0,0.0,0.0,0.0,0.0,0.0,0.0,0.0,0.0,0.0,0.0,0.0,0.0,0.0,0.0,0.0,0.0,0.0,0.0,0.0,0.0,0.0,0.0,0.0,0.0,0.0,0.0,0.0,0.0,0.0,0.0,0.0,0.0,0.0,0.0,0.0,0.0,0.0,0.0,0.0,0.0,0.0,0.0,0.0,0.0,0.0,0.0,0.0,0.8232,0.9989,1.1334,1.2266,1.2746,1.2785,1.2388,1.1148,0.9852,0.0,0.0,0.0,0.0,0.0,0.0,0.0,0.0,0.0,0.0,0.0,0.0,0.0,0.0,0.0,0.0,0.0,0.0,0.0,0.0,0.0,0.0,0.0,0.0,0.0,0.0,0.0,0.0,0.0,0.0,0.0,0.0,0.0,0.0,0.0,0.0,0.0,0.0,0.0,0.0,0.0,0.7209,0.7545,0.7827,0.7931,0.0,0.0,0.0,0.6787,0.7199,0.0,0.0,0.0,0.0,0.0,0.0,0.0,0.0,0.0,0.0,0.0,0.0,0.0,0.0,0.0,0.0,0.0,0.0,0.0,0.0,0.0,0.0,0.0,0.0,0.0,0.0,0.0,0.0,0.0,0.0,0.0,0.0,0.0,0.0,0.0,0.0,0.0,0.0,0.0,0.0,0.0,0.0,0.0,0.0,0.0,0.0,0.0,0.0,0.0,0.0,0.0,0.0,0.0,0.0,0.0,0.7396,0.8609,1.0113,1.1369,1.2271,1.2689,1.2737,1.2409,1.1089,0.9788,0.0,0.0,0.0,0.0,0.0,0.0,0.0,0.0,0.0,0.0,0.0,0.0,0.0,0.0,0.0,0.0,0.0,0.0,0.0,0.0,0.0,0.0,0.0,0.0,0.0,0.0,0.0,0.0,0.0,0.0,0.0,0.0,0.0,0.0,0.0,0.0,0.0,0.0,0.0,0.0,0.0,0.0,0.793,0.8262,0.0,0.0,0.0,0.8088,0.8017,0.0,0.0,0.0,0.0,0.0,0.0,0.0,0.0,0.0,0.0,0.0,0.0,0.0,0.0,0.0,0.0,0.0,0.0,0.0,0.0,0.0,0.0,0.0,0.0,0.0,0.0,0.0,0.0,0.0,0.0,0.0,0.0,0.0,0.0,0.0,0.0,0.0,0.0,0.0,0.0,0.0,0.0,0.0,0.0,0.0,0.0,0.0,0.0,0.0,0.0,0.0,0.0,0.0,0.0,0.0,0.0,0.0,0.89,1.0212,1.1369,1.226,1.2678,1.2765,1.2452,1.1129,0.0,0.0,0.0,0.0,0.0,0.0,0.0,0.0,0.0,0.0,0.0,0.0,0.0,0.0,0.0,0.0,0.0,0.0,0.0,0.0,0.0,0.0,0.0,0.0,0.0,0.0,0.0,0.0,0.0,0.0,0.0,0.0,0.0,0.0,0.0,0.0,0.0,0.0,0.0,0.0,0.0,0.0,0.7999,0.8481,0.8844,0.9085,0.0,0.0,0.8848,0.925,0.8674,0.8116,0.0,0.0,0.0,0.0,0.0,0.0,0.0,0.0,0.0,0.0,0.0,0.0,0.0,0.0,0.0,0.0,0.0,0.0,0.0,0.0,0.0,0.0,0.0,0.0,0.0,0.0,0.0,0.0,0.0,0.0,0.0,0.0,0.0,0.0,0.0,0.0,0.0,0.0,0.0,0.0,0.0,0.0,0.0,0.0,0.0,0.0,0.0,0.0,0.0,0.0,0.0,0.0,0.0,0.0,0.0,0.8875,1.0217,1.1364,1.2276,1.2684,1.2804,1.2574,1.1176,1.0038,0.0,0.0,0.0,0.0,0.0,0.0,0.0,0.0,0.0,0.0,0.0,0.0,0.0,0.0,0.0,0.0,0.0,0.0,0.0,0.0,0.0,0.0,0.0,0.0,0.0,0.0,0.0,0.0,0.0,0.0,0.0,0.0,0.0,0.0,0.0,0.0,0.0,0.0,0.0,0.0,0.0,0.849,0.9388,0.9804,1.0111,0.0,0.0,0.9694,1.0146,0.9796,0.9219,0.8481,0.0,0.0,0.0,0.0,0.0,0.0,0.0,0.0,0.0,0.0,0.0,0.0,0.0,0.0,0.0,0.0,0.0,0.0,0.0,0.0,0.0,0.0,0.0,0.0,0.0,0.0,0.0,0.0,0.0,0.0,0.0,0.0,0.0,0.0,0.0,0.0,0.0,0.0,0.0,0.0,0.0,0.0,0.0,0.0,0.0,0.0,0.0,0.0,0.0,0.0,0.0,0.0,0.0,0.7625,0.9249,1.0343,1.1364,1.2266,1.2678,1.2815,1.2611,1.1476,1.0383,0.0,0.0,0.0,0.0,0.0,0.0,0.0,0.0,0.0,0.0,0.0,0.0,0.0,0.0,0.0,0.0,0.0,0.0,0.0,0.0,0.0,0.0,0.0,0.0,0.0,0.0,0.0,0.0,0.3587,0.3772,0.3878,0.0,0.0,0.0,0.0,0.0,0.0,0.0,0.0,0.0,0.0,0.9005,0.9541,1.0068,0.0,0.0,1.0389,1.0242,1.0285,0.9907,0.949,0.9183,0.8346,0.0,0.0,0.0,0.0,0.0,0.0,0.0,0.0,0.0,0.0,0.0,0.0,0.0,0.0,0.0,0.0,0.0,0.0,0.0,0.0,0.0,0.0,0.0,0.0,0.0,0.0,0.0,0.0,0.0,0.0,0.0,0.0,0.0,0.0,0.0,0.0,0.0,0.0,0.0,0.0,0.0,0.0,0.0,0.0,0.0,0.0,0.0,0.0,0.0,0.0,0.0,0.0,0.7828,0.9476,1.0559,1.1498,1.2308,1.2828,1.2933,1.2552,1.1774,1.0843,0.0,0.0,0.0,0.0,0.0,0.0,0.0,0.0,0.0,0.0,0.0,0.0,0.0,0.0,0.0,0.0,0.0,0.0,0.0,0.0,0.0,0.0,0.0,0.0,0.0,0.0,0.0,0.0,0.3842,0.3911,0.3911,0.0,0.0,0.0,0.0,0.0,0.0,0.0,0.0,0.0,0.0,0.9502,0.9992,1.0461,1.0832,1.1026,1.0997,1.0886,1.0634,1.0048,0.9607,0.9607,0.0,0.0,0.0,0.0,0.0,0.0,0.0,0.0,0.0,0.0,0.0,0.0,0.0,0.0,0.0,0.0,0.0,0.0,0.0,0.0,0.0,0.0,0.0,0.0,0.0,0.0,0.0,0.0,0.0,0.0,0.0,0.0,0.0,0.0,0.0,0.0,0.0,0.0,0.0,0.0,0.0,0.0,0.0,0.0,0.0,0.0,0.0,0.0,0.0,0.0,0.0,0.0,0.0,0.0,0.9505,1.0863,1.1814,1.2313,1.3118,1.3205,1.243,1.2004,1.1412,1.0573,0.0,0.0,0.0,0.0,0.0,0.0,0.0,0.0,0.0,0.0,0.0,0.0,0.0,0.0,0.0,0.0,0.0,0.0,0.0,0.0,0.0,0.0,0.0,0.0,0.0,0.0,0.4429,0.4124,0.3923,0.0,0.0,0.0,0.0,0.0,0.0,0.0,0.0,0.0,0.0,0.9389,0.9965,1.0909,1.1078,1.1301,1.1936,1.1934,1.1729,1.1322,1.0336,0.9607,0.0,0.0,0.0,0.0,0.0,0.0,0.0,0.0,0.0,0.0,0.0,0.0,0.0,0.0,0.0,0.0,0.0,0.0,0.0,0.0,0.0,0.0,0.0,0.0,0.0,0.0,0.0,0.7198,0.7368,0.0,0.0,0.0,0.0,0.0,0.0,0.0,0.0,0.0,0.0,0.0,0.9525,0.9885,0.0,0.0,0.0,0.0,0.0,0.0,0.0,0.0,0.0,0.0,0.0,0.0,0.8621,0.9951,1.1043,1.1959,1.2689,1.3272,1.3371,1.2865,1.2536,1.1841,1.0777,0.0,0.0,0.0,0.0,0.0,0.0,0.0,0.0,0.0,0.0,0.0,0.0,0.0,0.0,0.0,0.0,0.0,0.0,0.0,0.0,0.0,0.0,0.0,0.0,0.0,0.4827,0.0,0.0,0.0,0.0,0.0,0.0,0.0,0.0,0.0,0.0,0.0,0.8291,0.982,0.9927,1.0165,1.0993,1.1248,1.1539,0.0,0.0,0.0,0.0,0.0,0.0,0.0,0.0,0.0,0.0,0.0,0.0,0.0,0.0,0.9685,0.8149,0.7512,0.7571,0.8814,0.0,0.0,0.0,0.0,0.0,0.0,0.0,0.0,0.0,0.0,0.0,0.0,0.0,0.0,0.0,0.0,0.8772,0.0,0.0,0.0,0.0,0.0,0.0,0.0,0.0,1.0126,1.0746,1.108,1.1397,1.1145,0.0,1.0367,0.9663,0.0,0.0,0.0,0.0,0.0,0.0,0.0,0.0,0.9112,1.041,1.1364,1.2182,1.2874,1.3375,1.344,1.3095,1.2834,1.2237,1.1332,1.021,0.9312,0.0,0.0,0.0,0.0,0.0,0.0,0.0,0.0,0.0,0.0,0.0,0.0,0.0,0.0,0.0,0.0,0.0,0.0,0.0,0.0,0.0,0.0,0.0,0.5606,0.0,0.0,0.0,0.0,0.0,0.0,0.0,0.0,0.0,0.6707,0.7659,0.8881,1.0302,1.0426,1.0565,1.1178,0.0,0.0,0.0,0.0,0.0,0.0,0.0,1.0775,1.1188,1.126,1.126,1.1267,1.1626,1.1927,1.1927,0.0,0.0,0.9749,0.9224,0.9487,1.075,1.1001,1.0706,0.9674,0.9404,0.9402,0.0,0.0,0.0,0.0,0.0,0.0,0.0,0.0,1.0531,1.0517,0.0,1.0259,0.0,0.0,0.0,0.0,0.0,0.0,0.0,0.0,1.16,1.2231,1.2243,1.2666,1.2613,1.2111,1.2096,1.1759,1.108,0.9275,0.0,0.0,0.0,0.0,0.0,0.0,0.9617,1.0904,1.1866,1.2541,1.2921,1.336,1.3445,1.3101,1.2915,1.2621,1.2227,1.1738,1.1092,1.019,0.9174,0.0,0.0,0.0,0.0,0.0,0.0,0.0,0.0,0.0,0.0,0.0,0.0,0.0,0.0,0.0,0.0,0.0,0.0,0.0,0.0,0.6851,0.0,0.0,0.0,0.0,0.0,0.0,0.0,0.0,0.0,0.0,0.8368,0.8701,0.9269,1.0394,0.0,0.0,0.0,0.0,1.217,1.2566,1.2622,1.2638,1.2598,1.2582,1.2562,1.2551,0.0,0.0,1.2553,1.3073,1.3492,1.353,1.3785,1.3388,1.1152,1.0711,1.1077,1.2281,1.255,1.2248,1.1405,1.1054,1.0963,1.4432,0.0,0.0,0.0,0.0,1.2804,1.3316,1.4098,1.3087,1.3115,1.3815,1.275,0.0,0.0,0.0,0.0,0.0,0.0,1.1895,1.2262,1.3211,1.3806,1.4106,1.449,1.4421,1.3995,1.4001,1.3545,1.2738,1.2175,1.0934,0.9089,0.0,0.0,0.0,0.0,1.0901,1.1618,1.2547,1.3178,1.353,1.3671,1.3568,1.3257,1.3296,1.3114,1.2731,1.2239,1.1716,1.1109,1.0191,0.0,0.0,0.0,0.0,0.0,0.0,0.0,0.0,0.0,0.0,0.0,0.0,0.0,0.0,0.0,0.0,0.0,0.0,0.0,0.8086,0.7905,0.7621,0.0,0.0,0.0,0.0,0.0,0.0,0.0,0.0,0.0,0.9668,0.9974,1.0318,0.0,0.0,1.1471,1.1799,1.2178,1.2551,1.2909,0.0,0.0,0.0,1.2606,1.2906,1.3782,1.3744,1.3574,1.3574,1.392,1.4223,1.4213,1.4324,1.4145,1.3532,1.2593,1.2482,1.3589,1.3911,1.3687,1.2987,1.2673,1.2607,1.7801,1.6476,1.5549,1.5138,1.5165,1.5148,1.5638,1.6412,1.5491,1.5514,1.616,1.5213,1.4612,1.43,1.3564,0.0,0.0,0.0,1.3896,1.4177,1.4768,1.5197,1.5452,1.5677,1.563,1.539,1.5403,1.5069,1.4471,1.4064,1.3135,1.1669,0.0,0.0,1.0383,1.1203,1.1923,1.2513,1.3092,1.3542,1.3875,1.3928,1.3865,1.3669,1.3834,1.3832,1.3581,1.3098,1.2704,1.2418,1.1289,1.0313,0.0,0.0,0.0,0.0,0.0,0.0,0.0,0.0,0.0,0.0,0.0,0.5175,0.0,0.0,0.0,0.0,0.8387,0.9451,0.9082,0.9146,0.0,0.0,0.0,0.0,0.0,0.0,0.0,0.6848,0.7562,0.8935,1.1015,1.1338,1.1483,1.1874,1.1803,1.1828,1.2194,0.0,1.2806,1.3129,1.3255,1.324,1.3028,1.2781,1.3116,1.4619,1.4584,1.436,1.437,1.4633,1.4848,1.4863,1.4863,1.4863,1.4863,1.4184,1.3853,1.4687,1.4853,1.4643,1.4028,1.3788,1.3785,2.0817,2.0622,1.8522,1.757,1.7486,1.746,1.7794,1.8328,1.7748,1.772,1.8126,1.7557,1.7047,1.6588,1.6045,0.0,0.0,1.5713,1.6002,1.6088,1.6371,1.6528,1.6567,1.6583,1.6573,1.6567,1.6561,1.6474,1.6228,1.5349,1.484,1.4717,1.3181,1.2335,1.2233,1.2377,1.2829,1.3575,1.3596,1.3756,1.4034,1.4163,1.4233,1.4245,1.4483,1.4633,1.4593,1.4149,1.3872,1.3779,1.2484,1.1582,1.1191,0.0,0.0,0.0,0.0,0.0,0.0,0.0,0.0,0.0,0.0,0.0,0.0,0.0,0.0,0.0,0.9282,0.0,1.0103,1.0508,0.0,0.0,0.0,0.9457,0.8789,0.9293,0.8851,0.6721,0.0,0.0,0.0,0.0,1.2606,1.2606,1.2282,1.2204,1.2552,1.2735,1.2956,1.3275,1.3157,1.3186,1.3532,1.3193,1.3437,1.5031,1.5133,1.4929,1.4929,1.5158,1.5363,1.5373,1.5402,1.5388,1.5402,1.5304,1.5417,1.5359,1.5388,1.5223,1.4687,1.4555,1.456,2.2002,2.195,2.1387,2.0674,1.9869,1.9869,2.0177,2.0643,2.0112,2.0158,2.0573,1.9478,1.8508,1.7626,1.7428,1.7386,1.7478,1.7421,1.7823,1.8528,1.8406,1.8545,1.8891,1.8877,1.8891,1.8891,1.8891,1.848,1.7714,1.7453,1.6962,1.6201,1.5498,1.4492,1.3229,1.3544,1.389,1.4165,1.4446,1.4517,1.4465,1.4494,1.4489,1.4517,1.472,1.4818,1.4812,1.4705,1.4429,1.3971,1.3795,1.2945,1.1271,0.9303,0.0,0.0,0.0,0.0,0.0,0.0,0.0,0.0,0.0,0.6405,0.7492,0.0,0.7123,0.0,1.0332,1.1778,1.152,1.1507,0.0,0.0,1.1574,1.1186,1.0819,1.0982,1.027,0.814,0.9283,1.0824,1.2399,1.2606,1.2606,1.2606,1.2609,1.2577,1.2551,1.3008,1.3355,1.3464,1.3711,1.3953,1.3964,1.403,1.4301,1.5248,1.5334,1.5279,1.53,1.5338,1.5417,1.5417,1.5417,1.5417,1.5417,1.5417,1.5417,1.5417,1.5417,1.5363,1.5212,1.5179,1.5158,2.3158,2.3146,2.3153,2.278,2.2172,2.1688,2.1616,2.1877,2.1577,2.1629,2.1851,2.1108,2.0431,1.9883,1.9705,1.9656,1.9699,1.944,1.9603,2.0052,1.9833,1.9863,2.01,2.005,2.0021,1.9983,1.9948,1.9639,1.9079,1.8677,1.8197,1.7631,1.7034,1.6279,1.5372,1.5041,1.4843,1.4805,1.4942,1.4943,1.4817,1.4828,1.4806,1.4817,1.5045,1.5026,1.4786,1.4802,1.4609,1.425,1.4327,1.364,1.2049,1.0318,0.9199,0.0,0.0,0.0,0.0,0.0,0.0,0.0,0.0,0.0,0.0,0.0,0.8562,0.0,1.2125,0.0,1.2776,1.2949,1.324,1.3488,1.3227,1.2919,1.2688,1.2614,1.2191,1.123,1.1243,1.1757,1.2839,1.2851,1.2729,1.2621,1.2751,1.289,1.2865,1.3084,1.3282,1.3584,1.3813,1.3928,1.3846,1.3952,1.4355,1.5183,1.5265,1.5231,1.5373,1.5417,1.5417,1.5417,1.5417,1.5417,1.5417,1.5417,1.5417,1.5417,1.5417,1.5417,1.5417,1.5417,1.5417,2.432,2.432,2.432,2.4312,2.4267,2.3249,2.2752,2.2622,2.2629,2.259,2.2499,2.2383,2.2289,2.2184,2.1944,2.1781,2.1657,2.146,2.135,2.129,2.1166,2.1095,2.1066,2.0862,2.0811,2.0796,2.0593,2.048,2.0392,1.9602,1.9159,1.9047,1.8196,1.7824,1.7861,1.6639,1.5844,1.5561,1.54,1.5297,1.5268,1.521,1.5182,1.5204,1.544,1.531,1.4808,1.4813,1.4783,1.4634,1.4547,1.4075,1.3128,1.1849,1.0748,0.0,0.9414,0.0,0.0,0.0,0.0,0.0,0.0,0.0,0.0,0.9823,1.0635,1.2489,1.4061,1.4656,1.3869,1.4409,1.4843,1.4898,1.47,1.448,1.4386,1.4189,1.4176,1.458,1.3511,1.2984,1.3595,1.3369,1.3026,1.2821,1.2876,1.3075,1.3255,1.3075,1.3133,1.3717,1.3634,1.3555,1.3537,1.3525,1.3945,1.4993,1.509,1.5031,1.5338,1.5417,1.5417,1.5417,1.5417,1.5417,1.5417,1.5417,1.5417,1.5417,1.5417,1.5417,1.5417,1.5417,1.5417,2.5495,2.5487,2.5461,2.5495,2.5469,2.5226,2.4633,2.3771,2.3797,2.3503,2.304,2.3012,2.2702,2.2197,2.2143,2.2284,2.2583,2.2825,2.3117,2.3429,2.3696,2.3769,2.3577,2.3137,2.2918,2.2893,2.2447,2.2,2.1584,2.1401,2.1083,2.0632,1.9644,1.9137,1.9114,0.0,0.0,0.0,1.6597,1.6306,1.6161,1.5765,1.5615,1.5664,1.5824,0.0,1.5751,1.5653,1.5504,1.5322,1.5096,0.0,0.0,0.0,0.0,0.0,0.0,0.0,0.0,0.0,0.0,0.0,1.1918,1.1789,1.1271,1.1545,1.2525,1.431,1.4807,1.4925,1.4759,1.4864,1.5126,1.547,1.5348,1.5409,1.5866,1.5608,1.533,1.5213,1.4803,1.4546,1.4643,1.4197,1.3709,1.3367,1.3154,1.3162,1.3503,1.3313,1.3299,1.3705,1.3619,1.3501,1.3492,1.3492,1.3814,1.4652,1.4925,1.5017,1.5319,1.5417,1.5417,1.5417,1.5417,1.5417,1.5417,1.5417,1.5417,1.5417,1.5417,1.5417,1.5417,1.5417,1.5417,2.5775,0.0,2.5775,2.5775,0.0,2.5775,2.5461,2.4954,2.4947,2.4764,2.4502,2.4495,2.4275,2.3978,2.3978,2.4064,2.4207,2.4389,2.4533,2.4651,2.4849,2.4839,2.4669,2.4323,2.4119,2.4014,2.3416,2.2959,2.2696,2.2221,2.1863,2.1573,2.0864,2.0476,2.0458,1.9733,1.8803,1.7696,1.7397,1.721,1.7068,1.6595,1.6358,1.6403,0.0,0.0,0.0,0.0,0.0,0.0,0.0,0.0,0.0,0.0,0.0,1.3635,1.2762,1.2234,1.2248,1.2668,1.3043,1.3265,1.389,1.3615,1.2074,1.2981,1.4192,1.5538,1.5684,1.5594,1.54,1.5559,1.5787,1.6008,1.5959,1.6048,1.6303,1.6101,1.5894,1.5879,1.5619,1.5442,1.5442,1.502,1.4477,1.3955,1.3819,1.3819,1.3893,1.3549,1.3362,1.3603,1.3574,1.3492,1.3492,1.3492,1.3784,1.456,1.476,1.4911,1.5329,1.5417,1.5417,1.5417,1.5417,1.5417,1.5417,1.5417,1.5417,1.5417,1.5417,1.5417,1.5417,1.5417,1.5417,2.6114,2.608,2.6088,2.6122,2.6088,2.6088,2.6114,2.6088,0.0,0.0,0.0,2.5775,2.5775,2.5775,2.5775,2.5746,2.5654,2.5732,2.5696,2.5504,2.5606,2.5569,2.5424,2.5152,2.4957,2.4804,2.4119,2.3751,2.3703,2.2936,2.2513,2.2396,2.1988,2.1701,2.15,2.1062,2.0067,1.8547,1.8141,1.7964,1.7976,1.7459,1.7175,1.7222,1.6901,1.6492,1.5959,1.5743,1.5488,1.519,1.455,1.4362,1.4794,1.5191,1.5342,1.522,1.4374,1.3878,1.3987,1.4407,1.4738,1.4884,1.5608,1.5124,1.2939,1.413,1.5442,1.6554,1.6499,1.6264,1.596,1.6216,1.6395,1.6395,1.6395,1.6388,1.6388,1.6246,1.6203,1.6338,1.6144,1.5957,1.5878,1.5626,1.5271,1.4751,1.4666,1.467,1.4445,1.3942,1.3534,1.3525,1.3501,1.3492,1.3492,1.3492,1.3799,1.4453,1.455,1.4711,1.5139,1.5363,1.5392,1.5417,1.5417,1.5417,1.5417,1.5417,1.5417,1.5417,1.5417,1.5417,1.5417,1.5417,1.5417,2.7255,2.7263,2.7255,2.7263,2.7263,2.7255,2.7271,2.7185,2.6219,2.5801,2.5775,2.5775,2.5775,2.5775,2.5775,2.5785,2.5795,2.6297,2.6443,0.0,2.6791,2.6931,2.6713,2.6244,2.5898,2.5675,2.516,2.4778,2.4618,2.4467,2.4183,2.3714,2.3153,2.2433,2.1583,2.1432,2.1048,2.0306,1.922,1.866,1.8654,1.8151,1.7925,1.802,1.7968,1.7864,1.7653,1.7382,1.7099,1.6703,1.5795,1.5142,1.4843,1.5201,1.5635,1.6105,1.5331,1.4979,1.5387,1.5822,1.6422,1.7138,1.7358,1.6621,1.4842,1.4848,1.5698,1.729,1.6899,1.6519,1.6738,1.6581,1.6457,1.6429,1.6416,1.6395,1.6422,1.6421,1.6421,1.6464,1.6359,1.6222,1.6038,1.5845,1.5841,1.5872,1.55,1.5115,1.4858,1.4492,1.4051,1.3626,1.3492,1.3492,1.3492,1.3492,1.3691,1.4047,1.4364,1.4609,1.4954,1.5221,1.5402,1.5417,1.5417,1.5417,1.5417,1.5417,1.5417,1.5417,1.5417,1.5417,1.5417,1.5417,1.5417,2.749,2.749,2.749,2.749,2.749,2.749,2.7689,2.7933,2.7445,2.701,2.6741,2.6741,2.6715,2.6741,2.6715,2.6715,2.6733,2.7018,2.7074,2.7017,2.7294,2.7323,2.7146,2.6922,2.6702,2.645,2.5841,2.5489,2.5382,2.4991,2.4683,2.4415,2.3871,2.3344,2.2856,2.2246,2.1827,2.155,2.0417,1.9677,1.9346,1.8815,1.8552,1.8638,1.8368,1.8145,1.8007,1.7684,1.729,1.6898,1.6228,1.564,1.5194,1.5942,1.6637,1.7049,1.6711,1.6545,1.6773,1.6987,1.7262,1.766,1.7952,1.7649,1.6552,1.647,1.7014,1.8291,1.8074,1.7706,1.742,1.7207,1.7119,1.7126,1.7111,1.7053,1.6923,1.7038,1.7094,1.7101,1.698,1.6875,1.6889,1.688,1.6774,1.664,1.6078,1.5618,1.5394,1.4974,1.4442,1.384,1.3601,1.3501,1.3501,1.3492,1.3647,1.3959,1.4291,1.4584,1.4852,1.5188,1.5363,1.5417,1.5417,1.5417,1.5417,1.5417,1.5417,1.5417,1.5417,1.5417,1.5417,1.5417,1.5417,2.749,2.749,2.7672,2.7768,2.7898,2.7898,2.8168,2.8586,2.8586,2.8333,2.7924,2.789,2.789,2.7924,2.7907,2.7924,2.7898,2.7898,2.7933,2.7898,2.7898,2.7848,2.7772,2.7737,2.7652,2.7396,2.6824,2.6443,2.6232,2.5652,2.5226,2.4942,2.4448,2.4122,2.3987,2.3118,2.2566,2.2264,2.1475,2.0792,2.0181,1.9654,1.9365,1.9346,1.8857,1.8489,1.8319,1.7964,1.7608,1.7295,1.6881,1.638,1.5836,1.6825,1.7636,1.7947,1.782,1.7766,1.7861,1.7965,1.8014,1.8035,1.8348,1.841,1.8076,1.8006,1.8311,1.8973,1.9036,1.87,1.8042,1.798,1.7944,1.775,1.7701,1.7616,1.7539,1.7567,1.7646,1.7665,1.757,1.7505,1.7469,1.7675,1.76,1.71,1.6592,1.6218,1.5922,1.54,1.4801,1.4217,1.3755,1.3555,1.3564,1.3537,1.3612,1.3876,1.4228,1.4536,1.4823,1.5125,1.5377,1.5417,1.5417,1.5417,1.5417,1.5417,1.5417,1.5417,1.5417,1.5417,1.5417,1.5417,1.5417,2.7516,2.7576,2.8107,2.8638,2.9083,2.91,2.9135,2.9214,2.9223,2.9188,2.9126,2.9126,2.9135,2.9144,2.9074,2.9083,2.9083,2.9126,2.9109,2.9083,2.9135,2.9118,2.9056,2.9083,2.8994,2.8757,2.8475,2.7983,2.7426,2.7149,2.6524,2.5586,2.4992,2.449,2.4062,2.3871,2.3351,2.2332,2.2214,2.1902,2.1356,2.0817,2.0547,2.0534,1.9974,1.9532,1.9292,1.8988,1.8817,1.8693,1.8245,1.7606,1.6885,1.7474,1.8231,1.8849,1.8187,1.7861,1.8307,1.8721,1.8932,1.8994,1.8973,1.9002,1.8924,1.8953,1.8994,1.9106,1.9106,1.887,1.8439,1.8688,1.8568,1.791,1.7784,1.7784,1.8012,1.7642,1.7415,1.7674,1.7989,1.7741,1.7101,1.7433,1.7724,1.7579,1.7251,1.6797,1.6307,1.5789,1.5265,1.4606,1.3982,1.3692,1.3783,1.3655,1.3572,1.3609,1.4072,1.4443,1.4653,1.5018,1.5417,1.5417,1.5417,1.5417,1.5417,1.5417,1.5417,1.5417,1.5417,1.5417,1.5417,1.5417,1.5417,2.8577,2.8586,2.8848,2.9083,2.9266,2.9292,2.9501,2.9753,2.9753,2.9971,3.0286,3.0312,2.9946,2.9318,2.9292,2.9292,2.9292,2.9292,2.9292,2.9292,2.9292,2.9292,2.9292,2.9292,2.9248,2.9177,2.8964,2.8735,2.8371,2.7808,2.7227,2.6695,2.5803,2.5159,2.4941,2.4624,2.4222,2.3788,2.3469,2.3201,2.2874,2.1791,2.1181,2.1155,2.0929,2.0673,2.0379,2.0162,1.9876,1.9514,1.9048,1.8526,1.7968,1.8244,1.8632,1.9032,1.875,1.8617,1.8808,1.8978,1.9106,1.9106,1.9106,1.9106,1.9106,1.9106,1.9106,1.9106,1.9106,1.9007,1.8841,1.8986,1.8916,1.8597,1.8535,1.8575,1.8697,1.8506,1.8419,1.8539,1.8622,1.8572,1.816,1.8286,1.8361,1.8073,1.7741,1.7243,1.6603,1.6167,1.5762,1.5213,1.4696,1.4265,1.3994,1.3683,1.3537,1.3583,1.39,1.4232,1.4531,1.4999,1.5392,1.5402,1.5392,1.5392,1.5417,1.5417,1.5417,1.5417,1.5417,1.5417,1.5417,1.5417,1.5417,2.9354,2.9327,2.944,2.9623,2.9763,2.9763,2.998,3.0328,3.0345,3.0589,3.0992,3.0992,3.0538,2.9841,2.9754,2.9772,2.9763,2.9763,2.9763,2.9763,2.9763,2.9763,2.9763,2.9763,2.9763,2.9727,2.959,2.936,2.9099,2.8326,2.7894,2.7724,2.6721,2.6089,2.5896,2.5334,2.4934,2.4766,2.4398,2.4222,2.4054,2.3025,2.2196,2.1776,2.1575,2.1374,2.1092,2.0891,2.0641,2.0238,1.9786,1.9395,1.9107,1.9072,1.9108,1.9131,1.9115,1.9106,1.9106,1.9106,1.9106,1.9106,1.9106,1.9106,1.9106,1.9106,1.9106,1.9106,1.9106,1.9098,1.9106,1.9106,1.9106,1.9106,1.9106,1.9106,1.9085,1.9106,1.9056,1.9106,1.9032,1.9106,1.9085,1.9048,1.8882,1.8476,1.8116,1.7673,1.7053,1.6734,1.6403,1.5823,1.5443,1.4919,1.4238,1.3937,1.3719,1.3583,1.3803,1.4096,1.4389,1.4916,1.5202,1.512,1.5261,1.5334,1.5246,1.5261,1.5392,1.5417,1.5417,1.5417,1.5417,1.5417,1.5417,2.9478,2.9397,2.9848,3.0363,3.0887,3.0887,3.0914,3.0914,3.094,3.0966,3.0992,3.0992,3.0966,3.0852,3.0809,3.0914,3.0887,3.0835,3.0826,3.0835,3.0861,3.0904,3.093,3.093,3.0887,3.0764,3.058,3.0193,2.9508,2.8942,2.8642,2.8582,2.7834,2.7222,2.6722,2.6013,2.5335,2.5017,2.485,2.4758,2.4774,2.4658,2.3795,2.249,2.1802,2.1548,2.1304,2.1,2.0897,2.1054,2.061,2.0247,2.0051,2.0004,1.9756,1.9359,1.9164,1.9098,1.9119,1.9148,1.916,1.916,1.9222,1.9119,1.9098,1.9106,1.9106,1.9106,1.9106,1.9106,1.9181,1.9235,1.9206,1.9193,1.916,1.9181,1.916,1.921,1.9119,1.9106,1.9106,1.9106,1.9106,1.9106,1.899,1.8747,1.8462,1.8099,1.7716,1.745,1.7046,1.6455,1.5982,1.5487,1.4765,1.4319,1.3994,1.3736,1.3748,1.3993,1.4311,1.4604,1.4692,1.4823,1.4935,1.5012,1.5012,1.5119,1.5294,1.5377,1.5402,1.5417,1.5417,1.5417,1.5417,3.0557,3.04,3.0581,3.079,3.0992,3.0992,3.0992,3.0992,3.0992,3.0992,3.0992,3.0992,3.0992,3.0992,3.0992,3.0992,3.0992,3.0992,3.0992,3.0992,3.0992,3.0992,3.0992,3.0992,3.0992,3.0999,3.0908,3.0764,3.042,2.9755,2.9398,2.9249,2.8552,2.7992,2.7703,2.7064,2.6582,2.6348,2.572,2.5301,2.5276,2.4984,2.449,2.3938,2.3369,2.285,2.2345,2.2209,2.203,2.1816,2.1415,2.1104,2.0773,2.015,1.9627,1.9351,1.9164,1.9214,1.9492,1.9546,1.9661,1.9913,1.9934,1.9661,1.9243,1.9106,1.9106,1.9127,1.9127,1.9243,1.9632,1.981,1.9925,1.9925,1.9913,1.9884,1.9899,1.9788,1.9527,1.921,1.9106,1.9106,1.916,1.9106,1.9023,1.8852,1.8709,1.851,1.8203,1.8005,1.7773,1.7185,1.6821,1.6394,1.5504,1.4828,1.4325,1.3852,1.3697,1.3883,1.4138,1.4023,1.4048,1.4409,1.4575,1.4623,1.4623,1.4998,1.5202,1.5377,1.5417,1.5417,1.5417,1.5417,1.5417,3.1207,3.1076,3.1011,3.0992,3.0992,3.0992,3.0992,3.0992,3.0992,3.0992,3.0992,3.0992,3.0992,3.0992,3.0992,3.0992,3.0992,3.0992,3.0992,3.0992,3.0992,3.0992,3.0992,3.0992,3.0992,3.0992,3.0992,3.0992,3.0947,3.0451,3.0158,3.0049,2.9178,2.8715,2.8556,2.7929,2.7553,2.7378,2.6624,2.6155,2.6097,2.5603,2.5251,2.505,2.4699,2.4208,2.355,2.3272,2.3036,2.2663,2.2176,2.162,2.1098,2.0564,2.0049,1.9678,1.9624,1.9709,1.9948,2.0002,2.0108,2.0342,2.0383,2.0112,1.957,1.9499,1.9632,1.9877,1.9981,2.0129,2.0286,2.0629,2.0723,2.0496,2.0383,2.0383,2.0374,2.0235,1.9956,1.973,1.991,1.9889,1.9608,1.9558,1.949,1.932,1.9341,1.9204,1.898,1.8894,1.8625,1.7983,1.7636,1.709,1.6298,1.5567,1.4869,1.4354,1.3836,1.3924,1.387,1.3658,1.3618,1.3964,1.414,1.4174,1.4414,1.4818,1.5125,1.5359,1.5417,1.5417,1.5417,1.5417,1.5417,3.1319,3.1263,3.1076,3.1011,3.0992,3.0992,3.0992,3.0992,3.0992,3.0992,3.0992,3.0992,3.0992,3.0992,3.0992,3.0992,3.0992,3.0992,3.0992,3.0992,3.0992,3.0992,3.0992,3.0992,3.0992,3.0992,3.0992,3.0992,3.0983,3.0884,3.0773,3.0533,2.9851,2.9365,2.9209,2.8499,2.8113,2.7962,2.7494,2.7245,2.7245,2.6692,2.6164,2.5695,2.5586,2.531,2.4792,2.4106,2.3705,2.3577,2.2785,2.1832,2.1238,2.1262,2.1151,2.0454,2.05,2.0555,2.0419,2.0422,2.0443,2.0558,2.0466,2.0537,2.0463,2.0425,2.0723,2.1321,2.1507,2.1466,2.1061,2.1351,2.1383,2.064,2.0569,2.0569,2.0507,2.0445,2.0404,2.0516,2.1022,2.1291,2.0703,2.0413,2.0374,2.0283,2.0224,2.013,1.9958,1.9923,1.9669,1.8975,1.839,1.7832,1.7065,1.6281,1.5573,1.4907,1.4358,1.4096,1.3931,1.3726,1.3534,1.3764,1.4033,1.4106,1.456,1.4945,1.5144,1.5334,1.5363,1.5417,1.5417,1.5417,1.5417,3.167,3.13,3.1235,3.1114,3.1001,3.0992,3.0992,3.0992,3.0992,3.0992,3.0992,3.0992,3.0992,3.0992,3.0992,3.1018,3.0992,3.0992,3.1018,3.1018,3.1018,3.1018,3.0992,3.0992,3.0992,3.0992,3.0992,3.0992,3.099,3.0868,3.0745,3.0599,3.0177,2.9885,2.9758,2.9079,2.8656,2.8571,2.8122,2.7679,2.7327,2.7144,2.6776,2.6289,2.6214,2.6114,2.5954,2.5002,2.4437,2.4341,2.3749,2.2987,2.2138,2.1717,2.1359,2.0858,2.072,2.0776,2.0884,2.0898,2.1013,2.127,2.1344,2.1353,2.1383,2.1323,2.1456,2.1778,2.1778,2.1684,2.1601,2.1673,2.1652,2.1404,2.1353,2.1302,2.1282,2.1302,2.1374,2.1374,2.1622,2.1622,2.1447,2.1323,2.1116,2.0794,2.0587,2.0448,2.0392,2.0427,2.0261,1.9777,1.9209,1.8585,1.7843,1.7177,1.6534,1.5974,1.5422,1.4596,1.4306,1.3939,1.373,1.3697,1.3921,1.4228,1.4706,1.5003,1.5198,1.5319,1.5388,1.5417,1.5417,1.5417,1.5417,3.1973,3.1504,3.1365,3.1179,3.1001,3.0992,3.0992,3.0992,3.0992,3.0992,3.0992,3.0992,3.0992,3.0992,3.0992,3.114,3.1278,3.1313,3.1418,3.1532,3.1365,3.1209,3.1044,3.0992,3.0992,3.0992,3.0992,3.0992,3.0999,3.0802,3.066,3.052,3.0244,3.0033,2.9966,2.952,2.9233,2.9157,2.869,2.8238,2.7871,2.7512,2.7144,2.6817,2.6608,2.6499,2.6432,2.577,2.5294,2.4912,2.4427,2.3612,2.2702,2.2301,2.1942,2.158,2.1418,2.1405,2.1472,2.14,2.1456,2.1737,2.1799,2.1778,2.1788,2.1799,2.1799,2.1799,2.1778,2.1799,2.1778,2.1799,2.1799,2.1778,2.1757,2.1799,2.1799,2.1799,2.1778,2.1737,2.1778,2.1799,2.1799,2.1778,2.1663,2.1259,2.1073,2.0918,2.0918,2.0951,2.0777,2.0478,1.994,1.9291,1.8626,1.8027,1.7488,1.7066,1.6649,1.5701,1.5011,1.4503,1.4168,1.4154,1.4306,1.4448,1.4867,1.5047,1.5217,1.5315,1.5461,1.5417,1.5417,1.5417,1.5417,3.2282,3.1872,3.1514,3.1263,3.1067,3.1048,3.1039,3.102,3.0992,3.0992,3.0992,3.0992,3.0992,3.0992,3.1097,3.1346,3.1729,3.1859,3.2088,3.2333,3.2166,3.1764,3.1349,3.1296,3.1306,3.1254,3.1227,3.1201,3.1287,3.1078,3.0655,3.0535,3.0333,3.0026,2.9847,2.9798,2.9729,2.9628,2.9217,2.8922,2.8762,2.7962,2.7403,2.7336,2.6868,2.66,2.6591,2.6415,2.6113,2.5586,2.4805,2.4068,2.3293,2.3055,2.276,2.231,2.2382,2.2181,2.208,2.1809,2.1746,2.1778,2.1799,2.1799,2.1799,2.1799,2.1799,2.1799,2.1799,2.1799,2.1799,2.1799,2.1799,2.1799,2.1799,2.1799,2.1799,2.1799,2.1799,2.1799,2.1799,2.1799,2.1799,2.1799,2.1757,2.1725,2.1684,2.1613,2.1613,2.15,2.1443,2.1078,2.0607,2.0366,1.9848,1.9529,1.8954,1.8352,1.7822,1.6827,1.5691,1.5036,1.4568,1.4575,1.4609,1.4775,1.4945,1.5154,1.5402,1.5632,1.5622,1.549,1.5519,1.5632,1.5661,3.2881,3.2273,3.2046,3.1762,3.1447,3.1299,3.1226,3.1198,3.1058,3.102,3.1001,3.0992,3.1001,3.1044,3.1408,3.1676,3.1911,3.2287,3.2515,3.2735,3.3038,3.2777,3.2342,3.2238,3.2212,3.2185,3.2133,3.2274,3.2244,3.1945,3.1593,3.1009,3.0773,3.0371,2.9884,2.9833,2.9779,2.9779,2.9698,2.9318,2.8932,2.8646,2.8288,2.7871,2.7361,2.7085,2.7043,2.67,2.6294,2.5878,2.5626,2.5019,2.4155,2.3682,2.3259,2.2857,2.2539,2.2318,2.212,2.1921,2.1797,2.1799,2.1799,2.1799,2.1799,2.1799,2.1799,2.1799,2.1799,2.184,2.1819,2.184,2.1819,2.1799,2.1891,2.1861,2.1819,2.1799,2.1799,2.1799,2.1799,2.1881,2.1799,2.1819,2.1819,2.1799,2.1799,2.1799,2.1799,2.1778,2.1637,2.1667,2.1419,2.14,2.1233,2.0938,2.0468,1.9754,1.8972,1.7973,1.6684,1.5486,1.5062,1.48,1.4873,1.501,1.5185,1.5359,1.5622,1.5921,1.6038,1.6009,1.6078,1.6166,1.6136,3.3278,3.2641,3.2399,3.2055,3.1734,3.1614,3.1495,3.142,3.1317,3.1179,3.1142,3.1114,3.1067,3.1071,3.1546,3.1964,3.2235,3.2803,3.3205,3.3456,3.377,3.3587,3.3153,3.2891,3.2682,3.2682,3.2708,3.2682,3.2653,3.25,3.2149,3.1711,3.1273,3.0816,3.0458,3.016,3.0011,2.9943,2.9914,2.9699,2.9327,2.9023,2.8762,2.837,2.7921,2.7553,2.7311,2.6984,2.6594,2.6159,2.5919,2.5568,2.4894,2.4204,2.3657,2.3205,2.2843,2.2534,2.2252,2.2044,2.1883,2.1807,2.1799,2.1799,2.1799,2.1799,2.1829,2.2171,2.2294,2.2429,2.2512,2.245,2.2397,2.2429,2.2377,2.2294,2.2128,2.217,2.2026,2.1994,2.2211,2.2305,2.1932,2.1974,2.1953,2.187,2.1799,2.1799,2.1799,2.1799,2.1819,2.1861,2.184,2.171,2.164,2.1401,2.1301,2.0713,1.9866,1.8915,1.7656,1.6254,1.5685,1.5402,1.5299,1.5236,1.5331,1.5544,1.5913,1.6173,1.6408,1.6484,1.647,1.6528,1.6514,3.3575,3.3067,3.2695,3.2327,3.2073,3.2,3.1881,3.1679,3.1614,3.1512,3.1347,3.1319,3.1258,3.1151,3.1793,3.2235,3.2839,3.3404,3.3875,3.4162,3.4293,3.4058,3.3676,3.3273,3.3074,3.3048,3.2918,3.297,3.3044,3.2822,3.2602,3.2366,3.1794,3.1423,3.1165,3.0759,3.0401,3.0243,3.0094,2.9937,2.9667,2.9308,2.9073,2.8947,2.8446,2.7946,2.7578,2.7361,2.7097,2.6456,2.6124,2.5737,2.5288,2.4584,2.3986,2.3501,2.3122,2.2808,2.2547,2.2333,2.2164,2.2094,2.2036,2.1942,2.2015,2.1953,2.2036,2.2677,2.3091,2.3298,2.3267,2.3256,2.3101,2.3018,2.3111,2.2966,2.276,2.2719,2.2534,2.201,2.2835,2.2926,2.2594,2.2294,2.2439,2.2377,2.2263,2.2273,2.2273,2.2294,2.2181,2.1994,2.1943,2.1881,2.181,2.1738,2.1712,2.1457,2.0589,1.9639,1.853,1.7354,1.6593,1.6123,1.5844,1.5565,1.5369,1.5661,1.6125,1.6499,1.6781,1.6696,1.6605,1.6722,1.6751,3.4255,3.3845,3.3481,3.3122,3.2766,3.2587,3.2363,3.2109,3.1944,3.1878,3.1576,3.1428,3.1589,3.1871,3.2342,3.2829,3.3388,3.3911,3.4329,3.4345,3.4387,3.4345,3.4188,3.3979,3.4005,3.3953,3.4016,3.4016,3.3959,3.3823,3.3663,3.3088,3.283,3.2538,3.1919,3.135,3.0937,3.0695,3.0335,3.0011,2.9827,2.9679,2.9543,2.9493,2.9007,2.848,2.8047,2.793,2.7853,2.7532,2.6878,2.614,2.5401,2.4702,2.4219,2.3825,2.3358,2.3047,2.2928,2.2813,2.2736,2.2839,2.278,2.2894,2.2832,2.2211,2.2315,2.2988,2.3743,2.3898,2.3505,2.3287,2.3298,2.3318,2.3287,2.3298,2.334,2.3371,2.292,2.2463,2.291,2.366,2.3794,2.3184,2.308,2.2915,2.2863,2.2883,2.2842,2.2759,2.2593,2.2356,2.2325,2.2284,2.2068,2.2109,2.231,2.2237,2.1488,2.061,1.9501,1.846,1.7675,1.6931,1.6274,1.6001,1.5757,1.6004,1.65,1.6815,1.7094,1.7021,1.6963,1.7018,1.6989,3.4618,3.4332,3.3974,3.3664,3.3422,3.3499,3.3344,3.3092,3.3239,3.3071,3.278,3.2612,3.2581,3.2565,3.3028,3.342,3.367,3.4146,3.4397,3.4387,3.4387,3.4387,3.4387,3.4387,3.4387,3.4387,3.4371,3.4387,3.4387,3.4361,3.4126,3.3803,3.3575,3.3222,3.2695,3.1953,3.1367,3.0978,3.0522,3.0116,2.9837,2.9779,2.9779,2.9789,2.9478,2.9067,2.853,2.8489,2.8329,2.8012,2.7544,2.6738,2.5851,2.5516,2.5219,2.4725,2.4353,2.3967,2.3823,2.3476,2.3294,2.3356,2.3255,2.3194,2.3143,2.2697,2.2842,2.3443,2.4022,2.427,2.3877,2.3836,2.3826,2.3826,2.3805,2.3877,2.3938,2.3856,2.366,2.3225,2.3699,2.4104,2.4125,2.3795,2.3774,2.3639,2.3122,2.3111,2.307,2.3008,2.2997,2.2863,2.2842,2.2708,2.2398,2.2502,2.2915,2.2859,2.2583,2.1726,2.0799,1.9762,1.8758,1.7981,1.719,1.657,1.6389,1.6647,1.6813,1.7038,1.7229,1.7288,1.7273,1.7182,1.7168,3.4868,3.4748,3.4366,3.4177,3.414,3.4504,3.4467,3.4322,3.4743,3.4454,3.4119,3.4042,3.3528,3.3373,3.3621,3.379,3.391,3.412,3.4387,3.4387,3.4387,3.4387,3.4387,3.4387,3.4387,3.4387,3.4387,3.4387,3.4387,3.4387,3.435,3.4282,3.3979,3.3729,3.3426,3.2625,3.1837,3.1413,3.0803,3.0257,2.9872,2.9779,2.9779,2.9789,2.9739,2.9528,2.9142,2.9016,2.8856,2.8398,2.8373,2.7664,2.6966,2.6523,2.6747,2.5979,2.5545,2.4968,2.4538,2.4195,2.3895,2.3715,2.3605,2.3483,2.3453,2.3474,2.3598,2.3888,2.4301,2.4487,2.4487,2.4394,2.4415,2.4456,2.4477,2.4507,2.4456,2.4188,2.4125,2.4279,2.4216,2.4362,2.4363,2.4167,2.4291,2.4291,2.3732,2.338,2.335,2.335,2.3422,2.337,2.3328,2.3111,2.2791,2.3154,2.3536,2.3484,2.3378,2.2777,2.2003,2.1198,2.0159,1.8981,1.8191,1.7583,1.7096,1.7094,1.7225,1.7328,1.7302,1.7302,1.7302,1.7302,1.7302,3.5146,3.5105,3.486,3.4978,3.5292,3.5394,3.5483,3.5465,3.5484,3.5059,3.4572,3.4184,3.4124,3.3983,3.3866,3.4037,3.4214,3.4345,3.4387,3.4387,3.4387,3.4387,3.4387,3.4387,3.4387,3.4387,3.4387,3.4387,3.4387,3.4387,3.4387,3.4361,3.4293,3.4214,3.398,3.3404,3.2485,3.1792,3.1138,3.047,2.9947,2.9779,2.9779,2.9779,2.9779,2.9704,2.9654,2.9638,2.9613,2.9528,2.9512,2.9314,2.8724,2.7713,2.7277,2.7093,2.6237,2.5523,2.5201,2.483,2.4676,2.4651,2.4535,2.4419,2.4303,2.4229,2.4187,2.4291,2.4415,2.4507,2.4507,2.4507,2.4507,2.4507,2.4507,2.4507,2.4497,2.4435,2.4363,2.4497,2.4507,2.4507,2.4425,2.4394,2.4415,2.4456,2.4198,2.397,2.3991,2.4022,2.4043,2.394,2.3795,2.3515,2.3173,2.3784,2.4218,2.4124,2.3974,2.3718,2.3029,2.2519,2.1596,2.029,1.9312,1.8681,1.8239,1.7758,1.7411,1.7346,1.7314,1.7302,1.7302,1.7302,1.7302,3.5359,3.5364,3.5497,3.5705,3.5996,3.6566,3.6739,3.6755,3.6855,3.6514,3.5936,3.5522,3.5093,3.4758,3.4578,3.4518,3.4381,3.4387,3.4387,3.4387,3.4387,3.4387,3.4387,3.4387,3.4387,3.4387,3.4387,3.4387,3.4387,3.4387,3.4387,3.4387,3.4387,3.4387,3.4215,3.357,3.2848,3.21,3.1333,3.0538,2.9884,2.9779,2.9779,2.9779,2.9779,2.9779,2.9779,2.9779,2.9789,2.9754,2.9779,2.9779,2.9503,2.9053,2.831,2.8048,2.7106,2.6332,2.6035,2.5669,2.5301,2.5041,2.4956,2.4775,2.4604,2.4466,2.4507,2.4507,2.4507,2.4507,2.4507,2.4507,2.4507,2.4507,2.4507,2.4507,2.4507,2.4507,2.4507,2.4507,2.4507,2.4507,2.4507,2.4487,2.4487,2.4507,2.4507,2.4507,2.4507,2.4456,2.4384,2.4312,2.4136,2.3991,2.3732,2.4094,2.4507,2.4475,2.4411,2.4152,2.3765,2.3136,2.241,2.1408,2.0594,1.954,1.8812,1.8118,1.7751,1.7361,1.7326,1.7302,1.7302,1.7302,1.7334,3.5489,3.5533,3.6058,3.6335,3.6599,3.7537,3.7939,3.7967,3.8128,3.7758,3.7134,3.6736,3.6076,3.5386,3.5028,3.4781,3.4408,3.4387,3.4387,3.4387,3.4387,3.4387,3.4387,3.4387,3.4387,3.4387,3.4387,3.4387,3.4387,3.4387,3.4387,3.4387,3.4387,3.4387,3.4241,3.3706,3.2946,3.2249,3.1426,3.065,3.0003,2.9779,2.9779,2.9779,2.9779,2.9779,2.9779,2.9779,2.9779,2.9779,2.9779,2.9779,2.9779,2.9779,2.9458,2.8776,2.8069,2.7483,2.6909,2.6373,2.5767,2.5306,2.5094,2.4828,2.4593,2.4507,2.4507,2.4507,2.4507,2.4507,2.4507,2.4507,2.4507,2.4507,2.4507,2.4507,2.4507,2.4507,2.4507,2.4507,2.4507,2.4507,2.4507,2.4507,2.4507,2.4507,2.4507,2.4507,2.4507,2.4507,2.4477,2.4477,2.4435,2.4435,2.4311,2.4249,2.4507,2.4497,2.4464,2.4325,2.3991,2.357,2.2813,2.1975,2.0921,1.9877,1.9184,1.8458,1.7912,1.7512,1.7372,1.7361,1.7463,1.7509,1.753,3.5489,3.5571,3.6191,3.6781,3.7302,3.8053,3.8582,3.8832,3.8583,3.8137,3.7481,3.693,3.632,3.5619,3.5034,3.4704,3.4481,3.4387,3.4387,3.4387,3.4387,3.4387,3.4387,3.4387,3.4387,3.4387,3.4387,3.4387,3.4387,3.4387,3.4387,3.4387,3.4387,3.4387,3.433,3.3897,3.3383,3.2721,3.1833,3.0843,3.0054,2.9853,2.9827,2.9818,2.9827,2.9827,2.9837,2.9827,2.9818,2.9779,2.9779,2.9779,2.9779,2.9779,2.9794,2.939,2.8736,2.7834,2.7246,2.6693,2.6145,2.559,2.5295,2.4924,2.4636,2.4507,2.4507,2.4507,2.4507,2.4507,2.4507,2.4507,2.4507,2.4507,2.4507,2.4507,2.4507,2.4507,2.4507,2.4507,2.4507,2.4507,2.4507,2.4507,2.4507,2.4507,2.4507,2.4507,2.4507,2.4507,2.4507,2.4507,2.4507,2.4507,2.4507,2.4507,2.4507,2.4507,2.4486,2.4454,2.4174,2.3754,2.309,2.2205,2.1183,2.0252,1.9471,1.8747,1.8025,1.7642,1.7507,1.7565,1.7709,1.7729,1.7763,3.5489,3.5601,3.6588,3.7157,3.7516,3.8503,3.9095,3.9142,3.8863,3.8333,3.7768,3.726,3.6547,3.572,3.5075,3.4756,3.4605,3.446,3.4387,3.4387,3.4387,3.4387,3.4387,3.4387,3.4387,3.4387,3.4387,3.4387,3.4387,3.4387,3.4387,3.4387,3.4387,3.4387,3.4377,3.4084,3.3643,3.2921,3.1989,3.1111,3.0654,3.0323,3.0136,3.0136,3.011,3.0053,2.9991,2.9972,2.9895,2.9827,2.9779,2.9779,2.9779,2.9779,2.9779,2.9731,2.9131,2.8365,2.7642,2.7032,2.6426,2.5843,2.5412,2.4988,2.4626,2.4507,2.4507,2.4507,2.4507,2.4507,2.4507,2.4507,2.4507,2.4507,2.4507,2.4507,2.4507,2.4507,2.4507,2.4507,2.4507,2.4507,2.4507,2.4507,2.4507,2.4507,2.4507,2.4507,2.4507,2.4507,2.4507,2.4507,2.4507,2.4507,2.4507,2.4507,2.4507,2.4507,2.4507,2.4443,2.4314,2.3873,2.3343,2.269,2.1807,2.0846,1.9886,1.8897,1.8048,1.779,1.7609,1.777,1.7943,1.8086,1.815,3.5489,3.5609,3.6716,3.7276,3.7516,3.8644,3.9242,3.9346,3.9017,3.8546,3.8023,3.7452,3.6665,3.5841,3.526,3.4921,3.4777,3.4512,3.4418,3.4387,3.4387,3.4387,3.4387,3.4387,3.4387,3.4387,3.4387,3.4387,3.4387,3.4387,3.4387,3.4387,3.4387,3.4387,3.4345,3.4163,3.3757,3.307,3.2223,3.1569,3.1133,3.0785,3.0538,3.0429,3.0378,3.033,3.0187,3.0081,3.0001,2.9924,2.9808,2.9789,2.9779,2.9779,2.9779,2.9692,2.9283,2.8786,2.8065,2.7409,2.6715,2.6062,2.5433,2.4935,2.4604,2.4507,2.4507,2.4507,2.4507,2.4507,2.4507,2.4507,2.4507,2.4507,2.4507,2.4507,2.4507,2.4507,2.4507,2.4507,2.4507,2.4507,2.4507,2.4507,2.4507,2.4507,2.4507,2.4507,2.4507,2.4507,2.4507,2.4507,2.4507,2.4507,2.4507,2.4507,2.4507,2.4569,2.459,2.461,2.4605,2.4372,2.3939,2.3203,2.2476,2.1671,2.0865,1.9433,1.8087,1.7805,1.7626,1.7974,1.8191,1.835,1.8553,3.5489,3.5579,3.6267,3.6857,3.7417,3.8161,3.8832,3.9293,3.9144,3.8806,3.8277,3.7472,3.6685,3.6021,3.5538,3.5147,3.4808,3.4512,3.4429,3.4408,3.4387,3.4387,3.4387,3.4387,3.4387,3.4387,3.4387,3.4387,3.4387,3.4387,3.4387,3.4387,3.4387,3.4387,3.4345,3.4204,3.383,3.3297,3.2746,3.216,3.1601,3.1144,3.0913,3.0522,3.0425,3.0397,3.0368,3.0216,3.0081,3.0059,2.9885,2.9789,2.9779,2.9779,2.9779,2.9692,2.9385,2.8983,2.8474,2.7703,2.6899,2.6186,2.5485,2.4882,2.454,2.4507,2.4507,2.4507,2.4507,2.4507,2.4507,2.4507,2.4507,2.4507,2.4507,2.4507,2.4507,2.4507,2.4507,2.4507,2.4507,2.4507,2.4507,2.4507,2.4507,2.4507,2.4507,2.4507,2.4507,2.4507,2.4507,2.4507,2.4507,2.4507,2.4507,2.4601,2.488,2.4922,2.4911,2.5014,2.5085,2.4793,2.452,2.4077,2.3395,2.2617,2.1789,2.0586,1.9352,1.8084,1.7741,1.8294,1.8613,1.8787,1.8977,3.5489,3.5519,3.5789,3.6267,3.6934,3.7952,3.855,3.8814,3.8993,3.8797,3.8287,3.7519,3.69,3.6379,3.581,3.5345,3.5003,3.4756,3.4564,3.4429,3.4387,3.4387,3.4387,3.4387,3.4387,3.4387,3.4387,3.4387,3.4387,3.4387,3.4387,3.4387,3.4387,3.4387,3.4345,3.4314,3.4064,3.383,3.3436,3.2875,3.2278,3.1698,3.1309,3.0809,3.0766,3.0681,3.0577,3.0387,3.0235,3.0097,2.9905,2.9818,2.9779,2.9779,2.9779,2.976,2.9434,2.9135,2.8712,2.7904,2.7011,2.6125,2.5454,2.4924,2.4551,2.4507,2.4507,2.4507,2.4528,2.4518,2.4528,2.4528,2.4507,2.4507,2.4549,2.4601,2.4642,2.4704,2.4642,2.4704,2.4601,2.4507,2.4507,2.4507,2.4507,2.4507,2.4507,2.4507,2.4507,2.4507,2.4507,2.4507,2.4507,2.4807,2.4849,2.5066,2.5337,2.5305,2.5273,2.5408,2.5542,2.5423,2.5121,2.4746,2.4341,2.3571,2.2738,2.1825,2.0683,1.943,1.889,1.8875,1.9094,1.9267,1.9399,3.5489,3.5489,3.5489,3.5908,3.6613,3.7443,3.808,3.8434,3.8737,3.8741,3.8313,3.7758,3.7211,3.6715,3.6091,3.5558,3.5208,3.4911,3.4704,3.4569,3.446,3.4408,3.4387,3.4387,3.4387,3.4387,3.4387,3.4387,3.4387,3.4387,3.4387,3.4387,3.4387,3.4387,3.4387,3.4387,3.4387,3.4267,3.4031,3.3535,3.2976,3.26,3.1918,3.1406,3.124,3.1045,3.0797,3.053,3.033,3.0149,2.9972,2.9808,2.9779,2.9779,2.9779,2.9711,2.9541,2.9243,2.8762,2.7864,2.6931,2.6031,2.5475,2.4988,2.4668,2.4559,2.4663,2.5461,2.5077,2.4642,2.4807,2.5025,2.5015,2.5098,2.515,2.5171,2.5139,2.516,2.5004,2.4922,2.4828,2.4849,2.4714,2.4745,2.458,2.4559,2.4507,2.4507,2.4507,2.4507,2.4507,2.4507,2.4507,2.4901,2.5305,2.5792,2.6188,2.5803,2.5803,2.5877,2.5944,2.5909,2.5932,2.5757,2.5259,2.4528,2.3791,2.3012,2.1957,2.0796,2.0411,2.0084,1.9805,1.9965,1.986,3.5489,3.5489,3.5489,3.5878,3.6425,3.6515,3.7233,3.8161,3.8404,3.8582,3.8627,3.8127,3.7539,3.6959,3.632,3.582,3.5392,3.5014,3.4787,3.4714,3.4491,3.4408,3.4387,3.4387,3.4387,3.4387,3.4387,3.4387,3.4387,3.4387,3.4387,3.4387,3.4387,3.4387,3.4387,3.4387,3.4387,3.4397,3.4345,3.3979,3.3561,3.3336,3.2715,3.2052,3.165,3.1413,3.1112,3.0603,3.0413,3.0292,2.9972,2.9808,2.9779,2.9779,2.9779,2.9769,2.956,2.9326,2.9037,2.7719,2.6845,2.6224,2.5826,2.5221,2.4731,2.4643,2.5222,2.6188,2.5762,2.542,2.5585,2.5865,2.5783,2.5576,2.5607,2.5542,2.5499,2.5555,2.5378,2.5332,2.5375,2.5345,2.5159,2.4993,2.4725,2.4601,2.4539,2.4539,2.4632,2.4725,2.4807,2.4663,2.4725,2.5512,2.6093,2.6759,2.6966,2.6551,2.6395,2.656,2.6685,2.678,2.6777,2.6715,2.6339,2.5739,2.5032,2.4296,2.3155,2.2091,2.1718,2.136,2.0974,2.0557,2.0377,3.5489,3.5489,3.5489,3.5639,3.5878,3.6335,3.6784,3.7272,3.7994,3.8546,3.8679,3.8417,3.7872,3.7221,3.6713,3.6141,3.5626,3.5198,3.4973,3.4787,3.4559,3.4418,3.4387,3.4387,3.4387,3.4387,3.4387,3.4387,3.4387,3.4387,3.4387,3.4387,3.445,3.4387,3.4387,3.4387,3.4387,3.4387,3.4345,3.4146,3.3676,3.3571,3.3231,3.2437,3.2068,3.1745,3.1439,3.0819,3.0467,3.0356,2.9991,2.9798,2.9779,2.9779,2.9814,2.9814,2.9688,2.9603,2.9255,2.8423,2.7649,2.7064,2.6428,2.5765,2.5147,2.4668,2.5609,2.6738,2.6602,2.627,2.601,2.656,2.654,2.5939,2.5781,2.5638,2.5595,2.5738,2.5771,2.5824,2.5851,2.5954,2.5896,2.5533,2.5222,2.5139,2.5139,2.5058,2.5121,2.5275,2.5367,2.5057,2.5119,2.6052,2.6841,2.7297,2.7443,2.7069,2.7149,2.7448,2.7552,2.7543,2.7637,2.757,2.7318,2.7003,2.6059,2.5153,2.4248,2.3441,2.2814,2.2057,2.1375,2.097,2.0735,3.5489,3.5489,3.5489,3.5489,3.5579,3.5968,3.6246,3.6635,3.7584,3.8237,3.8445,3.8251,3.7924,3.7434,3.6998,3.6546,3.5938,3.5514,3.5127,3.4921,3.4673,3.4501,3.4429,3.4387,3.4387,3.4387,3.4387,3.4387,3.4387,3.4387,3.4387,3.445,3.4607,3.4774,3.4711,3.4607,3.4387,3.4387,3.4371,3.4267,3.4005,3.3849,3.3623,3.3091,3.2643,3.2222,3.1678,3.1113,3.0564,3.0318,3.003,2.9814,2.9779,2.9804,2.999,3.0191,3.0263,3.0198,2.9894,2.9433,2.8794,2.8431,2.7497,2.6639,2.6012,2.5665,2.6112,2.6893,2.7238,2.7007,2.6634,2.7215,2.6966,2.6344,2.6289,2.6165,2.6197,2.6383,2.6415,2.6433,2.643,2.6544,2.6478,2.6135,2.5751,2.5762,2.5783,2.5713,2.5652,2.5764,2.5948,2.5751,2.5564,2.627,2.7037,2.7646,2.77,2.7546,2.7791,2.8119,2.8078,2.8048,2.8235,2.8415,2.8189,2.7768,2.6846,2.5945,2.5078,2.423,2.3444,2.2646,2.1792,2.1487,2.1295,3.5489,3.5489,3.5489,3.5489,3.5489,3.5549,3.5908,3.6515,3.7135,3.7634,3.8017,3.7736,3.7685,3.77,3.7251,3.6773,3.6288,3.5831,3.5406,3.5096,3.4777,3.4611,3.4439,3.4387,3.4387,3.4387,3.4387,3.4387,3.4387,3.4387,3.4387,3.4607,3.4972,3.5166,3.5103,3.4972,3.4711,3.4659,3.457,3.4476,3.4293,3.4267,3.4005,3.3639,3.3352,3.2756,3.2119,3.1444,3.089,3.0441,2.998,2.9868,2.9814,2.9814,3.0482,3.0994,3.1112,3.0902,3.0788,3.0288,3.0076,2.9621,2.8475,2.7734,2.7248,2.6925,2.7073,2.7133,2.7309,2.7309,2.7309,2.7309,2.7268,2.7123,2.7123,2.7087,2.7108,2.7143,2.7143,2.7129,2.7117,2.7069,2.68,2.6478,2.6404,2.6415,2.6457,2.6528,2.6415,2.6178,2.6395,2.6652,2.654,2.6551,2.7203,2.804,2.809,2.7978,2.833,2.8616,2.8553,2.8595,2.8813,2.8974,2.8987,2.8484,2.7526,2.6699,2.5928,2.5058,2.3942,2.3366,2.2531,2.2291,2.2085,3.5489,3.5489,3.5489,3.5489,3.5489,3.5489,3.5878,3.6493,3.6725,3.7024,3.7395,3.7798,3.7666,3.7416,3.7396,3.7048,3.6498,3.5908,3.5433,3.5075,3.4766,3.4559,3.4418,3.4387,3.4387,3.4387,3.4387,3.4387,3.4387,3.4387,3.4674,3.504,3.526,3.5521,3.5704,3.5704,3.5428,3.514,3.504,3.4763,3.4528,3.4424,3.4241,3.411,3.3806,3.3204,3.2661,3.2067,3.1484,3.0763,3.048,3.0256,2.9824,3.0156,3.0738,3.1225,3.1262,3.1166,3.1402,3.1036,3.0769,3.0791,2.9925,2.9104,2.8594,2.8149,2.7841,2.7516,2.7333,2.7309,2.7309,2.7309,2.7309,2.7309,2.7309,2.7309,2.7309,2.7309,2.7309,2.7309,2.7309,2.7339,2.7069,2.7141,2.7087,2.7078,2.712,2.7241,2.7241,2.7004,2.6984,2.7274,2.7389,2.7401,2.7866,2.864,2.8524,2.8504,2.8856,2.9104,2.9125,2.9208,2.9435,2.942,2.9278,2.8808,2.814,2.726,2.6241,2.5238,2.4189,2.379,2.3388,2.298,2.276,3.5489,3.5489,3.5489,3.5489,3.5489,3.5489,3.5759,3.6066,3.6096,3.6363,3.6879,3.7159,3.7379,3.7476,3.7344,3.7101,3.6764,3.6051,3.5487,3.5065,3.4698,3.4559,3.4439,3.4387,3.4387,3.4387,3.4387,3.4387,3.4387,3.445,3.4685,3.5234,3.5443,3.594,3.6358,3.6619,3.6515,3.6018,3.5537,3.5155,3.4816,3.4528,3.4424,3.4335,3.4005,3.3674,3.3158,3.2582,3.2005,3.1261,3.0964,3.0532,3.0351,3.0809,3.1401,3.1903,3.1991,3.2023,3.2113,3.1895,3.1734,3.1509,3.1061,3.026,2.9498,2.8902,2.818,2.7559,2.7416,2.7309,2.7309,2.7309,2.7309,2.7309,2.7309,2.7309,2.7309,2.7309,2.7309,2.7309,2.738,2.7472,2.7534,2.7667,2.7812,2.7862,2.7903,2.7974,2.7995,2.7883,2.7862,2.8015,2.8143,2.823,2.8723,2.9042,2.9042,2.9063,2.9311,2.9539,2.9622,2.9663,2.9725,2.962,2.944,2.892,2.833,2.7311,2.6295,2.5366,2.4579,2.4075,2.3627,2.3177,2.3075,3.5489,3.5489,3.5489,3.5489,3.5489,3.5489,3.5519,3.5489,3.5579,3.5848,3.6315,3.6326,3.6805,3.7116,3.6997,3.6768,3.634,3.577,3.5099,3.4956,3.4664,3.4421,3.4282,3.4361,3.4387,3.4387,3.4387,3.4387,3.4387,3.445,3.4711,3.5286,3.5678,3.6096,3.6593,3.7168,3.7063,3.666,3.6033,3.5547,3.5182,3.48,3.446,3.4397,3.4241,3.3986,3.3302,3.2803,3.249,3.1837,3.1346,3.0944,3.1145,3.1723,3.2351,3.2552,3.262,3.2685,3.2646,3.2477,3.2318,3.2008,3.1543,3.0963,3.0285,2.9416,2.856,2.7989,2.7813,2.7686,2.7638,2.7721,2.7762,2.7762,2.7762,2.7762,2.7762,2.7608,2.7309,2.7309,2.733,2.7513,2.811,2.8255,2.8454,2.8574,2.8616,2.8624,2.8678,2.8649,2.8657,2.8698,2.8661,2.8757,2.9075,2.9373,2.9559,2.9684,2.98,2.9842,2.9829,2.9891,2.9973,2.9811,2.9567,2.9026,2.8382,2.7449,2.6637,2.587,2.5117,2.4432,2.3942,2.3586,2.3221,3.5489,3.5489,3.5489,3.5489,3.5489,3.5489,3.5489,3.5489,3.5489,3.5601,3.581,3.6171,3.6374,3.6437,3.6463,3.6211,3.5583,3.5187,3.4368,3.4112,3.4006,3.4104,3.3952,3.4173,3.4345,3.4387,3.4387,3.4387,3.4387,3.4476,3.4695,3.5244,3.5558,3.5861,3.641,3.7011,3.7131,3.6948,3.6765,3.607,3.5469,3.5208,3.4946,3.4607,3.433,3.4095,3.3601,3.3423,3.2865,3.2233,3.206,3.1863,3.1763,3.2627,3.2953,3.2928,3.2989,3.3036,3.3061,3.2956,3.2841,3.2859,3.2471,3.1694,3.0877,2.9897,2.9176,2.8673,2.8291,2.815,2.8061,2.8185,2.8214,2.8235,2.8226,2.8226,2.8226,2.7845,2.7422,2.7309,2.7309,2.7886,2.8533,2.8864,2.9042,2.9125,2.9125,2.9153,2.927,2.929,2.9228,2.9208,2.9034,2.915,2.9456,2.9622,2.9766,2.9849,2.9911,2.9953,2.9994,2.9994,3.0015,2.9916,2.9659,2.9266,2.8732,2.7878,2.7074,2.6363,2.5744,2.5093,2.4748,2.4416,2.3802,3.5048,3.5078,3.537,3.5489,3.5489,3.5489,3.5489,3.5489,3.5489,3.5489,3.5511,3.5845,3.5978,3.5823,3.5884,3.5635,3.4983,3.4498,3.4083,3.37,3.3456,3.3627,3.3776,3.3952,3.4199,3.4319,3.4371,3.4387,3.4387,3.445,3.4685,3.5192,3.5312,3.5547,3.6096,3.6645,3.6974,3.7,3.7194,3.6854,3.5966,3.56,3.5234,3.4816,3.4517,3.4193,3.3848,3.3658,3.3261,3.2804,3.2638,3.2591,3.2552,3.2889,3.3075,3.3101,3.3126,3.3215,3.3312,3.3375,3.3421,3.3536,3.3348,3.2553,3.2188,3.1309,3.0679,3.0156,2.9388,2.9134,2.8881,2.8889,2.8711,2.8628,2.8524,2.8429,2.8409,2.8255,2.7729,2.7318,2.7816,2.893,2.9415,2.9456,2.9635,2.9601,2.9601,2.9559,2.9684,2.9725,2.9704,2.9663,2.9469,2.949,2.9746,2.9849,2.9911,2.9973,2.9994,3.0015,3.0036,3.0015,3.0002,3.0239,3.0217,2.9789,2.9164,2.8463,2.7691,2.6982,2.6384,2.5786,2.5513,2.5256,2.4752,3.4436,3.4578,3.5108,3.5421,3.5489,3.5489,3.5489,3.5489,3.5489,3.5489,3.5489,3.5519,3.5618,3.5571,3.5362,3.5125,3.4719,3.4104,3.3718,3.3353,3.3124,3.3301,3.3528,3.375,3.4061,3.4287,3.4397,3.4387,3.4387,3.445,3.4633,3.5103,3.5286,3.5417,3.595,3.6488,3.6791,3.6985,3.7194,3.7482,3.6854,3.607,3.56,3.5208,3.481,3.425,3.3889,3.3615,3.345,3.3247,3.3014,3.2989,3.2989,3.304,3.3065,3.3126,3.3291,3.3481,3.3735,3.3914,3.4167,3.4289,3.3965,3.3623,3.324,3.2769,3.212,3.1215,3.0452,2.9943,2.9701,2.944,2.9208,2.9063,2.8905,2.8822,2.8781,2.8748,2.8255,2.7721,2.8599,2.9787,2.9911,2.9987,3.0007,2.9994,2.9994,2.9994,2.9973,2.9911,2.987,2.987,2.9787,2.987,2.9994,2.9994,2.9994,2.9994,2.9994,3.0036,3.0139,3.0387,3.0677,3.1023,3.0881,3.0425,2.9941,2.9331,2.8511,2.7769,2.6878,2.6322,2.627,2.6006,2.5724,3.4009,3.4533,3.4667,3.4997,3.5429,3.5489,3.5489,3.5489,3.5489,3.5489,3.5489,3.5465,3.5413,3.5062,3.4747,3.4445,3.4119,3.36,3.3001,3.2507,3.2807,3.3048,3.3288,3.36,3.4028,3.425,3.4387,3.4387,3.4387,3.4397,3.446,3.4633,3.4607,3.4737,3.4931,3.56,3.6425,3.6724,3.7351,3.7769,3.7639,3.6895,3.6149,3.5678,3.5197,3.4519,3.4007,3.3725,3.345,3.324,3.3126,3.3126,3.3126,3.3126,3.314,3.3316,3.3456,3.3796,3.4087,3.4377,3.4701,3.5073,3.4743,3.4445,3.4102,3.3836,3.293,3.1664,3.0957,3.0518,3.0236,2.9912,2.9684,2.9684,2.9601,2.958,2.958,2.9559,2.9352,2.92,2.9469,2.9953,2.9953,2.9994,2.9994,2.9994,2.9994,2.9994,2.9994,2.9994,3.0015,3.0015,3.0015,2.9994,2.9994,2.9994,2.9994,2.9994,3.0139,3.0408,3.0677,3.0988,3.1319,3.1623,3.1512,3.1086,3.0598,3.0189,2.9574,2.8755,2.7513,2.6833,2.6828,2.6687,2.6327]}]]